<?xml version="1.0" encoding="UTF-8" standalone="no" ?>
<gpx xmlns="http://www.topografix.com/GPX/1/1" xmlns:xsi="http://www.w3.org/2001/XMLSchema-instance" xsi:schemaLocation="http://www.topografix.com/GPX/1/1 http://www.topografix.com/GPX/1/1/gpx.xsd" version="1.1" creator="VisuGPX - https://www.visugpx.com">
  <metadata>
    <name>Rando autour du Rocher des Vierges  Saint jean de la Blaquiére</name>
    <desc><![CDATA[Rando dans les ruffes autour du rocher des vierges le ruisseau de lagatel du coté de saint jean de la Blaquiére. Pour remonter le ruisseau il ne faut pas faire cette rando aprés une période de pluie.]]></desc>
  </metadata>
  <wpt lat="25.0618" lon="121.6403">
    <name><![CDATA[Garmin_Asia]]></name>
    <link href="C:/Users/jef/AppData/Roaming/Garmin/BaseCamp/GeotaggedPhotos/Garmin_Asia.jpg"></link>
    <type><![CDATA[photo]]></type>
  </wpt>
  <wpt lat="50.9017" lon="-1.4894">
    <name><![CDATA[Garmin_Europe]]></name>
    <link href="C:/Users/jef/AppData/Roaming/Garmin/BaseCamp/GeotaggedPhotos/Garmin_Europe.jpg"></link>
    <type><![CDATA[photo]]></type>
  </wpt>
  <wpt lat="38.8556" lon="-94.799">
    <name><![CDATA[Garmin_USA]]></name>
    <link href="C:/Users/jef/AppData/Roaming/Garmin/BaseCamp/GeotaggedPhotos/Garmin_USA.jpg"></link>
    <type><![CDATA[photo]]></type>
  </wpt>
  <trk>
    <name><![CDATA[03-MARS-13 17:20:20]]></name>
    <trkseg>
      <trkpt lat="43.70533" lon="3.44046">
        <ele>183.75</ele>
        <time>2013-03-03T09:00:03Z</time>
      </trkpt>
      <trkpt lat="43.70531" lon="3.44048">
        <ele>183.75</ele>
        <time>2013-03-03T09:00:25Z</time>
      </trkpt>
      <trkpt lat="43.70528" lon="3.44045">
        <ele>183.75</ele>
        <time>2013-03-03T09:00:37Z</time>
      </trkpt>
      <trkpt lat="43.70528" lon="3.44045">
        <ele>183.75</ele>
        <time>2013-03-03T09:00:49Z</time>
      </trkpt>
      <trkpt lat="43.70524" lon="3.44044">
        <ele>183.75</ele>
        <time>2013-03-03T09:01:00Z</time>
      </trkpt>
      <trkpt lat="43.70518" lon="3.44038">
        <ele>182.79</ele>
        <time>2013-03-03T09:01:15Z</time>
      </trkpt>
      <trkpt lat="43.70516" lon="3.44034">
        <ele>181.83</ele>
        <time>2013-03-03T09:01:26Z</time>
      </trkpt>
      <trkpt lat="43.70502" lon="3.44013">
        <ele>178.94</ele>
        <time>2013-03-03T09:01:45Z</time>
      </trkpt>
      <trkpt lat="43.70492" lon="3.43988">
        <ele>178.94</ele>
        <time>2013-03-03T09:02:04Z</time>
      </trkpt>
      <trkpt lat="43.70488" lon="3.43981">
        <ele>178.94</ele>
        <time>2013-03-03T09:02:10Z</time>
      </trkpt>
      <trkpt lat="43.70485" lon="3.43975">
        <ele>179.42</ele>
        <time>2013-03-03T09:02:14Z</time>
      </trkpt>
      <trkpt lat="43.70477" lon="3.43961">
        <ele>178.94</ele>
        <time>2013-03-03T09:02:28Z</time>
      </trkpt>
      <trkpt lat="43.7047" lon="3.43938">
        <ele>179.9</ele>
        <time>2013-03-03T09:02:46Z</time>
      </trkpt>
      <trkpt lat="43.70465" lon="3.43925">
        <ele>179.9</ele>
        <time>2013-03-03T09:02:59Z</time>
      </trkpt>
      <trkpt lat="43.70456" lon="3.439">
        <ele>179.42</ele>
        <time>2013-03-03T09:03:17Z</time>
      </trkpt>
      <trkpt lat="43.7045" lon="3.43881">
        <ele>178.94</ele>
        <time>2013-03-03T09:03:32Z</time>
      </trkpt>
      <trkpt lat="43.70442" lon="3.43855">
        <ele>177.98</ele>
        <time>2013-03-03T09:03:51Z</time>
      </trkpt>
      <trkpt lat="43.70443" lon="3.43829">
        <ele>178.94</ele>
        <time>2013-03-03T09:04:08Z</time>
      </trkpt>
      <trkpt lat="43.70445" lon="3.43825">
        <ele>179.42</ele>
        <time>2013-03-03T09:04:12Z</time>
      </trkpt>
      <trkpt lat="43.70449" lon="3.43822">
        <ele>179.9</ele>
        <time>2013-03-03T09:04:16Z</time>
      </trkpt>
      <trkpt lat="43.70456" lon="3.43816">
        <ele>181.83</ele>
        <time>2013-03-03T09:04:25Z</time>
      </trkpt>
      <trkpt lat="43.70468" lon="3.43815">
        <ele>184.23</ele>
        <time>2013-03-03T09:04:40Z</time>
      </trkpt>
      <trkpt lat="43.70479" lon="3.43811">
        <ele>185.67</ele>
        <time>2013-03-03T09:04:51Z</time>
      </trkpt>
      <trkpt lat="43.7049" lon="3.43808">
        <ele>188.08</ele>
        <time>2013-03-03T09:05:05Z</time>
      </trkpt>
      <trkpt lat="43.70502" lon="3.43801">
        <ele>190.96</ele>
        <time>2013-03-03T09:05:20Z</time>
      </trkpt>
      <trkpt lat="43.70516" lon="3.43795">
        <ele>193.84</ele>
        <time>2013-03-03T09:05:36Z</time>
      </trkpt>
      <trkpt lat="43.70529" lon="3.43793">
        <ele>196.25</ele>
        <time>2013-03-03T09:05:52Z</time>
      </trkpt>
      <trkpt lat="43.7054" lon="3.43791">
        <ele>199.13</ele>
        <time>2013-03-03T09:06:07Z</time>
      </trkpt>
      <trkpt lat="43.70552" lon="3.4379">
        <ele>202.01</ele>
        <time>2013-03-03T09:06:22Z</time>
      </trkpt>
      <trkpt lat="43.70564" lon="3.43787">
        <ele>205.38</ele>
        <time>2013-03-03T09:06:37Z</time>
      </trkpt>
      <trkpt lat="43.70565" lon="3.43787">
        <ele>205.38</ele>
        <time>2013-03-03T09:06:38Z</time>
      </trkpt>
      <trkpt lat="43.7058" lon="3.43774">
        <ele>207.78</ele>
        <time>2013-03-03T09:06:54Z</time>
      </trkpt>
      <trkpt lat="43.70586" lon="3.43764">
        <ele>207.78</ele>
        <time>2013-03-03T09:07:10Z</time>
      </trkpt>
      <trkpt lat="43.70586" lon="3.43763">
        <ele>207.78</ele>
        <time>2013-03-03T09:07:21Z</time>
      </trkpt>
      <trkpt lat="43.70585" lon="3.43762">
        <ele>207.78</ele>
        <time>2013-03-03T09:07:33Z</time>
      </trkpt>
      <trkpt lat="43.70588" lon="3.43757">
        <ele>207.3</ele>
        <time>2013-03-03T09:07:44Z</time>
      </trkpt>
      <trkpt lat="43.70587" lon="3.43765">
        <ele>207.78</ele>
        <time>2013-03-03T09:07:57Z</time>
      </trkpt>
      <trkpt lat="43.70586" lon="3.43763">
        <ele>207.78</ele>
        <time>2013-03-03T09:08:00Z</time>
      </trkpt>
      <trkpt lat="43.70586" lon="3.4375">
        <ele>206.82</ele>
        <time>2013-03-03T09:08:14Z</time>
      </trkpt>
      <trkpt lat="43.70585" lon="3.43725">
        <ele>204.42</ele>
        <time>2013-03-03T09:08:32Z</time>
      </trkpt>
      <trkpt lat="43.70577" lon="3.437">
        <ele>202.49</ele>
        <time>2013-03-03T09:08:50Z</time>
      </trkpt>
      <trkpt lat="43.70565" lon="3.43674">
        <ele>201.05</ele>
        <time>2013-03-03T09:09:10Z</time>
      </trkpt>
      <trkpt lat="43.70547" lon="3.43655">
        <ele>198.65</ele>
        <time>2013-03-03T09:09:30Z</time>
      </trkpt>
      <trkpt lat="43.70531" lon="3.43645">
        <ele>197.69</ele>
        <time>2013-03-03T09:09:46Z</time>
      </trkpt>
      <trkpt lat="43.70517" lon="3.43618">
        <ele>196.73</ele>
        <time>2013-03-03T09:10:06Z</time>
      </trkpt>
      <trkpt lat="43.70505" lon="3.43586">
        <ele>196.25</ele>
        <time>2013-03-03T09:10:27Z</time>
      </trkpt>
      <trkpt lat="43.70495" lon="3.43554">
        <ele>195.28</ele>
        <time>2013-03-03T09:10:48Z</time>
      </trkpt>
      <trkpt lat="43.70482" lon="3.4353">
        <ele>195.28</ele>
        <time>2013-03-03T09:11:07Z</time>
      </trkpt>
      <trkpt lat="43.70481" lon="3.43519">
        <ele>194.8</ele>
        <time>2013-03-03T09:11:21Z</time>
      </trkpt>
      <trkpt lat="43.70482" lon="3.43517">
        <ele>194.8</ele>
        <time>2013-03-03T09:11:30Z</time>
      </trkpt>
      <trkpt lat="43.70479" lon="3.43511">
        <ele>195.77</ele>
        <time>2013-03-03T09:11:42Z</time>
      </trkpt>
      <trkpt lat="43.70476" lon="3.43508">
        <ele>195.28</ele>
        <time>2013-03-03T09:11:54Z</time>
      </trkpt>
      <trkpt lat="43.70475" lon="3.4351">
        <ele>195.28</ele>
        <time>2013-03-03T09:12:21Z</time>
      </trkpt>
      <trkpt lat="43.70474" lon="3.43512">
        <ele>194.8</ele>
        <time>2013-03-03T09:12:43Z</time>
      </trkpt>
      <trkpt lat="43.70473" lon="3.43512">
        <ele>194.8</ele>
        <time>2013-03-03T09:13:01Z</time>
      </trkpt>
      <trkpt lat="43.70472" lon="3.43513">
        <ele>194.8</ele>
        <time>2013-03-03T09:13:14Z</time>
      </trkpt>
      <trkpt lat="43.70468" lon="3.43509">
        <ele>194.32</ele>
        <time>2013-03-03T09:13:27Z</time>
      </trkpt>
      <trkpt lat="43.70466" lon="3.43508">
        <ele>194.32</ele>
        <time>2013-03-03T09:13:41Z</time>
      </trkpt>
      <trkpt lat="43.70466" lon="3.43509">
        <ele>194.32</ele>
        <time>2013-03-03T09:13:43Z</time>
      </trkpt>
      <trkpt lat="43.70468" lon="3.43516">
        <ele>194.8</ele>
        <time>2013-03-03T09:13:55Z</time>
      </trkpt>
      <trkpt lat="43.70468" lon="3.43516">
        <ele>194.8</ele>
        <time>2013-03-03T09:14:11Z</time>
      </trkpt>
      <trkpt lat="43.70463" lon="3.4351">
        <ele>194.32</ele>
        <time>2013-03-03T09:14:31Z</time>
      </trkpt>
      <trkpt lat="43.70455" lon="3.43505">
        <ele>194.32</ele>
        <time>2013-03-03T09:14:43Z</time>
      </trkpt>
      <trkpt lat="43.70442" lon="3.43491">
        <ele>194.32</ele>
        <time>2013-03-03T09:14:59Z</time>
      </trkpt>
      <trkpt lat="43.70435" lon="3.43468">
        <ele>194.32</ele>
        <time>2013-03-03T09:15:16Z</time>
      </trkpt>
      <trkpt lat="43.70434" lon="3.4346">
        <ele>194.32</ele>
        <time>2013-03-03T09:15:29Z</time>
      </trkpt>
      <trkpt lat="43.70434" lon="3.43458">
        <ele>194.32</ele>
        <time>2013-03-03T09:15:31Z</time>
      </trkpt>
      <trkpt lat="43.70433" lon="3.43456">
        <ele>194.32</ele>
        <time>2013-03-03T09:15:33Z</time>
      </trkpt>
      <trkpt lat="43.70428" lon="3.43434">
        <ele>194.8</ele>
        <time>2013-03-03T09:15:50Z</time>
      </trkpt>
      <trkpt lat="43.70415" lon="3.43409">
        <ele>194.32</ele>
        <time>2013-03-03T09:16:10Z</time>
      </trkpt>
      <trkpt lat="43.70398" lon="3.43387">
        <ele>192.88</ele>
        <time>2013-03-03T09:16:31Z</time>
      </trkpt>
      <trkpt lat="43.70381" lon="3.43372">
        <ele>190.96</ele>
        <time>2013-03-03T09:16:49Z</time>
      </trkpt>
      <trkpt lat="43.70361" lon="3.43353">
        <ele>189.52</ele>
        <time>2013-03-03T09:17:09Z</time>
      </trkpt>
      <trkpt lat="43.70344" lon="3.43338">
        <ele>189.04</ele>
        <time>2013-03-03T09:17:26Z</time>
      </trkpt>
      <trkpt lat="43.70335" lon="3.4333">
        <ele>190</ele>
        <time>2013-03-03T09:17:35Z</time>
      </trkpt>
      <trkpt lat="43.70331" lon="3.43329">
        <ele>189.52</ele>
        <time>2013-03-03T09:17:49Z</time>
      </trkpt>
      <trkpt lat="43.70331" lon="3.43328">
        <ele>189.04</ele>
        <time>2013-03-03T09:18:05Z</time>
      </trkpt>
      <trkpt lat="43.7033" lon="3.43327">
        <ele>189.52</ele>
        <time>2013-03-03T09:18:24Z</time>
      </trkpt>
      <trkpt lat="43.7033" lon="3.43328">
        <ele>188.56</ele>
        <time>2013-03-03T09:18:53Z</time>
      </trkpt>
      <trkpt lat="43.70329" lon="3.43327">
        <ele>188.56</ele>
        <time>2013-03-03T09:19:10Z</time>
      </trkpt>
      <trkpt lat="43.70329" lon="3.43327">
        <ele>188.56</ele>
        <time>2013-03-03T09:19:32Z</time>
      </trkpt>
      <trkpt lat="43.7033" lon="3.43328">
        <ele>189.04</ele>
        <time>2013-03-03T09:19:48Z</time>
      </trkpt>
      <trkpt lat="43.7033" lon="3.43328">
        <ele>189.04</ele>
        <time>2013-03-03T09:20:08Z</time>
      </trkpt>
      <trkpt lat="43.7033" lon="3.43327">
        <ele>189.04</ele>
        <time>2013-03-03T09:20:26Z</time>
      </trkpt>
      <trkpt lat="43.70329" lon="3.43326">
        <ele>189.04</ele>
        <time>2013-03-03T09:20:46Z</time>
      </trkpt>
      <trkpt lat="43.70329" lon="3.43326">
        <ele>189.04</ele>
        <time>2013-03-03T09:21:01Z</time>
      </trkpt>
      <trkpt lat="43.70329" lon="3.43325">
        <ele>188.56</ele>
        <time>2013-03-03T09:21:15Z</time>
      </trkpt>
      <trkpt lat="43.70329" lon="3.43326">
        <ele>189.04</ele>
        <time>2013-03-03T09:21:34Z</time>
      </trkpt>
      <trkpt lat="43.7033" lon="3.43328">
        <ele>189.04</ele>
        <time>2013-03-03T09:21:48Z</time>
      </trkpt>
      <trkpt lat="43.70332" lon="3.43326">
        <ele>188.08</ele>
        <time>2013-03-03T09:21:58Z</time>
      </trkpt>
      <trkpt lat="43.70332" lon="3.43325">
        <ele>187.59</ele>
        <time>2013-03-03T09:22:19Z</time>
      </trkpt>
      <trkpt lat="43.70332" lon="3.43325">
        <ele>188.08</ele>
        <time>2013-03-03T09:22:40Z</time>
      </trkpt>
      <trkpt lat="43.70333" lon="3.43325">
        <ele>188.08</ele>
        <time>2013-03-03T09:23:00Z</time>
      </trkpt>
      <trkpt lat="43.70333" lon="3.43326">
        <ele>188.08</ele>
        <time>2013-03-03T09:23:19Z</time>
      </trkpt>
      <trkpt lat="43.7033" lon="3.43322">
        <ele>188.56</ele>
        <time>2013-03-03T09:23:27Z</time>
      </trkpt>
      <trkpt lat="43.70324" lon="3.43311">
        <ele>188.56</ele>
        <time>2013-03-03T09:23:36Z</time>
      </trkpt>
      <trkpt lat="43.70305" lon="3.43294">
        <ele>188.56</ele>
        <time>2013-03-03T09:23:55Z</time>
      </trkpt>
      <trkpt lat="43.70281" lon="3.43278">
        <ele>189.04</ele>
        <time>2013-03-03T09:24:17Z</time>
      </trkpt>
      <trkpt lat="43.70271" lon="3.43274">
        <ele>189.04</ele>
        <time>2013-03-03T09:24:32Z</time>
      </trkpt>
      <trkpt lat="43.7025" lon="3.43264">
        <ele>188.56</ele>
        <time>2013-03-03T09:24:51Z</time>
      </trkpt>
      <trkpt lat="43.70241" lon="3.43256">
        <ele>188.08</ele>
        <time>2013-03-03T09:25:06Z</time>
      </trkpt>
      <trkpt lat="43.7024" lon="3.43255">
        <ele>188.08</ele>
        <time>2013-03-03T09:25:30Z</time>
      </trkpt>
      <trkpt lat="43.70237" lon="3.43254">
        <ele>188.08</ele>
        <time>2013-03-03T09:25:33Z</time>
      </trkpt>
      <trkpt lat="43.7022" lon="3.4326">
        <ele>186.63</ele>
        <time>2013-03-03T09:25:50Z</time>
      </trkpt>
      <trkpt lat="43.70198" lon="3.4326">
        <ele>184.71</ele>
        <time>2013-03-03T09:26:09Z</time>
      </trkpt>
      <trkpt lat="43.70175" lon="3.43255">
        <ele>184.71</ele>
        <time>2013-03-03T09:26:28Z</time>
      </trkpt>
      <trkpt lat="43.70154" lon="3.43249">
        <ele>183.75</ele>
        <time>2013-03-03T09:26:45Z</time>
      </trkpt>
      <trkpt lat="43.70135" lon="3.4324">
        <ele>181.83</ele>
        <time>2013-03-03T09:27:01Z</time>
      </trkpt>
      <trkpt lat="43.70113" lon="3.43231">
        <ele>179.9</ele>
        <time>2013-03-03T09:27:19Z</time>
      </trkpt>
      <trkpt lat="43.70095" lon="3.43217">
        <ele>178.46</ele>
        <time>2013-03-03T09:27:37Z</time>
      </trkpt>
      <trkpt lat="43.70076" lon="3.43195">
        <ele>176.54</ele>
        <time>2013-03-03T09:27:55Z</time>
      </trkpt>
      <trkpt lat="43.70064" lon="3.43169">
        <ele>174.62</ele>
        <time>2013-03-03T09:28:14Z</time>
      </trkpt>
      <trkpt lat="43.70053" lon="3.43134">
        <ele>172.21</ele>
        <time>2013-03-03T09:28:35Z</time>
      </trkpt>
      <trkpt lat="43.70048" lon="3.43107">
        <ele>171.73</ele>
        <time>2013-03-03T09:28:52Z</time>
      </trkpt>
      <trkpt lat="43.7004" lon="3.43081">
        <ele>172.21</ele>
        <time>2013-03-03T09:29:08Z</time>
      </trkpt>
      <trkpt lat="43.70024" lon="3.4306">
        <ele>174.14</ele>
        <time>2013-03-03T09:29:26Z</time>
      </trkpt>
      <trkpt lat="43.70009" lon="3.43039">
        <ele>176.06</ele>
        <time>2013-03-03T09:29:44Z</time>
      </trkpt>
      <trkpt lat="43.69993" lon="3.43024">
        <ele>177.02</ele>
        <time>2013-03-03T09:30:01Z</time>
      </trkpt>
      <trkpt lat="43.69974" lon="3.43014">
        <ele>177.5</ele>
        <time>2013-03-03T09:30:18Z</time>
      </trkpt>
      <trkpt lat="43.69953" lon="3.42998">
        <ele>177.98</ele>
        <time>2013-03-03T09:30:37Z</time>
      </trkpt>
      <trkpt lat="43.69942" lon="3.42963">
        <ele>178.46</ele>
        <time>2013-03-03T09:30:57Z</time>
      </trkpt>
      <trkpt lat="43.69932" lon="3.42941">
        <ele>180.38</ele>
        <time>2013-03-03T09:31:14Z</time>
      </trkpt>
      <trkpt lat="43.69919" lon="3.42925">
        <ele>181.83</ele>
        <time>2013-03-03T09:31:31Z</time>
      </trkpt>
      <trkpt lat="43.69912" lon="3.42919">
        <ele>182.79</ele>
        <time>2013-03-03T09:31:39Z</time>
      </trkpt>
      <trkpt lat="43.69901" lon="3.429">
        <ele>184.23</ele>
        <time>2013-03-03T09:31:56Z</time>
      </trkpt>
      <trkpt lat="43.69889" lon="3.42876">
        <ele>185.19</ele>
        <time>2013-03-03T09:32:15Z</time>
      </trkpt>
      <trkpt lat="43.69877" lon="3.42852">
        <ele>186.15</ele>
        <time>2013-03-03T09:32:34Z</time>
      </trkpt>
      <trkpt lat="43.69872" lon="3.42822">
        <ele>185.67</ele>
        <time>2013-03-03T09:32:52Z</time>
      </trkpt>
      <trkpt lat="43.6986" lon="3.42793">
        <ele>186.15</ele>
        <time>2013-03-03T09:33:12Z</time>
      </trkpt>
      <trkpt lat="43.69857" lon="3.42769">
        <ele>187.11</ele>
        <time>2013-03-03T09:33:28Z</time>
      </trkpt>
      <trkpt lat="43.69852" lon="3.42743">
        <ele>188.56</ele>
        <time>2013-03-03T09:33:46Z</time>
      </trkpt>
      <trkpt lat="43.69848" lon="3.42721">
        <ele>189.04</ele>
        <time>2013-03-03T09:34:03Z</time>
      </trkpt>
      <trkpt lat="43.69841" lon="3.42701">
        <ele>189.04</ele>
        <time>2013-03-03T09:34:19Z</time>
      </trkpt>
      <trkpt lat="43.69836" lon="3.42686">
        <ele>189.52</ele>
        <time>2013-03-03T09:34:30Z</time>
      </trkpt>
      <trkpt lat="43.6983" lon="3.42667">
        <ele>190.96</ele>
        <time>2013-03-03T09:34:44Z</time>
      </trkpt>
      <trkpt lat="43.69823" lon="3.42651">
        <ele>192.88</ele>
        <time>2013-03-03T09:34:59Z</time>
      </trkpt>
      <trkpt lat="43.6981" lon="3.42624">
        <ele>191.44</ele>
        <time>2013-03-03T09:35:20Z</time>
      </trkpt>
      <trkpt lat="43.69798" lon="3.426">
        <ele>189.52</ele>
        <time>2013-03-03T09:35:38Z</time>
      </trkpt>
      <trkpt lat="43.69785" lon="3.42588">
        <ele>187.59</ele>
        <time>2013-03-03T09:35:52Z</time>
      </trkpt>
      <trkpt lat="43.69768" lon="3.42571">
        <ele>184.71</ele>
        <time>2013-03-03T09:36:10Z</time>
      </trkpt>
      <trkpt lat="43.69751" lon="3.42578">
        <ele>181.83</ele>
        <time>2013-03-03T09:36:27Z</time>
      </trkpt>
      <trkpt lat="43.69747" lon="3.4258">
        <ele>180.87</ele>
        <time>2013-03-03T09:36:31Z</time>
      </trkpt>
      <trkpt lat="43.69729" lon="3.42576">
        <ele>177.5</ele>
        <time>2013-03-03T09:36:47Z</time>
      </trkpt>
      <trkpt lat="43.69714" lon="3.42569">
        <ele>174.14</ele>
        <time>2013-03-03T09:37:01Z</time>
      </trkpt>
      <trkpt lat="43.69699" lon="3.42568">
        <ele>171.25</ele>
        <time>2013-03-03T09:37:15Z</time>
      </trkpt>
      <trkpt lat="43.69683" lon="3.42562">
        <ele>167.89</ele>
        <time>2013-03-03T09:37:31Z</time>
      </trkpt>
      <trkpt lat="43.6967" lon="3.42551">
        <ele>165.48</ele>
        <time>2013-03-03T09:37:46Z</time>
      </trkpt>
      <trkpt lat="43.69653" lon="3.42543">
        <ele>162.12</ele>
        <time>2013-03-03T09:38:07Z</time>
      </trkpt>
      <trkpt lat="43.69642" lon="3.42535">
        <ele>160.68</ele>
        <time>2013-03-03T09:38:20Z</time>
      </trkpt>
      <trkpt lat="43.69626" lon="3.42517">
        <ele>159.24</ele>
        <time>2013-03-03T09:38:38Z</time>
      </trkpt>
      <trkpt lat="43.69607" lon="3.42505">
        <ele>156.83</ele>
        <time>2013-03-03T09:38:56Z</time>
      </trkpt>
      <trkpt lat="43.69602" lon="3.42493">
        <ele>156.83</ele>
        <time>2013-03-03T09:39:04Z</time>
      </trkpt>
      <trkpt lat="43.69602" lon="3.4249">
        <ele>156.83</ele>
        <time>2013-03-03T09:39:06Z</time>
      </trkpt>
      <trkpt lat="43.69597" lon="3.42462">
        <ele>157.79</ele>
        <time>2013-03-03T09:39:23Z</time>
      </trkpt>
      <trkpt lat="43.69585" lon="3.42441">
        <ele>156.83</ele>
        <time>2013-03-03T09:39:40Z</time>
      </trkpt>
      <trkpt lat="43.69563" lon="3.42431">
        <ele>154.43</ele>
        <time>2013-03-03T09:40:00Z</time>
      </trkpt>
      <trkpt lat="43.69546" lon="3.42438">
        <ele>153.95</ele>
        <time>2013-03-03T09:40:14Z</time>
      </trkpt>
      <trkpt lat="43.69521" lon="3.42451">
        <ele>153.95</ele>
        <time>2013-03-03T09:40:35Z</time>
      </trkpt>
      <trkpt lat="43.69496" lon="3.42453">
        <ele>153.47</ele>
        <time>2013-03-03T09:40:54Z</time>
      </trkpt>
      <trkpt lat="43.69469" lon="3.42465">
        <ele>152.51</ele>
        <time>2013-03-03T09:41:18Z</time>
      </trkpt>
      <trkpt lat="43.69453" lon="3.42475">
        <ele>150.1</ele>
        <time>2013-03-03T09:41:33Z</time>
      </trkpt>
      <trkpt lat="43.69426" lon="3.42453">
        <ele>147.7</ele>
        <time>2013-03-03T09:41:56Z</time>
      </trkpt>
      <trkpt lat="43.69398" lon="3.42433">
        <ele>146.26</ele>
        <time>2013-03-03T09:42:21Z</time>
      </trkpt>
      <trkpt lat="43.69384" lon="3.4242">
        <ele>145.3</ele>
        <time>2013-03-03T09:42:35Z</time>
      </trkpt>
      <trkpt lat="43.69361" lon="3.42407">
        <ele>145.78</ele>
        <time>2013-03-03T09:42:55Z</time>
      </trkpt>
      <trkpt lat="43.69337" lon="3.42406">
        <ele>142.41</ele>
        <time>2013-03-03T09:43:14Z</time>
      </trkpt>
      <trkpt lat="43.69312" lon="3.4239">
        <ele>142.89</ele>
        <time>2013-03-03T09:43:35Z</time>
      </trkpt>
      <trkpt lat="43.69281" lon="3.42382">
        <ele>142.41</ele>
        <time>2013-03-03T09:44:00Z</time>
      </trkpt>
      <trkpt lat="43.69266" lon="3.42405">
        <ele>141.45</ele>
        <time>2013-03-03T09:44:18Z</time>
      </trkpt>
      <trkpt lat="43.6926" lon="3.42423">
        <ele>138.57</ele>
        <time>2013-03-03T09:44:33Z</time>
      </trkpt>
      <trkpt lat="43.69259" lon="3.42432">
        <ele>137.61</ele>
        <time>2013-03-03T09:44:47Z</time>
      </trkpt>
      <trkpt lat="43.69261" lon="3.42446">
        <ele>135.68</ele>
        <time>2013-03-03T09:45:08Z</time>
      </trkpt>
      <trkpt lat="43.69259" lon="3.42465">
        <ele>132.32</ele>
        <time>2013-03-03T09:45:33Z</time>
      </trkpt>
      <trkpt lat="43.69257" lon="3.4248">
        <ele>129.92</ele>
        <time>2013-03-03T09:45:42Z</time>
      </trkpt>
      <trkpt lat="43.69254" lon="3.42494">
        <ele>126.55</ele>
        <time>2013-03-03T09:45:54Z</time>
      </trkpt>
      <trkpt lat="43.69253" lon="3.42518">
        <ele>123.67</ele>
        <time>2013-03-03T09:46:07Z</time>
      </trkpt>
      <trkpt lat="43.69251" lon="3.4256">
        <ele>123.67</ele>
        <time>2013-03-03T09:46:28Z</time>
      </trkpt>
      <trkpt lat="43.69249" lon="3.42597">
        <ele>122.22</ele>
        <time>2013-03-03T09:46:47Z</time>
      </trkpt>
      <trkpt lat="43.69249" lon="3.42636">
        <ele>121.74</ele>
        <time>2013-03-03T09:47:08Z</time>
      </trkpt>
      <trkpt lat="43.69253" lon="3.42654">
        <ele>119.34</ele>
        <time>2013-03-03T09:47:29Z</time>
      </trkpt>
      <trkpt lat="43.69248" lon="3.42673">
        <ele>119.82</ele>
        <time>2013-03-03T09:47:40Z</time>
      </trkpt>
      <trkpt lat="43.69238" lon="3.42709">
        <ele>122.22</ele>
        <time>2013-03-03T09:48:00Z</time>
      </trkpt>
      <trkpt lat="43.69235" lon="3.4275">
        <ele>125.59</ele>
        <time>2013-03-03T09:48:21Z</time>
      </trkpt>
      <trkpt lat="43.69234" lon="3.42778">
        <ele>128.95</ele>
        <time>2013-03-03T09:48:36Z</time>
      </trkpt>
      <trkpt lat="43.69231" lon="3.42803">
        <ele>132.8</ele>
        <time>2013-03-03T09:48:48Z</time>
      </trkpt>
      <trkpt lat="43.69222" lon="3.42837">
        <ele>136.16</ele>
        <time>2013-03-03T09:49:00Z</time>
      </trkpt>
      <trkpt lat="43.69222" lon="3.42844">
        <ele>136.64</ele>
        <time>2013-03-03T09:49:05Z</time>
      </trkpt>
      <trkpt lat="43.69222" lon="3.42895">
        <ele>137.61</ele>
        <time>2013-03-03T09:49:30Z</time>
      </trkpt>
      <trkpt lat="43.69216" lon="3.42914">
        <ele>140.49</ele>
        <time>2013-03-03T09:49:42Z</time>
      </trkpt>
      <trkpt lat="43.69216" lon="3.42935">
        <ele>141.93</ele>
        <time>2013-03-03T09:49:59Z</time>
      </trkpt>
      <trkpt lat="43.69215" lon="3.42955">
        <ele>142.89</ele>
        <time>2013-03-03T09:50:12Z</time>
      </trkpt>
      <trkpt lat="43.69218" lon="3.42964">
        <ele>141.93</ele>
        <time>2013-03-03T09:50:26Z</time>
      </trkpt>
      <trkpt lat="43.69216" lon="3.42966">
        <ele>142.89</ele>
        <time>2013-03-03T09:50:37Z</time>
      </trkpt>
      <trkpt lat="43.69216" lon="3.4298">
        <ele>142.89</ele>
        <time>2013-03-03T09:50:53Z</time>
      </trkpt>
      <trkpt lat="43.69215" lon="3.42985">
        <ele>144.34</ele>
        <time>2013-03-03T09:50:57Z</time>
      </trkpt>
      <trkpt lat="43.69216" lon="3.42995">
        <ele>144.34</ele>
        <time>2013-03-03T09:51:02Z</time>
      </trkpt>
      <trkpt lat="43.69212" lon="3.43025">
        <ele>146.26</ele>
        <time>2013-03-03T09:51:17Z</time>
      </trkpt>
      <trkpt lat="43.69208" lon="3.43069">
        <ele>147.7</ele>
        <time>2013-03-03T09:51:40Z</time>
      </trkpt>
      <trkpt lat="43.69201" lon="3.43122">
        <ele>148.66</ele>
        <time>2013-03-03T09:52:07Z</time>
      </trkpt>
      <trkpt lat="43.69196" lon="3.4313">
        <ele>152.03</ele>
        <time>2013-03-03T09:52:20Z</time>
      </trkpt>
      <trkpt lat="43.69195" lon="3.4313">
        <ele>149.14</ele>
        <time>2013-03-03T09:52:22Z</time>
      </trkpt>
      <trkpt lat="43.69195" lon="3.43127">
        <ele>149.14</ele>
        <time>2013-03-03T09:52:38Z</time>
      </trkpt>
      <trkpt lat="43.69195" lon="3.43126">
        <ele>149.14</ele>
        <time>2013-03-03T09:53:00Z</time>
      </trkpt>
      <trkpt lat="43.69195" lon="3.43125">
        <ele>149.14</ele>
        <time>2013-03-03T09:53:15Z</time>
      </trkpt>
      <trkpt lat="43.69195" lon="3.43127">
        <ele>149.14</ele>
        <time>2013-03-03T09:53:27Z</time>
      </trkpt>
      <trkpt lat="43.69194" lon="3.43125">
        <ele>149.14</ele>
        <time>2013-03-03T09:53:44Z</time>
      </trkpt>
      <trkpt lat="43.69194" lon="3.43126">
        <ele>148.66</ele>
        <time>2013-03-03T09:54:07Z</time>
      </trkpt>
      <trkpt lat="43.69194" lon="3.43128">
        <ele>148.66</ele>
        <time>2013-03-03T09:54:32Z</time>
      </trkpt>
      <trkpt lat="43.69195" lon="3.43125">
        <ele>149.14</ele>
        <time>2013-03-03T09:54:44Z</time>
      </trkpt>
      <trkpt lat="43.69194" lon="3.43126">
        <ele>149.62</ele>
        <time>2013-03-03T09:55:01Z</time>
      </trkpt>
      <trkpt lat="43.69196" lon="3.43128">
        <ele>149.62</ele>
        <time>2013-03-03T09:55:15Z</time>
      </trkpt>
      <trkpt lat="43.69195" lon="3.43128">
        <ele>149.14</ele>
        <time>2013-03-03T09:55:33Z</time>
      </trkpt>
      <trkpt lat="43.69195" lon="3.43128">
        <ele>150.1</ele>
        <time>2013-03-03T09:55:47Z</time>
      </trkpt>
      <trkpt lat="43.69194" lon="3.43126">
        <ele>149.62</ele>
        <time>2013-03-03T09:56:02Z</time>
      </trkpt>
      <trkpt lat="43.6919" lon="3.43124">
        <ele>150.58</ele>
        <time>2013-03-03T09:56:16Z</time>
      </trkpt>
      <trkpt lat="43.69189" lon="3.43128">
        <ele>150.58</ele>
        <time>2013-03-03T09:56:26Z</time>
      </trkpt>
      <trkpt lat="43.6919" lon="3.43126">
        <ele>150.58</ele>
        <time>2013-03-03T09:56:47Z</time>
      </trkpt>
      <trkpt lat="43.6919" lon="3.43126">
        <ele>150.58</ele>
        <time>2013-03-03T09:57:16Z</time>
      </trkpt>
      <trkpt lat="43.69189" lon="3.43126">
        <ele>150.58</ele>
        <time>2013-03-03T09:57:41Z</time>
      </trkpt>
      <trkpt lat="43.69191" lon="3.43126">
        <ele>150.58</ele>
        <time>2013-03-03T09:58:01Z</time>
      </trkpt>
      <trkpt lat="43.69187" lon="3.43127">
        <ele>151.06</ele>
        <time>2013-03-03T09:58:11Z</time>
      </trkpt>
      <trkpt lat="43.69185" lon="3.43125">
        <ele>151.06</ele>
        <time>2013-03-03T09:58:14Z</time>
      </trkpt>
      <trkpt lat="43.69171" lon="3.4312">
        <ele>152.99</ele>
        <time>2013-03-03T09:58:28Z</time>
      </trkpt>
      <trkpt lat="43.69171" lon="3.4312">
        <ele>153.47</ele>
        <time>2013-03-03T09:58:29Z</time>
      </trkpt>
      <trkpt lat="43.69156" lon="3.43118">
        <ele>155.87</ele>
        <time>2013-03-03T09:58:44Z</time>
      </trkpt>
      <trkpt lat="43.69153" lon="3.43117">
        <ele>155.87</ele>
        <time>2013-03-03T09:58:47Z</time>
      </trkpt>
      <trkpt lat="43.69149" lon="3.43115">
        <ele>156.83</ele>
        <time>2013-03-03T09:58:51Z</time>
      </trkpt>
      <trkpt lat="43.69142" lon="3.43116">
        <ele>157.79</ele>
        <time>2013-03-03T09:58:58Z</time>
      </trkpt>
      <trkpt lat="43.69129" lon="3.431">
        <ele>161.16</ele>
        <time>2013-03-03T09:59:15Z</time>
      </trkpt>
      <trkpt lat="43.69124" lon="3.43093">
        <ele>162.6</ele>
        <time>2013-03-03T09:59:23Z</time>
      </trkpt>
      <trkpt lat="43.69114" lon="3.43084">
        <ele>165</ele>
        <time>2013-03-03T09:59:34Z</time>
      </trkpt>
      <trkpt lat="43.69101" lon="3.43081">
        <ele>167.41</ele>
        <time>2013-03-03T09:59:47Z</time>
      </trkpt>
      <trkpt lat="43.69099" lon="3.43079">
        <ele>167.89</ele>
        <time>2013-03-03T09:59:50Z</time>
      </trkpt>
      <trkpt lat="43.69097" lon="3.43078">
        <ele>168.37</ele>
        <time>2013-03-03T09:59:52Z</time>
      </trkpt>
      <trkpt lat="43.69095" lon="3.43077">
        <ele>168.85</ele>
        <time>2013-03-03T09:59:54Z</time>
      </trkpt>
      <trkpt lat="43.69096" lon="3.43069">
        <ele>169.33</ele>
        <time>2013-03-03T09:59:59Z</time>
      </trkpt>
      <trkpt lat="43.69092" lon="3.43062">
        <ele>169.81</ele>
        <time>2013-03-03T10:00:05Z</time>
      </trkpt>
      <trkpt lat="43.69076" lon="3.43057">
        <ele>173.66</ele>
        <time>2013-03-03T10:00:19Z</time>
      </trkpt>
      <trkpt lat="43.69061" lon="3.43051">
        <ele>177.02</ele>
        <time>2013-03-03T10:00:32Z</time>
      </trkpt>
      <trkpt lat="43.69051" lon="3.4304">
        <ele>179.9</ele>
        <time>2013-03-03T10:00:43Z</time>
      </trkpt>
      <trkpt lat="43.69043" lon="3.4303">
        <ele>182.79</ele>
        <time>2013-03-03T10:00:53Z</time>
      </trkpt>
      <trkpt lat="43.6904" lon="3.43026">
        <ele>183.27</ele>
        <time>2013-03-03T10:00:57Z</time>
      </trkpt>
      <trkpt lat="43.69036" lon="3.43026">
        <ele>184.23</ele>
        <time>2013-03-03T10:01:00Z</time>
      </trkpt>
      <trkpt lat="43.69033" lon="3.43022">
        <ele>185.19</ele>
        <time>2013-03-03T10:01:04Z</time>
      </trkpt>
      <trkpt lat="43.69029" lon="3.43018">
        <ele>187.11</ele>
        <time>2013-03-03T10:01:11Z</time>
      </trkpt>
      <trkpt lat="43.69025" lon="3.43017">
        <ele>188.08</ele>
        <time>2013-03-03T10:01:15Z</time>
      </trkpt>
      <trkpt lat="43.69016" lon="3.43016">
        <ele>190.48</ele>
        <time>2013-03-03T10:01:30Z</time>
      </trkpt>
      <trkpt lat="43.69011" lon="3.43014">
        <ele>193.36</ele>
        <time>2013-03-03T10:01:44Z</time>
      </trkpt>
      <trkpt lat="43.69001" lon="3.43011">
        <ele>196.73</ele>
        <time>2013-03-03T10:01:55Z</time>
      </trkpt>
      <trkpt lat="43.68992" lon="3.43013">
        <ele>199.61</ele>
        <time>2013-03-03T10:02:06Z</time>
      </trkpt>
      <trkpt lat="43.68984" lon="3.4301">
        <ele>202.49</ele>
        <time>2013-03-03T10:02:18Z</time>
      </trkpt>
      <trkpt lat="43.68976" lon="3.43009">
        <ele>205.86</ele>
        <time>2013-03-03T10:02:32Z</time>
      </trkpt>
      <trkpt lat="43.68972" lon="3.43004">
        <ele>208.26</ele>
        <time>2013-03-03T10:02:45Z</time>
      </trkpt>
      <trkpt lat="43.68966" lon="3.42997">
        <ele>210.67</ele>
        <time>2013-03-03T10:02:57Z</time>
      </trkpt>
      <trkpt lat="43.68966" lon="3.42997">
        <ele>211.15</ele>
        <time>2013-03-03T10:02:58Z</time>
      </trkpt>
      <trkpt lat="43.68961" lon="3.42991">
        <ele>213.55</ele>
        <time>2013-03-03T10:03:12Z</time>
      </trkpt>
      <trkpt lat="43.68953" lon="3.42988">
        <ele>216.91</ele>
        <time>2013-03-03T10:03:26Z</time>
      </trkpt>
      <trkpt lat="43.68945" lon="3.42982">
        <ele>220.28</ele>
        <time>2013-03-03T10:03:38Z</time>
      </trkpt>
      <trkpt lat="43.68938" lon="3.42972">
        <ele>223.16</ele>
        <time>2013-03-03T10:03:51Z</time>
      </trkpt>
      <trkpt lat="43.68932" lon="3.42974">
        <ele>226.53</ele>
        <time>2013-03-03T10:04:04Z</time>
      </trkpt>
      <trkpt lat="43.68927" lon="3.42977">
        <ele>229.41</ele>
        <time>2013-03-03T10:04:17Z</time>
      </trkpt>
      <trkpt lat="43.68922" lon="3.42973">
        <ele>232.3</ele>
        <time>2013-03-03T10:04:31Z</time>
      </trkpt>
      <trkpt lat="43.68919" lon="3.42974">
        <ele>234.22</ele>
        <time>2013-03-03T10:04:41Z</time>
      </trkpt>
      <trkpt lat="43.68912" lon="3.42968">
        <ele>237.58</ele>
        <time>2013-03-03T10:04:54Z</time>
      </trkpt>
      <trkpt lat="43.68905" lon="3.42963">
        <ele>240.47</ele>
        <time>2013-03-03T10:05:06Z</time>
      </trkpt>
      <trkpt lat="43.68904" lon="3.42962">
        <ele>240.95</ele>
        <time>2013-03-03T10:05:20Z</time>
      </trkpt>
      <trkpt lat="43.68899" lon="3.42963">
        <ele>244.31</ele>
        <time>2013-03-03T10:05:30Z</time>
      </trkpt>
      <trkpt lat="43.68894" lon="3.42965">
        <ele>246.72</ele>
        <time>2013-03-03T10:05:45Z</time>
      </trkpt>
      <trkpt lat="43.6889" lon="3.42964">
        <ele>249.12</ele>
        <time>2013-03-03T10:05:59Z</time>
      </trkpt>
      <trkpt lat="43.68885" lon="3.42965">
        <ele>252.48</ele>
        <time>2013-03-03T10:06:10Z</time>
      </trkpt>
      <trkpt lat="43.68884" lon="3.42968">
        <ele>252.96</ele>
        <time>2013-03-03T10:06:13Z</time>
      </trkpt>
      <trkpt lat="43.68878" lon="3.42975">
        <ele>255.37</ele>
        <time>2013-03-03T10:06:26Z</time>
      </trkpt>
      <trkpt lat="43.68875" lon="3.42975">
        <ele>258.25</ele>
        <time>2013-03-03T10:06:40Z</time>
      </trkpt>
      <trkpt lat="43.68871" lon="3.42976">
        <ele>260.65</ele>
        <time>2013-03-03T10:06:54Z</time>
      </trkpt>
      <trkpt lat="43.68867" lon="3.42978">
        <ele>264.02</ele>
        <time>2013-03-03T10:07:07Z</time>
      </trkpt>
      <trkpt lat="43.68863" lon="3.42981">
        <ele>266.42</ele>
        <time>2013-03-03T10:07:21Z</time>
      </trkpt>
      <trkpt lat="43.68859" lon="3.4298">
        <ele>269.31</ele>
        <time>2013-03-03T10:07:34Z</time>
      </trkpt>
      <trkpt lat="43.68855" lon="3.42978">
        <ele>271.23</ele>
        <time>2013-03-03T10:07:47Z</time>
      </trkpt>
      <trkpt lat="43.6885" lon="3.42977">
        <ele>274.11</ele>
        <time>2013-03-03T10:08:01Z</time>
      </trkpt>
      <trkpt lat="43.68847" lon="3.42975">
        <ele>277.48</ele>
        <time>2013-03-03T10:08:14Z</time>
      </trkpt>
      <trkpt lat="43.68845" lon="3.42981">
        <ele>278.44</ele>
        <time>2013-03-03T10:08:28Z</time>
      </trkpt>
      <trkpt lat="43.68849" lon="3.42986">
        <ele>278.92</ele>
        <time>2013-03-03T10:08:40Z</time>
      </trkpt>
      <trkpt lat="43.68852" lon="3.42985">
        <ele>277.48</ele>
        <time>2013-03-03T10:08:55Z</time>
      </trkpt>
      <trkpt lat="43.68853" lon="3.42985">
        <ele>277.48</ele>
        <time>2013-03-03T10:09:18Z</time>
      </trkpt>
      <trkpt lat="43.6885" lon="3.42987">
        <ele>278.44</ele>
        <time>2013-03-03T10:09:35Z</time>
      </trkpt>
      <trkpt lat="43.68846" lon="3.42986">
        <ele>279.4</ele>
        <time>2013-03-03T10:09:48Z</time>
      </trkpt>
      <trkpt lat="43.68846" lon="3.42986">
        <ele>279.4</ele>
        <time>2013-03-03T10:10:04Z</time>
      </trkpt>
      <trkpt lat="43.68847" lon="3.42986">
        <ele>278.92</ele>
        <time>2013-03-03T10:10:25Z</time>
      </trkpt>
      <trkpt lat="43.68848" lon="3.42985">
        <ele>279.4</ele>
        <time>2013-03-03T10:10:47Z</time>
      </trkpt>
      <trkpt lat="43.68848" lon="3.42985">
        <ele>279.88</ele>
        <time>2013-03-03T10:11:09Z</time>
      </trkpt>
      <trkpt lat="43.68845" lon="3.42986">
        <ele>279.4</ele>
        <time>2013-03-03T10:11:34Z</time>
      </trkpt>
      <trkpt lat="43.68846" lon="3.42985">
        <ele>279.4</ele>
        <time>2013-03-03T10:12:02Z</time>
      </trkpt>
      <trkpt lat="43.68847" lon="3.42985">
        <ele>279.4</ele>
        <time>2013-03-03T10:12:26Z</time>
      </trkpt>
      <trkpt lat="43.68846" lon="3.42984">
        <ele>279.4</ele>
        <time>2013-03-03T10:12:48Z</time>
      </trkpt>
      <trkpt lat="43.68846" lon="3.42983">
        <ele>278.92</ele>
        <time>2013-03-03T10:13:13Z</time>
      </trkpt>
      <trkpt lat="43.68849" lon="3.42985">
        <ele>279.4</ele>
        <time>2013-03-03T10:13:33Z</time>
      </trkpt>
      <trkpt lat="43.68852" lon="3.42987">
        <ele>277.96</ele>
        <time>2013-03-03T10:13:49Z</time>
      </trkpt>
      <trkpt lat="43.68854" lon="3.42983">
        <ele>277.48</ele>
        <time>2013-03-03T10:14:01Z</time>
      </trkpt>
      <trkpt lat="43.68855" lon="3.42986">
        <ele>277.48</ele>
        <time>2013-03-03T10:14:20Z</time>
      </trkpt>
      <trkpt lat="43.68852" lon="3.42988">
        <ele>277.48</ele>
        <time>2013-03-03T10:14:36Z</time>
      </trkpt>
      <trkpt lat="43.68853" lon="3.42989">
        <ele>277.48</ele>
        <time>2013-03-03T10:14:51Z</time>
      </trkpt>
      <trkpt lat="43.68854" lon="3.42987">
        <ele>277.48</ele>
        <time>2013-03-03T10:15:16Z</time>
      </trkpt>
      <trkpt lat="43.68851" lon="3.42987">
        <ele>277.48</ele>
        <time>2013-03-03T10:15:32Z</time>
      </trkpt>
      <trkpt lat="43.68848" lon="3.42988">
        <ele>278.92</ele>
        <time>2013-03-03T10:15:44Z</time>
      </trkpt>
      <trkpt lat="43.68848" lon="3.42987">
        <ele>278.92</ele>
        <time>2013-03-03T10:16:04Z</time>
      </trkpt>
      <trkpt lat="43.6885" lon="3.42986">
        <ele>278.44</ele>
        <time>2013-03-03T10:16:23Z</time>
      </trkpt>
      <trkpt lat="43.68853" lon="3.42989">
        <ele>277.48</ele>
        <time>2013-03-03T10:16:38Z</time>
      </trkpt>
      <trkpt lat="43.68853" lon="3.42989">
        <ele>277.48</ele>
        <time>2013-03-03T10:17:13Z</time>
      </trkpt>
      <trkpt lat="43.68848" lon="3.42988">
        <ele>279.4</ele>
        <time>2013-03-03T10:17:31Z</time>
      </trkpt>
      <trkpt lat="43.68847" lon="3.42987">
        <ele>278.44</ele>
        <time>2013-03-03T10:17:52Z</time>
      </trkpt>
      <trkpt lat="43.68845" lon="3.4299">
        <ele>278.44</ele>
        <time>2013-03-03T10:18:10Z</time>
      </trkpt>
      <trkpt lat="43.68846" lon="3.42992">
        <ele>277.96</ele>
        <time>2013-03-03T10:18:24Z</time>
      </trkpt>
      <trkpt lat="43.68848" lon="3.42995">
        <ele>277.96</ele>
        <time>2013-03-03T10:18:44Z</time>
      </trkpt>
      <trkpt lat="43.68846" lon="3.42994">
        <ele>277.48</ele>
        <time>2013-03-03T10:18:58Z</time>
      </trkpt>
      <trkpt lat="43.68847" lon="3.42995">
        <ele>277.48</ele>
        <time>2013-03-03T10:19:02Z</time>
      </trkpt>
      <trkpt lat="43.68849" lon="3.42996">
        <ele>277.96</ele>
        <time>2013-03-03T10:19:20Z</time>
      </trkpt>
      <trkpt lat="43.68848" lon="3.42996">
        <ele>277.96</ele>
        <time>2013-03-03T10:19:42Z</time>
      </trkpt>
      <trkpt lat="43.68846" lon="3.4299">
        <ele>277.96</ele>
        <time>2013-03-03T10:20:04Z</time>
      </trkpt>
      <trkpt lat="43.68845" lon="3.42986">
        <ele>278.44</ele>
        <time>2013-03-03T10:20:21Z</time>
      </trkpt>
      <trkpt lat="43.68844" lon="3.4298">
        <ele>277.96</ele>
        <time>2013-03-03T10:20:27Z</time>
      </trkpt>
      <trkpt lat="43.68838" lon="3.42962">
        <ele>275.56</ele>
        <time>2013-03-03T10:20:41Z</time>
      </trkpt>
      <trkpt lat="43.68837" lon="3.42961">
        <ele>275.56</ele>
        <time>2013-03-03T10:20:42Z</time>
      </trkpt>
      <trkpt lat="43.68832" lon="3.42957">
        <ele>274.11</ele>
        <time>2013-03-03T10:20:48Z</time>
      </trkpt>
      <trkpt lat="43.68825" lon="3.42951">
        <ele>272.67</ele>
        <time>2013-03-03T10:20:55Z</time>
      </trkpt>
      <trkpt lat="43.68807" lon="3.42941">
        <ele>271.23</ele>
        <time>2013-03-03T10:21:11Z</time>
      </trkpt>
      <trkpt lat="43.68803" lon="3.42937">
        <ele>271.23</ele>
        <time>2013-03-03T10:21:15Z</time>
      </trkpt>
      <trkpt lat="43.68792" lon="3.42938">
        <ele>273.63</ele>
        <time>2013-03-03T10:21:30Z</time>
      </trkpt>
      <trkpt lat="43.68788" lon="3.42932">
        <ele>274.11</ele>
        <time>2013-03-03T10:21:42Z</time>
      </trkpt>
      <trkpt lat="43.6878" lon="3.42931">
        <ele>272.19</ele>
        <time>2013-03-03T10:21:56Z</time>
      </trkpt>
      <trkpt lat="43.68775" lon="3.42929">
        <ele>271.23</ele>
        <time>2013-03-03T10:22:02Z</time>
      </trkpt>
      <trkpt lat="43.68767" lon="3.42924">
        <ele>270.75</ele>
        <time>2013-03-03T10:22:16Z</time>
      </trkpt>
      <trkpt lat="43.68759" lon="3.42928">
        <ele>269.79</ele>
        <time>2013-03-03T10:22:27Z</time>
      </trkpt>
      <trkpt lat="43.68747" lon="3.42926">
        <ele>268.83</ele>
        <time>2013-03-03T10:22:39Z</time>
      </trkpt>
      <trkpt lat="43.68738" lon="3.42926">
        <ele>267.86</ele>
        <time>2013-03-03T10:22:47Z</time>
      </trkpt>
      <trkpt lat="43.68728" lon="3.4293">
        <ele>266.9</ele>
        <time>2013-03-03T10:22:56Z</time>
      </trkpt>
      <trkpt lat="43.68723" lon="3.42928">
        <ele>266.9</ele>
        <time>2013-03-03T10:23:01Z</time>
      </trkpt>
      <trkpt lat="43.68718" lon="3.42927">
        <ele>266.9</ele>
        <time>2013-03-03T10:23:05Z</time>
      </trkpt>
      <trkpt lat="43.68713" lon="3.42927">
        <ele>266.42</ele>
        <time>2013-03-03T10:23:10Z</time>
      </trkpt>
      <trkpt lat="43.6871" lon="3.42925">
        <ele>266.42</ele>
        <time>2013-03-03T10:23:14Z</time>
      </trkpt>
      <trkpt lat="43.68702" lon="3.42926">
        <ele>264.98</ele>
        <time>2013-03-03T10:23:26Z</time>
      </trkpt>
      <trkpt lat="43.68693" lon="3.4293">
        <ele>264.5</ele>
        <time>2013-03-03T10:23:35Z</time>
      </trkpt>
      <trkpt lat="43.68676" lon="3.42921">
        <ele>263.54</ele>
        <time>2013-03-03T10:23:50Z</time>
      </trkpt>
      <trkpt lat="43.68663" lon="3.42922">
        <ele>262.1</ele>
        <time>2013-03-03T10:24:04Z</time>
      </trkpt>
      <trkpt lat="43.68658" lon="3.4292">
        <ele>262.1</ele>
        <time>2013-03-03T10:24:09Z</time>
      </trkpt>
      <trkpt lat="43.68648" lon="3.42918">
        <ele>260.65</ele>
        <time>2013-03-03T10:24:19Z</time>
      </trkpt>
      <trkpt lat="43.68632" lon="3.42919">
        <ele>259.69</ele>
        <time>2013-03-03T10:24:33Z</time>
      </trkpt>
      <trkpt lat="43.68632" lon="3.42919">
        <ele>259.69</ele>
        <time>2013-03-03T10:24:34Z</time>
      </trkpt>
      <trkpt lat="43.68627" lon="3.42918">
        <ele>259.69</ele>
        <time>2013-03-03T10:24:39Z</time>
      </trkpt>
      <trkpt lat="43.68622" lon="3.4292">
        <ele>259.21</ele>
        <time>2013-03-03T10:24:44Z</time>
      </trkpt>
      <trkpt lat="43.68612" lon="3.42918">
        <ele>259.21</ele>
        <time>2013-03-03T10:24:52Z</time>
      </trkpt>
      <trkpt lat="43.68606" lon="3.42919">
        <ele>258.73</ele>
        <time>2013-03-03T10:24:57Z</time>
      </trkpt>
      <trkpt lat="43.68599" lon="3.4292">
        <ele>258.25</ele>
        <time>2013-03-03T10:25:04Z</time>
      </trkpt>
      <trkpt lat="43.68594" lon="3.42917">
        <ele>258.25</ele>
        <time>2013-03-03T10:25:10Z</time>
      </trkpt>
      <trkpt lat="43.68577" lon="3.42904">
        <ele>258.25</ele>
        <time>2013-03-03T10:25:26Z</time>
      </trkpt>
      <trkpt lat="43.68575" lon="3.42902">
        <ele>257.77</ele>
        <time>2013-03-03T10:25:28Z</time>
      </trkpt>
      <trkpt lat="43.68574" lon="3.42898">
        <ele>258.25</ele>
        <time>2013-03-03T10:25:31Z</time>
      </trkpt>
      <trkpt lat="43.68568" lon="3.42889">
        <ele>258.73</ele>
        <time>2013-03-03T10:25:39Z</time>
      </trkpt>
      <trkpt lat="43.68566" lon="3.42885">
        <ele>259.21</ele>
        <time>2013-03-03T10:25:43Z</time>
      </trkpt>
      <trkpt lat="43.68554" lon="3.4287">
        <ele>260.65</ele>
        <time>2013-03-03T10:26:01Z</time>
      </trkpt>
      <trkpt lat="43.68549" lon="3.42866">
        <ele>260.65</ele>
        <time>2013-03-03T10:26:15Z</time>
      </trkpt>
      <trkpt lat="43.68547" lon="3.42862">
        <ele>260.65</ele>
        <time>2013-03-03T10:26:27Z</time>
      </trkpt>
      <trkpt lat="43.68545" lon="3.42858">
        <ele>260.17</ele>
        <time>2013-03-03T10:26:41Z</time>
      </trkpt>
      <trkpt lat="43.6854" lon="3.42857">
        <ele>258.25</ele>
        <time>2013-03-03T10:26:55Z</time>
      </trkpt>
      <trkpt lat="43.68531" lon="3.42857">
        <ele>255.37</ele>
        <time>2013-03-03T10:27:10Z</time>
      </trkpt>
      <trkpt lat="43.68525" lon="3.42857">
        <ele>252.96</ele>
        <time>2013-03-03T10:27:24Z</time>
      </trkpt>
      <trkpt lat="43.68523" lon="3.42858">
        <ele>252</ele>
        <time>2013-03-03T10:27:30Z</time>
      </trkpt>
      <trkpt lat="43.68518" lon="3.42857">
        <ele>249.6</ele>
        <time>2013-03-03T10:27:41Z</time>
      </trkpt>
      <trkpt lat="43.68513" lon="3.42855">
        <ele>247.2</ele>
        <time>2013-03-03T10:27:55Z</time>
      </trkpt>
      <trkpt lat="43.68507" lon="3.42856">
        <ele>244.79</ele>
        <time>2013-03-03T10:28:08Z</time>
      </trkpt>
      <trkpt lat="43.68501" lon="3.42855">
        <ele>242.87</ele>
        <time>2013-03-03T10:28:20Z</time>
      </trkpt>
      <trkpt lat="43.68496" lon="3.42857">
        <ele>241.43</ele>
        <time>2013-03-03T10:28:32Z</time>
      </trkpt>
      <trkpt lat="43.68495" lon="3.42858">
        <ele>240.95</ele>
        <time>2013-03-03T10:28:46Z</time>
      </trkpt>
      <trkpt lat="43.68491" lon="3.42858">
        <ele>239.51</ele>
        <time>2013-03-03T10:28:57Z</time>
      </trkpt>
      <trkpt lat="43.68487" lon="3.42857">
        <ele>237.1</ele>
        <time>2013-03-03T10:29:07Z</time>
      </trkpt>
      <trkpt lat="43.68482" lon="3.42856">
        <ele>234.22</ele>
        <time>2013-03-03T10:29:21Z</time>
      </trkpt>
      <trkpt lat="43.68477" lon="3.42857">
        <ele>231.81</ele>
        <time>2013-03-03T10:29:33Z</time>
      </trkpt>
      <trkpt lat="43.68471" lon="3.42859">
        <ele>228.93</ele>
        <time>2013-03-03T10:29:47Z</time>
      </trkpt>
      <trkpt lat="43.68466" lon="3.42865">
        <ele>226.53</ele>
        <time>2013-03-03T10:29:58Z</time>
      </trkpt>
      <trkpt lat="43.68463" lon="3.42873">
        <ele>224.12</ele>
        <time>2013-03-03T10:30:12Z</time>
      </trkpt>
      <trkpt lat="43.68458" lon="3.42876">
        <ele>221.24</ele>
        <time>2013-03-03T10:30:24Z</time>
      </trkpt>
      <trkpt lat="43.68452" lon="3.42877">
        <ele>218.36</ele>
        <time>2013-03-03T10:30:37Z</time>
      </trkpt>
      <trkpt lat="43.68444" lon="3.42874">
        <ele>215.47</ele>
        <time>2013-03-03T10:30:50Z</time>
      </trkpt>
      <trkpt lat="43.68435" lon="3.42871">
        <ele>212.59</ele>
        <time>2013-03-03T10:31:02Z</time>
      </trkpt>
      <trkpt lat="43.68428" lon="3.42863">
        <ele>210.67</ele>
        <time>2013-03-03T10:31:15Z</time>
      </trkpt>
      <trkpt lat="43.6842" lon="3.42858">
        <ele>208.26</ele>
        <time>2013-03-03T10:31:30Z</time>
      </trkpt>
      <trkpt lat="43.68414" lon="3.42854">
        <ele>206.34</ele>
        <time>2013-03-03T10:31:43Z</time>
      </trkpt>
      <trkpt lat="43.6841" lon="3.42849">
        <ele>205.38</ele>
        <time>2013-03-03T10:31:56Z</time>
      </trkpt>
      <trkpt lat="43.68407" lon="3.42853">
        <ele>203.46</ele>
        <time>2013-03-03T10:32:07Z</time>
      </trkpt>
      <trkpt lat="43.68405" lon="3.42852">
        <ele>202.49</ele>
        <time>2013-03-03T10:32:20Z</time>
      </trkpt>
      <trkpt lat="43.68403" lon="3.42852">
        <ele>200.57</ele>
        <time>2013-03-03T10:32:33Z</time>
      </trkpt>
      <trkpt lat="43.68399" lon="3.42856">
        <ele>199.13</ele>
        <time>2013-03-03T10:32:46Z</time>
      </trkpt>
      <trkpt lat="43.68402" lon="3.42861">
        <ele>198.65</ele>
        <time>2013-03-03T10:32:54Z</time>
      </trkpt>
      <trkpt lat="43.68398" lon="3.42874">
        <ele>198.17</ele>
        <time>2013-03-03T10:33:03Z</time>
      </trkpt>
      <trkpt lat="43.68394" lon="3.42872">
        <ele>196.25</ele>
        <time>2013-03-03T10:33:15Z</time>
      </trkpt>
      <trkpt lat="43.68392" lon="3.42874">
        <ele>194.8</ele>
        <time>2013-03-03T10:33:32Z</time>
      </trkpt>
      <trkpt lat="43.68388" lon="3.42879">
        <ele>192.88</ele>
        <time>2013-03-03T10:33:44Z</time>
      </trkpt>
      <trkpt lat="43.68383" lon="3.42881">
        <ele>190.48</ele>
        <time>2013-03-03T10:34:02Z</time>
      </trkpt>
      <trkpt lat="43.68376" lon="3.42884">
        <ele>187.59</ele>
        <time>2013-03-03T10:34:13Z</time>
      </trkpt>
      <trkpt lat="43.68372" lon="3.42883">
        <ele>185.67</ele>
        <time>2013-03-03T10:34:28Z</time>
      </trkpt>
      <trkpt lat="43.6837" lon="3.42884">
        <ele>185.67</ele>
        <time>2013-03-03T10:34:46Z</time>
      </trkpt>
      <trkpt lat="43.68366" lon="3.42881">
        <ele>184.23</ele>
        <time>2013-03-03T10:34:56Z</time>
      </trkpt>
      <trkpt lat="43.68359" lon="3.42881">
        <ele>180.38</ele>
        <time>2013-03-03T10:35:10Z</time>
      </trkpt>
      <trkpt lat="43.68353" lon="3.42882">
        <ele>177.98</ele>
        <time>2013-03-03T10:35:20Z</time>
      </trkpt>
      <trkpt lat="43.6835" lon="3.42883">
        <ele>177.02</ele>
        <time>2013-03-03T10:35:25Z</time>
      </trkpt>
      <trkpt lat="43.68342" lon="3.4289">
        <ele>173.17</ele>
        <time>2013-03-03T10:35:32Z</time>
      </trkpt>
      <trkpt lat="43.68338" lon="3.42897">
        <ele>169.33</ele>
        <time>2013-03-03T10:35:37Z</time>
      </trkpt>
      <trkpt lat="43.68337" lon="3.42898">
        <ele>168.85</ele>
        <time>2013-03-03T10:35:38Z</time>
      </trkpt>
      <trkpt lat="43.68333" lon="3.42906">
        <ele>165.96</ele>
        <time>2013-03-03T10:35:45Z</time>
      </trkpt>
      <trkpt lat="43.68328" lon="3.4291">
        <ele>164.52</ele>
        <time>2013-03-03T10:35:50Z</time>
      </trkpt>
      <trkpt lat="43.68322" lon="3.42909">
        <ele>164.04</ele>
        <time>2013-03-03T10:36:03Z</time>
      </trkpt>
      <trkpt lat="43.68314" lon="3.42915">
        <ele>161.16</ele>
        <time>2013-03-03T10:36:21Z</time>
      </trkpt>
      <trkpt lat="43.6831" lon="3.42918">
        <ele>160.68</ele>
        <time>2013-03-03T10:36:25Z</time>
      </trkpt>
      <trkpt lat="43.68304" lon="3.42924">
        <ele>158.27</ele>
        <time>2013-03-03T10:36:34Z</time>
      </trkpt>
      <trkpt lat="43.68303" lon="3.42927">
        <ele>158.27</ele>
        <time>2013-03-03T10:36:36Z</time>
      </trkpt>
      <trkpt lat="43.68293" lon="3.42932">
        <ele>155.39</ele>
        <time>2013-03-03T10:36:48Z</time>
      </trkpt>
      <trkpt lat="43.68292" lon="3.42932">
        <ele>155.39</ele>
        <time>2013-03-03T10:36:50Z</time>
      </trkpt>
      <trkpt lat="43.68286" lon="3.42933">
        <ele>154.43</ele>
        <time>2013-03-03T10:37:05Z</time>
      </trkpt>
      <trkpt lat="43.68286" lon="3.42933">
        <ele>154.43</ele>
        <time>2013-03-03T10:37:28Z</time>
      </trkpt>
      <trkpt lat="43.68278" lon="3.42925">
        <ele>154.91</ele>
        <time>2013-03-03T10:37:41Z</time>
      </trkpt>
      <trkpt lat="43.68273" lon="3.42924">
        <ele>151.06</ele>
        <time>2013-03-03T10:37:48Z</time>
      </trkpt>
      <trkpt lat="43.6827" lon="3.42924">
        <ele>152.99</ele>
        <time>2013-03-03T10:38:06Z</time>
      </trkpt>
      <trkpt lat="43.68267" lon="3.42924">
        <ele>152.51</ele>
        <time>2013-03-03T10:38:33Z</time>
      </trkpt>
      <trkpt lat="43.68262" lon="3.42925">
        <ele>152.03</ele>
        <time>2013-03-03T10:38:48Z</time>
      </trkpt>
      <trkpt lat="43.68258" lon="3.42926">
        <ele>151.06</ele>
        <time>2013-03-03T10:39:02Z</time>
      </trkpt>
      <trkpt lat="43.68256" lon="3.42927">
        <ele>150.58</ele>
        <time>2013-03-03T10:39:19Z</time>
      </trkpt>
      <trkpt lat="43.68248" lon="3.42928">
        <ele>148.66</ele>
        <time>2013-03-03T10:39:33Z</time>
      </trkpt>
      <trkpt lat="43.68246" lon="3.42928">
        <ele>148.18</ele>
        <time>2013-03-03T10:39:35Z</time>
      </trkpt>
      <trkpt lat="43.68231" lon="3.42934">
        <ele>145.78</ele>
        <time>2013-03-03T10:39:53Z</time>
      </trkpt>
      <trkpt lat="43.68227" lon="3.42938">
        <ele>144.82</ele>
        <time>2013-03-03T10:40:01Z</time>
      </trkpt>
      <trkpt lat="43.68214" lon="3.42937">
        <ele>143.37</ele>
        <time>2013-03-03T10:40:17Z</time>
      </trkpt>
      <trkpt lat="43.68204" lon="3.42929">
        <ele>142.41</ele>
        <time>2013-03-03T10:40:33Z</time>
      </trkpt>
      <trkpt lat="43.68202" lon="3.42934">
        <ele>141.93</ele>
        <time>2013-03-03T10:40:46Z</time>
      </trkpt>
      <trkpt lat="43.68201" lon="3.42937">
        <ele>140.97</ele>
        <time>2013-03-03T10:40:52Z</time>
      </trkpt>
      <trkpt lat="43.68191" lon="3.42941">
        <ele>139.53</ele>
        <time>2013-03-03T10:41:03Z</time>
      </trkpt>
      <trkpt lat="43.68186" lon="3.42949">
        <ele>138.09</ele>
        <time>2013-03-03T10:41:12Z</time>
      </trkpt>
      <trkpt lat="43.68175" lon="3.42945">
        <ele>137.13</ele>
        <time>2013-03-03T10:41:24Z</time>
      </trkpt>
      <trkpt lat="43.68165" lon="3.42942">
        <ele>135.2</ele>
        <time>2013-03-03T10:41:35Z</time>
      </trkpt>
      <trkpt lat="43.6815" lon="3.42932">
        <ele>133.28</ele>
        <time>2013-03-03T10:41:51Z</time>
      </trkpt>
      <trkpt lat="43.68145" lon="3.42926">
        <ele>132.8</ele>
        <time>2013-03-03T10:41:57Z</time>
      </trkpt>
      <trkpt lat="43.6814" lon="3.42922">
        <ele>132.32</ele>
        <time>2013-03-03T10:42:03Z</time>
      </trkpt>
      <trkpt lat="43.68135" lon="3.42921">
        <ele>131.36</ele>
        <time>2013-03-03T10:42:09Z</time>
      </trkpt>
      <trkpt lat="43.68126" lon="3.42911">
        <ele>130.4</ele>
        <time>2013-03-03T10:42:23Z</time>
      </trkpt>
      <trkpt lat="43.68125" lon="3.4291">
        <ele>130.4</ele>
        <time>2013-03-03T10:42:25Z</time>
      </trkpt>
      <trkpt lat="43.6812" lon="3.42907">
        <ele>130.4</ele>
        <time>2013-03-03T10:42:30Z</time>
      </trkpt>
      <trkpt lat="43.68104" lon="3.42914">
        <ele>128.47</ele>
        <time>2013-03-03T10:42:48Z</time>
      </trkpt>
      <trkpt lat="43.68102" lon="3.42917">
        <ele>127.99</ele>
        <time>2013-03-03T10:42:51Z</time>
      </trkpt>
      <trkpt lat="43.68095" lon="3.42914">
        <ele>127.51</ele>
        <time>2013-03-03T10:42:57Z</time>
      </trkpt>
      <trkpt lat="43.68075" lon="3.42926">
        <ele>127.51</ele>
        <time>2013-03-03T10:43:16Z</time>
      </trkpt>
      <trkpt lat="43.68052" lon="3.42921">
        <ele>126.55</ele>
        <time>2013-03-03T10:43:35Z</time>
      </trkpt>
      <trkpt lat="43.68049" lon="3.42914">
        <ele>127.51</ele>
        <time>2013-03-03T10:43:40Z</time>
      </trkpt>
      <trkpt lat="43.68045" lon="3.42903">
        <ele>127.51</ele>
        <time>2013-03-03T10:43:49Z</time>
      </trkpt>
      <trkpt lat="43.68043" lon="3.42902">
        <ele>127.51</ele>
        <time>2013-03-03T10:43:52Z</time>
      </trkpt>
      <trkpt lat="43.68033" lon="3.42901">
        <ele>128.47</ele>
        <time>2013-03-03T10:44:05Z</time>
      </trkpt>
      <trkpt lat="43.68023" lon="3.42898">
        <ele>128.95</ele>
        <time>2013-03-03T10:44:14Z</time>
      </trkpt>
      <trkpt lat="43.68005" lon="3.42894">
        <ele>132.8</ele>
        <time>2013-03-03T10:44:30Z</time>
      </trkpt>
      <trkpt lat="43.68004" lon="3.42895">
        <ele>132.8</ele>
        <time>2013-03-03T10:44:31Z</time>
      </trkpt>
      <trkpt lat="43.67998" lon="3.42895">
        <ele>133.28</ele>
        <time>2013-03-03T10:44:36Z</time>
      </trkpt>
      <trkpt lat="43.67993" lon="3.42892">
        <ele>134.72</ele>
        <time>2013-03-03T10:44:40Z</time>
      </trkpt>
      <trkpt lat="43.67985" lon="3.42888">
        <ele>136.16</ele>
        <time>2013-03-03T10:44:48Z</time>
      </trkpt>
      <trkpt lat="43.67977" lon="3.42893">
        <ele>138.09</ele>
        <time>2013-03-03T10:44:59Z</time>
      </trkpt>
      <trkpt lat="43.67976" lon="3.42894">
        <ele>139.05</ele>
        <time>2013-03-03T10:45:01Z</time>
      </trkpt>
      <trkpt lat="43.6797" lon="3.42896">
        <ele>140.49</ele>
        <time>2013-03-03T10:45:07Z</time>
      </trkpt>
      <trkpt lat="43.67965" lon="3.42893">
        <ele>141.93</ele>
        <time>2013-03-03T10:45:12Z</time>
      </trkpt>
      <trkpt lat="43.67956" lon="3.42885">
        <ele>143.85</ele>
        <time>2013-03-03T10:45:25Z</time>
      </trkpt>
      <trkpt lat="43.67949" lon="3.42883">
        <ele>146.26</ele>
        <time>2013-03-03T10:45:36Z</time>
      </trkpt>
      <trkpt lat="43.67945" lon="3.42886">
        <ele>148.18</ele>
        <time>2013-03-03T10:45:41Z</time>
      </trkpt>
      <trkpt lat="43.67939" lon="3.42889">
        <ele>151.06</ele>
        <time>2013-03-03T10:45:53Z</time>
      </trkpt>
      <trkpt lat="43.67933" lon="3.42886">
        <ele>153.95</ele>
        <time>2013-03-03T10:46:06Z</time>
      </trkpt>
      <trkpt lat="43.67927" lon="3.4288">
        <ele>156.83</ele>
        <time>2013-03-03T10:46:18Z</time>
      </trkpt>
      <trkpt lat="43.6792" lon="3.42877">
        <ele>157.79</ele>
        <time>2013-03-03T10:46:27Z</time>
      </trkpt>
      <trkpt lat="43.67921" lon="3.42884">
        <ele>158.75</ele>
        <time>2013-03-03T10:46:32Z</time>
      </trkpt>
      <trkpt lat="43.67914" lon="3.42886">
        <ele>161.64</ele>
        <time>2013-03-03T10:46:44Z</time>
      </trkpt>
      <trkpt lat="43.67906" lon="3.42887">
        <ele>164.52</ele>
        <time>2013-03-03T10:46:55Z</time>
      </trkpt>
      <trkpt lat="43.67902" lon="3.4289">
        <ele>167.89</ele>
        <time>2013-03-03T10:47:07Z</time>
      </trkpt>
      <trkpt lat="43.67897" lon="3.42891">
        <ele>170.77</ele>
        <time>2013-03-03T10:47:20Z</time>
      </trkpt>
      <trkpt lat="43.67891" lon="3.4289">
        <ele>174.14</ele>
        <time>2013-03-03T10:47:32Z</time>
      </trkpt>
      <trkpt lat="43.6789" lon="3.4289">
        <ele>174.62</ele>
        <time>2013-03-03T10:47:46Z</time>
      </trkpt>
      <trkpt lat="43.67889" lon="3.42894">
        <ele>175.58</ele>
        <time>2013-03-03T10:47:48Z</time>
      </trkpt>
      <trkpt lat="43.67884" lon="3.42903">
        <ele>178.94</ele>
        <time>2013-03-03T10:47:55Z</time>
      </trkpt>
      <trkpt lat="43.67884" lon="3.42904">
        <ele>179.42</ele>
        <time>2013-03-03T10:47:56Z</time>
      </trkpt>
      <trkpt lat="43.67885" lon="3.4291">
        <ele>181.35</ele>
        <time>2013-03-03T10:48:02Z</time>
      </trkpt>
      <trkpt lat="43.67884" lon="3.42921">
        <ele>183.75</ele>
        <time>2013-03-03T10:48:17Z</time>
      </trkpt>
      <trkpt lat="43.67887" lon="3.42917">
        <ele>183.75</ele>
        <time>2013-03-03T10:48:28Z</time>
      </trkpt>
      <trkpt lat="43.67889" lon="3.42914">
        <ele>182.79</ele>
        <time>2013-03-03T10:48:40Z</time>
      </trkpt>
      <trkpt lat="43.67889" lon="3.42916">
        <ele>182.79</ele>
        <time>2013-03-03T10:49:03Z</time>
      </trkpt>
      <trkpt lat="43.67892" lon="3.42916">
        <ele>182.79</ele>
        <time>2013-03-03T10:49:28Z</time>
      </trkpt>
      <trkpt lat="43.67888" lon="3.42917">
        <ele>183.27</ele>
        <time>2013-03-03T10:49:47Z</time>
      </trkpt>
      <trkpt lat="43.67887" lon="3.42922">
        <ele>184.71</ele>
        <time>2013-03-03T10:50:01Z</time>
      </trkpt>
      <trkpt lat="43.67886" lon="3.42923">
        <ele>185.19</ele>
        <time>2013-03-03T10:50:18Z</time>
      </trkpt>
      <trkpt lat="43.67885" lon="3.42922">
        <ele>185.19</ele>
        <time>2013-03-03T10:50:40Z</time>
      </trkpt>
      <trkpt lat="43.67885" lon="3.42923">
        <ele>185.19</ele>
        <time>2013-03-03T10:51:07Z</time>
      </trkpt>
      <trkpt lat="43.67885" lon="3.42923">
        <ele>185.67</ele>
        <time>2013-03-03T10:51:33Z</time>
      </trkpt>
      <trkpt lat="43.67883" lon="3.42924">
        <ele>185.67</ele>
        <time>2013-03-03T10:52:00Z</time>
      </trkpt>
      <trkpt lat="43.67883" lon="3.42925">
        <ele>185.67</ele>
        <time>2013-03-03T10:52:26Z</time>
      </trkpt>
      <trkpt lat="43.67883" lon="3.42924">
        <ele>185.67</ele>
        <time>2013-03-03T10:52:49Z</time>
      </trkpt>
      <trkpt lat="43.67883" lon="3.42924">
        <ele>185.67</ele>
        <time>2013-03-03T10:53:05Z</time>
      </trkpt>
      <trkpt lat="43.6788" lon="3.42924">
        <ele>185.67</ele>
        <time>2013-03-03T10:53:26Z</time>
      </trkpt>
      <trkpt lat="43.67882" lon="3.42927">
        <ele>186.15</ele>
        <time>2013-03-03T10:53:43Z</time>
      </trkpt>
      <trkpt lat="43.67876" lon="3.4293">
        <ele>184.71</ele>
        <time>2013-03-03T10:53:55Z</time>
      </trkpt>
      <trkpt lat="43.67871" lon="3.42935">
        <ele>184.23</ele>
        <time>2013-03-03T10:54:06Z</time>
      </trkpt>
      <trkpt lat="43.67871" lon="3.42934">
        <ele>184.23</ele>
        <time>2013-03-03T10:54:20Z</time>
      </trkpt>
      <trkpt lat="43.67872" lon="3.42936">
        <ele>184.23</ele>
        <time>2013-03-03T10:54:45Z</time>
      </trkpt>
      <trkpt lat="43.67872" lon="3.42935">
        <ele>184.23</ele>
        <time>2013-03-03T10:55:12Z</time>
      </trkpt>
      <trkpt lat="43.67873" lon="3.42934">
        <ele>184.23</ele>
        <time>2013-03-03T10:55:41Z</time>
      </trkpt>
      <trkpt lat="43.67878" lon="3.42932">
        <ele>184.71</ele>
        <time>2013-03-03T10:56:08Z</time>
      </trkpt>
      <trkpt lat="43.67872" lon="3.42928">
        <ele>182.31</ele>
        <time>2013-03-03T10:56:24Z</time>
      </trkpt>
      <trkpt lat="43.6787" lon="3.42927">
        <ele>181.35</ele>
        <time>2013-03-03T10:56:26Z</time>
      </trkpt>
      <trkpt lat="43.67869" lon="3.42925">
        <ele>178.46</ele>
        <time>2013-03-03T10:56:38Z</time>
      </trkpt>
      <trkpt lat="43.67867" lon="3.42921">
        <ele>175.58</ele>
        <time>2013-03-03T10:56:52Z</time>
      </trkpt>
      <trkpt lat="43.67864" lon="3.42919">
        <ele>172.69</ele>
        <time>2013-03-03T10:57:04Z</time>
      </trkpt>
      <trkpt lat="43.67861" lon="3.42922">
        <ele>171.73</ele>
        <time>2013-03-03T10:57:15Z</time>
      </trkpt>
      <trkpt lat="43.67861" lon="3.4292">
        <ele>170.29</ele>
        <time>2013-03-03T10:57:25Z</time>
      </trkpt>
      <trkpt lat="43.67863" lon="3.42916">
        <ele>169.33</ele>
        <time>2013-03-03T10:57:38Z</time>
      </trkpt>
      <trkpt lat="43.67866" lon="3.42913">
        <ele>169.81</ele>
        <time>2013-03-03T10:57:50Z</time>
      </trkpt>
      <trkpt lat="43.67867" lon="3.42909">
        <ele>169.33</ele>
        <time>2013-03-03T10:57:54Z</time>
      </trkpt>
      <trkpt lat="43.67871" lon="3.42903">
        <ele>170.29</ele>
        <time>2013-03-03T10:58:06Z</time>
      </trkpt>
      <trkpt lat="43.67872" lon="3.42896">
        <ele>168.85</ele>
        <time>2013-03-03T10:58:19Z</time>
      </trkpt>
      <trkpt lat="43.67875" lon="3.42891">
        <ele>166.93</ele>
        <time>2013-03-03T10:58:30Z</time>
      </trkpt>
      <trkpt lat="43.67875" lon="3.42889">
        <ele>166.45</ele>
        <time>2013-03-03T10:58:43Z</time>
      </trkpt>
      <trkpt lat="43.67875" lon="3.42893">
        <ele>167.41</ele>
        <time>2013-03-03T10:58:57Z</time>
      </trkpt>
      <trkpt lat="43.67875" lon="3.42892">
        <ele>167.41</ele>
        <time>2013-03-03T10:59:23Z</time>
      </trkpt>
      <trkpt lat="43.67874" lon="3.42891">
        <ele>167.41</ele>
        <time>2013-03-03T10:59:41Z</time>
      </trkpt>
      <trkpt lat="43.67875" lon="3.42888">
        <ele>166.45</ele>
        <time>2013-03-03T10:59:55Z</time>
      </trkpt>
      <trkpt lat="43.67872" lon="3.42887">
        <ele>164.52</ele>
        <time>2013-03-03T11:00:05Z</time>
      </trkpt>
      <trkpt lat="43.6787" lon="3.42888">
        <ele>165.96</ele>
        <time>2013-03-03T11:00:17Z</time>
      </trkpt>
      <trkpt lat="43.6787" lon="3.42888">
        <ele>165.96</ele>
        <time>2013-03-03T11:00:37Z</time>
      </trkpt>
      <trkpt lat="43.67867" lon="3.42889">
        <ele>165.96</ele>
        <time>2013-03-03T11:00:55Z</time>
      </trkpt>
      <trkpt lat="43.67867" lon="3.42889">
        <ele>165.48</ele>
        <time>2013-03-03T11:01:13Z</time>
      </trkpt>
      <trkpt lat="43.67866" lon="3.42889">
        <ele>165</ele>
        <time>2013-03-03T11:01:16Z</time>
      </trkpt>
      <trkpt lat="43.67858" lon="3.42885">
        <ele>170.29</ele>
        <time>2013-03-03T11:01:49Z</time>
      </trkpt>
      <trkpt lat="43.67859" lon="3.42884">
        <ele>170.29</ele>
        <time>2013-03-03T11:01:50Z</time>
      </trkpt>
      <trkpt lat="43.67854" lon="3.42879">
        <ele>167.89</ele>
        <time>2013-03-03T11:02:06Z</time>
      </trkpt>
      <trkpt lat="43.67855" lon="3.42871">
        <ele>166.45</ele>
        <time>2013-03-03T11:02:18Z</time>
      </trkpt>
      <trkpt lat="43.67854" lon="3.42867">
        <ele>164.52</ele>
        <time>2013-03-03T11:02:32Z</time>
      </trkpt>
      <trkpt lat="43.67856" lon="3.4286">
        <ele>163.08</ele>
        <time>2013-03-03T11:02:43Z</time>
      </trkpt>
      <trkpt lat="43.67858" lon="3.42852">
        <ele>159.72</ele>
        <time>2013-03-03T11:02:54Z</time>
      </trkpt>
      <trkpt lat="43.67861" lon="3.42849">
        <ele>159.24</ele>
        <time>2013-03-03T11:03:03Z</time>
      </trkpt>
      <trkpt lat="43.67862" lon="3.42845">
        <ele>158.27</ele>
        <time>2013-03-03T11:03:09Z</time>
      </trkpt>
      <trkpt lat="43.67868" lon="3.42837">
        <ele>156.83</ele>
        <time>2013-03-03T11:03:20Z</time>
      </trkpt>
      <trkpt lat="43.67875" lon="3.42829">
        <ele>155.39</ele>
        <time>2013-03-03T11:03:29Z</time>
      </trkpt>
      <trkpt lat="43.67872" lon="3.42825">
        <ele>153.47</ele>
        <time>2013-03-03T11:03:33Z</time>
      </trkpt>
      <trkpt lat="43.6787" lon="3.4282">
        <ele>152.03</ele>
        <time>2013-03-03T11:03:38Z</time>
      </trkpt>
      <trkpt lat="43.67869" lon="3.42811">
        <ele>149.62</ele>
        <time>2013-03-03T11:03:47Z</time>
      </trkpt>
      <trkpt lat="43.67863" lon="3.42803">
        <ele>147.22</ele>
        <time>2013-03-03T11:03:59Z</time>
      </trkpt>
      <trkpt lat="43.67861" lon="3.428">
        <ele>146.26</ele>
        <time>2013-03-03T11:04:02Z</time>
      </trkpt>
      <trkpt lat="43.67844" lon="3.42793">
        <ele>142.89</ele>
        <time>2013-03-03T11:04:18Z</time>
      </trkpt>
      <trkpt lat="43.67837" lon="3.42793">
        <ele>141.93</ele>
        <time>2013-03-03T11:04:34Z</time>
      </trkpt>
      <trkpt lat="43.67835" lon="3.42792">
        <ele>141.93</ele>
        <time>2013-03-03T11:04:52Z</time>
      </trkpt>
      <trkpt lat="43.67835" lon="3.42793">
        <ele>141.93</ele>
        <time>2013-03-03T11:05:16Z</time>
      </trkpt>
      <trkpt lat="43.6783" lon="3.42794">
        <ele>140.49</ele>
        <time>2013-03-03T11:05:31Z</time>
      </trkpt>
      <trkpt lat="43.67827" lon="3.42792">
        <ele>139.53</ele>
        <time>2013-03-03T11:05:46Z</time>
      </trkpt>
      <trkpt lat="43.67825" lon="3.42788">
        <ele>138.09</ele>
        <time>2013-03-03T11:05:59Z</time>
      </trkpt>
      <trkpt lat="43.67817" lon="3.42781">
        <ele>136.16</ele>
        <time>2013-03-03T11:06:14Z</time>
      </trkpt>
      <trkpt lat="43.67812" lon="3.42778">
        <ele>133.76</ele>
        <time>2013-03-03T11:06:28Z</time>
      </trkpt>
      <trkpt lat="43.67811" lon="3.42778">
        <ele>133.28</ele>
        <time>2013-03-03T11:07:02Z</time>
      </trkpt>
      <trkpt lat="43.67812" lon="3.42779">
        <ele>133.76</ele>
        <time>2013-03-03T11:07:24Z</time>
      </trkpt>
      <trkpt lat="43.67808" lon="3.42776">
        <ele>132.8</ele>
        <time>2013-03-03T11:07:37Z</time>
      </trkpt>
      <trkpt lat="43.67803" lon="3.42769">
        <ele>130.88</ele>
        <time>2013-03-03T11:07:45Z</time>
      </trkpt>
      <trkpt lat="43.67791" lon="3.42763">
        <ele>127.99</ele>
        <time>2013-03-03T11:07:58Z</time>
      </trkpt>
      <trkpt lat="43.67787" lon="3.42759">
        <ele>126.55</ele>
        <time>2013-03-03T11:08:04Z</time>
      </trkpt>
      <trkpt lat="43.67784" lon="3.42751">
        <ele>125.59</ele>
        <time>2013-03-03T11:08:10Z</time>
      </trkpt>
      <trkpt lat="43.67775" lon="3.42743">
        <ele>123.19</ele>
        <time>2013-03-03T11:08:22Z</time>
      </trkpt>
      <trkpt lat="43.67773" lon="3.42743">
        <ele>122.71</ele>
        <time>2013-03-03T11:08:26Z</time>
      </trkpt>
      <trkpt lat="43.6777" lon="3.42742">
        <ele>122.22</ele>
        <time>2013-03-03T11:08:29Z</time>
      </trkpt>
      <trkpt lat="43.67767" lon="3.4274">
        <ele>121.74</ele>
        <time>2013-03-03T11:08:32Z</time>
      </trkpt>
      <trkpt lat="43.67763" lon="3.42744">
        <ele>119.82</ele>
        <time>2013-03-03T11:08:36Z</time>
      </trkpt>
      <trkpt lat="43.67758" lon="3.42744">
        <ele>119.34</ele>
        <time>2013-03-03T11:08:42Z</time>
      </trkpt>
      <trkpt lat="43.67752" lon="3.42737">
        <ele>118.38</ele>
        <time>2013-03-03T11:08:49Z</time>
      </trkpt>
      <trkpt lat="43.67745" lon="3.42731">
        <ele>115.98</ele>
        <time>2013-03-03T11:09:02Z</time>
      </trkpt>
      <trkpt lat="43.67733" lon="3.42727">
        <ele>113.09</ele>
        <time>2013-03-03T11:09:16Z</time>
      </trkpt>
      <trkpt lat="43.67722" lon="3.42726">
        <ele>111.17</ele>
        <time>2013-03-03T11:09:29Z</time>
      </trkpt>
      <trkpt lat="43.6772" lon="3.42725">
        <ele>110.69</ele>
        <time>2013-03-03T11:09:31Z</time>
      </trkpt>
      <trkpt lat="43.67718" lon="3.42725">
        <ele>110.21</ele>
        <time>2013-03-03T11:09:33Z</time>
      </trkpt>
      <trkpt lat="43.67714" lon="3.42722">
        <ele>108.77</ele>
        <time>2013-03-03T11:09:38Z</time>
      </trkpt>
      <trkpt lat="43.6771" lon="3.42719">
        <ele>107.81</ele>
        <time>2013-03-03T11:09:43Z</time>
      </trkpt>
      <trkpt lat="43.67701" lon="3.42712">
        <ele>106.36</ele>
        <time>2013-03-03T11:09:59Z</time>
      </trkpt>
      <trkpt lat="43.677" lon="3.42712">
        <ele>106.36</ele>
        <time>2013-03-03T11:10:15Z</time>
      </trkpt>
      <trkpt lat="43.67698" lon="3.42712">
        <ele>105.4</ele>
        <time>2013-03-03T11:10:39Z</time>
      </trkpt>
      <trkpt lat="43.67694" lon="3.42711">
        <ele>104.44</ele>
        <time>2013-03-03T11:10:51Z</time>
      </trkpt>
      <trkpt lat="43.67692" lon="3.42711">
        <ele>103.48</ele>
        <time>2013-03-03T11:11:11Z</time>
      </trkpt>
      <trkpt lat="43.67683" lon="3.42712">
        <ele>102.04</ele>
        <time>2013-03-03T11:11:23Z</time>
      </trkpt>
      <trkpt lat="43.67677" lon="3.42712">
        <ele>101.56</ele>
        <time>2013-03-03T11:11:35Z</time>
      </trkpt>
      <trkpt lat="43.67666" lon="3.42714">
        <ele>101.56</ele>
        <time>2013-03-03T11:11:48Z</time>
      </trkpt>
      <trkpt lat="43.6766" lon="3.42719">
        <ele>102.04</ele>
        <time>2013-03-03T11:11:54Z</time>
      </trkpt>
      <trkpt lat="43.67651" lon="3.42717">
        <ele>105.4</ele>
        <time>2013-03-03T11:12:07Z</time>
      </trkpt>
      <trkpt lat="43.67652" lon="3.4272">
        <ele>103.96</ele>
        <time>2013-03-03T11:12:19Z</time>
      </trkpt>
      <trkpt lat="43.67651" lon="3.42722">
        <ele>103.96</ele>
        <time>2013-03-03T11:12:21Z</time>
      </trkpt>
      <trkpt lat="43.67651" lon="3.42727">
        <ele>103</ele>
        <time>2013-03-03T11:12:24Z</time>
      </trkpt>
      <trkpt lat="43.67643" lon="3.42735">
        <ele>101.56</ele>
        <time>2013-03-03T11:12:34Z</time>
      </trkpt>
      <trkpt lat="43.67636" lon="3.42742">
        <ele>100.6</ele>
        <time>2013-03-03T11:12:43Z</time>
      </trkpt>
      <trkpt lat="43.67632" lon="3.42743">
        <ele>100.6</ele>
        <time>2013-03-03T11:12:46Z</time>
      </trkpt>
      <trkpt lat="43.67628" lon="3.42748">
        <ele>100.11</ele>
        <time>2013-03-03T11:12:50Z</time>
      </trkpt>
      <trkpt lat="43.6762" lon="3.42752">
        <ele>99.63</ele>
        <time>2013-03-03T11:12:57Z</time>
      </trkpt>
      <trkpt lat="43.67615" lon="3.42763">
        <ele>98.19</ele>
        <time>2013-03-03T11:13:09Z</time>
      </trkpt>
      <trkpt lat="43.67615" lon="3.42764">
        <ele>97.71</ele>
        <time>2013-03-03T11:13:10Z</time>
      </trkpt>
      <trkpt lat="43.67613" lon="3.42784">
        <ele>96.75</ele>
        <time>2013-03-03T11:13:25Z</time>
      </trkpt>
      <trkpt lat="43.67607" lon="3.42791">
        <ele>96.27</ele>
        <time>2013-03-03T11:13:32Z</time>
      </trkpt>
      <trkpt lat="43.67603" lon="3.42799">
        <ele>96.27</ele>
        <time>2013-03-03T11:13:38Z</time>
      </trkpt>
      <trkpt lat="43.67596" lon="3.42817">
        <ele>95.79</ele>
        <time>2013-03-03T11:13:52Z</time>
      </trkpt>
      <trkpt lat="43.67595" lon="3.42819">
        <ele>95.79</ele>
        <time>2013-03-03T11:13:53Z</time>
      </trkpt>
      <trkpt lat="43.67594" lon="3.42828">
        <ele>95.79</ele>
        <time>2013-03-03T11:14:00Z</time>
      </trkpt>
      <trkpt lat="43.67586" lon="3.42833">
        <ele>96.27</ele>
        <time>2013-03-03T11:14:12Z</time>
      </trkpt>
      <trkpt lat="43.67585" lon="3.42836">
        <ele>95.79</ele>
        <time>2013-03-03T11:14:15Z</time>
      </trkpt>
      <trkpt lat="43.67585" lon="3.4284">
        <ele>95.31</ele>
        <time>2013-03-03T11:14:18Z</time>
      </trkpt>
      <trkpt lat="43.67582" lon="3.42848">
        <ele>95.79</ele>
        <time>2013-03-03T11:14:24Z</time>
      </trkpt>
      <trkpt lat="43.6758" lon="3.42867">
        <ele>94.83</ele>
        <time>2013-03-03T11:14:37Z</time>
      </trkpt>
      <trkpt lat="43.67582" lon="3.42883">
        <ele>94.35</ele>
        <time>2013-03-03T11:14:47Z</time>
      </trkpt>
      <trkpt lat="43.6758" lon="3.42885">
        <ele>94.35</ele>
        <time>2013-03-03T11:14:49Z</time>
      </trkpt>
      <trkpt lat="43.67578" lon="3.42886">
        <ele>94.35</ele>
        <time>2013-03-03T11:14:51Z</time>
      </trkpt>
      <trkpt lat="43.67576" lon="3.42903">
        <ele>94.35</ele>
        <time>2013-03-03T11:15:06Z</time>
      </trkpt>
      <trkpt lat="43.67575" lon="3.42907">
        <ele>94.35</ele>
        <time>2013-03-03T11:15:22Z</time>
      </trkpt>
      <trkpt lat="43.67574" lon="3.42908">
        <ele>94.35</ele>
        <time>2013-03-03T11:15:37Z</time>
      </trkpt>
      <trkpt lat="43.67573" lon="3.42909">
        <ele>94.35</ele>
        <time>2013-03-03T11:15:52Z</time>
      </trkpt>
      <trkpt lat="43.67572" lon="3.42909">
        <ele>94.35</ele>
        <time>2013-03-03T11:16:09Z</time>
      </trkpt>
      <trkpt lat="43.67572" lon="3.4291">
        <ele>94.35</ele>
        <time>2013-03-03T11:16:25Z</time>
      </trkpt>
      <trkpt lat="43.67573" lon="3.42909">
        <ele>94.35</ele>
        <time>2013-03-03T11:16:47Z</time>
      </trkpt>
      <trkpt lat="43.67575" lon="3.42905">
        <ele>94.35</ele>
        <time>2013-03-03T11:16:52Z</time>
      </trkpt>
      <trkpt lat="43.67585" lon="3.42899">
        <ele>94.83</ele>
        <time>2013-03-03T11:17:03Z</time>
      </trkpt>
      <trkpt lat="43.676" lon="3.42896">
        <ele>95.31</ele>
        <time>2013-03-03T11:17:14Z</time>
      </trkpt>
      <trkpt lat="43.67605" lon="3.42895">
        <ele>96.27</ele>
        <time>2013-03-03T11:17:18Z</time>
      </trkpt>
      <trkpt lat="43.67611" lon="3.42892">
        <ele>97.71</ele>
        <time>2013-03-03T11:17:22Z</time>
      </trkpt>
      <trkpt lat="43.67614" lon="3.42891">
        <ele>99.15</ele>
        <time>2013-03-03T11:17:24Z</time>
      </trkpt>
      <trkpt lat="43.67618" lon="3.42887">
        <ele>100.11</ele>
        <time>2013-03-03T11:17:27Z</time>
      </trkpt>
      <trkpt lat="43.67623" lon="3.42882">
        <ele>101.08</ele>
        <time>2013-03-03T11:17:39Z</time>
      </trkpt>
      <trkpt lat="43.67622" lon="3.42883">
        <ele>101.08</ele>
        <time>2013-03-03T11:17:57Z</time>
      </trkpt>
      <trkpt lat="43.67621" lon="3.42883">
        <ele>100.6</ele>
        <time>2013-03-03T11:17:58Z</time>
      </trkpt>
      <trkpt lat="43.67617" lon="3.42886">
        <ele>100.6</ele>
        <time>2013-03-03T11:18:09Z</time>
      </trkpt>
      <trkpt lat="43.67615" lon="3.4289">
        <ele>100.11</ele>
        <time>2013-03-03T11:18:13Z</time>
      </trkpt>
      <trkpt lat="43.67605" lon="3.42893">
        <ele>96.27</ele>
        <time>2013-03-03T11:18:26Z</time>
      </trkpt>
      <trkpt lat="43.67594" lon="3.429">
        <ele>94.83</ele>
        <time>2013-03-03T11:18:36Z</time>
      </trkpt>
      <trkpt lat="43.67592" lon="3.429">
        <ele>94.35</ele>
        <time>2013-03-03T11:18:53Z</time>
      </trkpt>
      <trkpt lat="43.67592" lon="3.429">
        <ele>94.35</ele>
        <time>2013-03-03T11:18:58Z</time>
      </trkpt>
      <trkpt lat="43.67579" lon="3.42908">
        <ele>93.39</ele>
        <time>2013-03-03T11:19:12Z</time>
      </trkpt>
      <trkpt lat="43.67573" lon="3.42924">
        <ele>92.9</ele>
        <time>2013-03-03T11:19:26Z</time>
      </trkpt>
      <trkpt lat="43.67573" lon="3.42924">
        <ele>92.9</ele>
        <time>2013-03-03T11:19:30Z</time>
      </trkpt>
      <trkpt lat="43.67567" lon="3.42931">
        <ele>93.39</ele>
        <time>2013-03-03T11:19:39Z</time>
      </trkpt>
      <trkpt lat="43.67558" lon="3.42944">
        <ele>92.9</ele>
        <time>2013-03-03T11:19:52Z</time>
      </trkpt>
      <trkpt lat="43.67556" lon="3.42948">
        <ele>92.9</ele>
        <time>2013-03-03T11:19:56Z</time>
      </trkpt>
      <trkpt lat="43.6754" lon="3.42961">
        <ele>93.87</ele>
        <time>2013-03-03T11:20:12Z</time>
      </trkpt>
      <trkpt lat="43.67533" lon="3.4299">
        <ele>91.94</ele>
        <time>2013-03-03T11:20:31Z</time>
      </trkpt>
      <trkpt lat="43.67527" lon="3.43016">
        <ele>88.58</ele>
        <time>2013-03-03T11:20:48Z</time>
      </trkpt>
      <trkpt lat="43.67521" lon="3.43048">
        <ele>86.18</ele>
        <time>2013-03-03T11:21:07Z</time>
      </trkpt>
      <trkpt lat="43.67505" lon="3.43077">
        <ele>83.77</ele>
        <time>2013-03-03T11:21:27Z</time>
      </trkpt>
      <trkpt lat="43.67501" lon="3.43085">
        <ele>82.81</ele>
        <time>2013-03-03T11:21:33Z</time>
      </trkpt>
      <trkpt lat="43.67502" lon="3.43093">
        <ele>81.85</ele>
        <time>2013-03-03T11:21:39Z</time>
      </trkpt>
      <trkpt lat="43.67506" lon="3.43096">
        <ele>82.33</ele>
        <time>2013-03-03T11:21:43Z</time>
      </trkpt>
      <trkpt lat="43.67507" lon="3.43097">
        <ele>81.85</ele>
        <time>2013-03-03T11:21:45Z</time>
      </trkpt>
      <trkpt lat="43.6751" lon="3.43103">
        <ele>82.33</ele>
        <time>2013-03-03T11:21:52Z</time>
      </trkpt>
      <trkpt lat="43.67527" lon="3.4312">
        <ele>82.33</ele>
        <time>2013-03-03T11:22:09Z</time>
      </trkpt>
      <trkpt lat="43.67545" lon="3.43133">
        <ele>82.81</ele>
        <time>2013-03-03T11:22:25Z</time>
      </trkpt>
      <trkpt lat="43.67554" lon="3.43139">
        <ele>82.81</ele>
        <time>2013-03-03T11:22:32Z</time>
      </trkpt>
      <trkpt lat="43.6756" lon="3.43146">
        <ele>83.29</ele>
        <time>2013-03-03T11:22:38Z</time>
      </trkpt>
      <trkpt lat="43.67564" lon="3.43152">
        <ele>83.29</ele>
        <time>2013-03-03T11:22:42Z</time>
      </trkpt>
      <trkpt lat="43.67566" lon="3.43158">
        <ele>83.77</ele>
        <time>2013-03-03T11:22:46Z</time>
      </trkpt>
      <trkpt lat="43.67566" lon="3.43166">
        <ele>84.25</ele>
        <time>2013-03-03T11:22:53Z</time>
      </trkpt>
      <trkpt lat="43.67566" lon="3.43171">
        <ele>84.73</ele>
        <time>2013-03-03T11:22:57Z</time>
      </trkpt>
      <trkpt lat="43.67565" lon="3.43172">
        <ele>84.73</ele>
        <time>2013-03-03T11:23:12Z</time>
      </trkpt>
      <trkpt lat="43.67565" lon="3.4317">
        <ele>84.73</ele>
        <time>2013-03-03T11:23:32Z</time>
      </trkpt>
      <trkpt lat="43.67573" lon="3.43171">
        <ele>85.69</ele>
        <time>2013-03-03T11:23:43Z</time>
      </trkpt>
      <trkpt lat="43.67579" lon="3.4317">
        <ele>85.69</ele>
        <time>2013-03-03T11:23:57Z</time>
      </trkpt>
      <trkpt lat="43.67582" lon="3.4317">
        <ele>85.69</ele>
        <time>2013-03-03T11:24:08Z</time>
      </trkpt>
      <trkpt lat="43.67583" lon="3.43169">
        <ele>85.69</ele>
        <time>2013-03-03T11:24:22Z</time>
      </trkpt>
      <trkpt lat="43.67591" lon="3.43175">
        <ele>88.58</ele>
        <time>2013-03-03T11:24:37Z</time>
      </trkpt>
      <trkpt lat="43.67592" lon="3.43176">
        <ele>88.58</ele>
        <time>2013-03-03T11:24:38Z</time>
      </trkpt>
      <trkpt lat="43.67608" lon="3.43184">
        <ele>88.58</ele>
        <time>2013-03-03T11:24:54Z</time>
      </trkpt>
      <trkpt lat="43.6762" lon="3.43199">
        <ele>87.62</ele>
        <time>2013-03-03T11:25:11Z</time>
      </trkpt>
      <trkpt lat="43.67622" lon="3.432">
        <ele>87.62</ele>
        <time>2013-03-03T11:25:15Z</time>
      </trkpt>
      <trkpt lat="43.67627" lon="3.43202">
        <ele>88.58</ele>
        <time>2013-03-03T11:25:20Z</time>
      </trkpt>
      <trkpt lat="43.67639" lon="3.43206">
        <ele>88.58</ele>
        <time>2013-03-03T11:25:34Z</time>
      </trkpt>
      <trkpt lat="43.67641" lon="3.43206">
        <ele>88.58</ele>
        <time>2013-03-03T11:25:40Z</time>
      </trkpt>
      <trkpt lat="43.67654" lon="3.43214">
        <ele>90.5</ele>
        <time>2013-03-03T11:25:55Z</time>
      </trkpt>
      <trkpt lat="43.67657" lon="3.43214">
        <ele>91.46</ele>
        <time>2013-03-03T11:25:58Z</time>
      </trkpt>
      <trkpt lat="43.67662" lon="3.43212">
        <ele>91.46</ele>
        <time>2013-03-03T11:26:02Z</time>
      </trkpt>
      <trkpt lat="43.67682" lon="3.43223">
        <ele>91.94</ele>
        <time>2013-03-03T11:26:21Z</time>
      </trkpt>
      <trkpt lat="43.67688" lon="3.43233">
        <ele>92.42</ele>
        <time>2013-03-03T11:26:33Z</time>
      </trkpt>
      <trkpt lat="43.67691" lon="3.43231">
        <ele>91.94</ele>
        <time>2013-03-03T11:26:36Z</time>
      </trkpt>
      <trkpt lat="43.67712" lon="3.43227">
        <ele>92.9</ele>
        <time>2013-03-03T11:26:54Z</time>
      </trkpt>
      <trkpt lat="43.67729" lon="3.43239">
        <ele>93.39</ele>
        <time>2013-03-03T11:27:10Z</time>
      </trkpt>
      <trkpt lat="43.67736" lon="3.43244">
        <ele>93.39</ele>
        <time>2013-03-03T11:27:16Z</time>
      </trkpt>
      <trkpt lat="43.67747" lon="3.43247">
        <ele>93.39</ele>
        <time>2013-03-03T11:27:25Z</time>
      </trkpt>
      <trkpt lat="43.67757" lon="3.43258">
        <ele>93.39</ele>
        <time>2013-03-03T11:27:35Z</time>
      </trkpt>
      <trkpt lat="43.67775" lon="3.4328">
        <ele>94.35</ele>
        <time>2013-03-03T11:27:55Z</time>
      </trkpt>
      <trkpt lat="43.67777" lon="3.43282">
        <ele>93.87</ele>
        <time>2013-03-03T11:27:57Z</time>
      </trkpt>
      <trkpt lat="43.67789" lon="3.433">
        <ele>94.83</ele>
        <time>2013-03-03T11:28:13Z</time>
      </trkpt>
      <trkpt lat="43.67792" lon="3.43304">
        <ele>94.83</ele>
        <time>2013-03-03T11:28:18Z</time>
      </trkpt>
      <trkpt lat="43.67797" lon="3.43312">
        <ele>94.35</ele>
        <time>2013-03-03T11:28:25Z</time>
      </trkpt>
      <trkpt lat="43.67799" lon="3.43319">
        <ele>94.35</ele>
        <time>2013-03-03T11:28:30Z</time>
      </trkpt>
      <trkpt lat="43.67815" lon="3.43329">
        <ele>94.35</ele>
        <time>2013-03-03T11:28:48Z</time>
      </trkpt>
      <trkpt lat="43.67824" lon="3.43322">
        <ele>95.31</ele>
        <time>2013-03-03T11:29:02Z</time>
      </trkpt>
      <trkpt lat="43.67838" lon="3.4333">
        <ele>95.31</ele>
        <time>2013-03-03T11:29:17Z</time>
      </trkpt>
      <trkpt lat="43.67849" lon="3.43328">
        <ele>95.31</ele>
        <time>2013-03-03T11:29:29Z</time>
      </trkpt>
      <trkpt lat="43.67862" lon="3.43327">
        <ele>95.31</ele>
        <time>2013-03-03T11:29:45Z</time>
      </trkpt>
      <trkpt lat="43.67868" lon="3.43333">
        <ele>95.31</ele>
        <time>2013-03-03T11:29:58Z</time>
      </trkpt>
      <trkpt lat="43.67873" lon="3.43338">
        <ele>95.31</ele>
        <time>2013-03-03T11:30:11Z</time>
      </trkpt>
      <trkpt lat="43.6788" lon="3.43338">
        <ele>95.31</ele>
        <time>2013-03-03T11:30:22Z</time>
      </trkpt>
      <trkpt lat="43.67885" lon="3.43336">
        <ele>94.83</ele>
        <time>2013-03-03T11:30:29Z</time>
      </trkpt>
      <trkpt lat="43.67888" lon="3.43335">
        <ele>94.83</ele>
        <time>2013-03-03T11:30:35Z</time>
      </trkpt>
      <trkpt lat="43.67894" lon="3.43334">
        <ele>94.83</ele>
        <time>2013-03-03T11:30:41Z</time>
      </trkpt>
      <trkpt lat="43.67903" lon="3.43334">
        <ele>94.83</ele>
        <time>2013-03-03T11:30:59Z</time>
      </trkpt>
      <trkpt lat="43.67906" lon="3.43332">
        <ele>94.83</ele>
        <time>2013-03-03T11:31:15Z</time>
      </trkpt>
      <trkpt lat="43.67911" lon="3.43333">
        <ele>95.31</ele>
        <time>2013-03-03T11:31:34Z</time>
      </trkpt>
      <trkpt lat="43.67914" lon="3.43334">
        <ele>94.83</ele>
        <time>2013-03-03T11:31:49Z</time>
      </trkpt>
      <trkpt lat="43.67924" lon="3.43332">
        <ele>94.83</ele>
        <time>2013-03-03T11:32:02Z</time>
      </trkpt>
      <trkpt lat="43.67936" lon="3.43337">
        <ele>95.31</ele>
        <time>2013-03-03T11:32:16Z</time>
      </trkpt>
      <trkpt lat="43.67949" lon="3.43334">
        <ele>96.27</ele>
        <time>2013-03-03T11:32:29Z</time>
      </trkpt>
      <trkpt lat="43.6796" lon="3.43346">
        <ele>96.75</ele>
        <time>2013-03-03T11:32:42Z</time>
      </trkpt>
      <trkpt lat="43.67971" lon="3.43365">
        <ele>96.75</ele>
        <time>2013-03-03T11:32:58Z</time>
      </trkpt>
      <trkpt lat="43.6798" lon="3.43382">
        <ele>95.79</ele>
        <time>2013-03-03T11:33:11Z</time>
      </trkpt>
      <trkpt lat="43.67986" lon="3.43393">
        <ele>94.35</ele>
        <time>2013-03-03T11:33:24Z</time>
      </trkpt>
      <trkpt lat="43.67992" lon="3.43397">
        <ele>91.46</ele>
        <time>2013-03-03T11:33:37Z</time>
      </trkpt>
      <trkpt lat="43.67987" lon="3.43403">
        <ele>90.5</ele>
        <time>2013-03-03T11:33:43Z</time>
      </trkpt>
      <trkpt lat="43.67983" lon="3.43402">
        <ele>90.02</ele>
        <time>2013-03-03T11:33:46Z</time>
      </trkpt>
      <trkpt lat="43.67978" lon="3.434">
        <ele>90.5</ele>
        <time>2013-03-03T11:33:52Z</time>
      </trkpt>
      <trkpt lat="43.67964" lon="3.43404">
        <ele>90.5</ele>
        <time>2013-03-03T11:34:07Z</time>
      </trkpt>
      <trkpt lat="43.6796" lon="3.43404">
        <ele>90.5</ele>
        <time>2013-03-03T11:34:10Z</time>
      </trkpt>
      <trkpt lat="43.6795" lon="3.43418">
        <ele>90.98</ele>
        <time>2013-03-03T11:34:26Z</time>
      </trkpt>
      <trkpt lat="43.67948" lon="3.43416">
        <ele>90.98</ele>
        <time>2013-03-03T11:34:38Z</time>
      </trkpt>
      <trkpt lat="43.67949" lon="3.43425">
        <ele>90.5</ele>
        <time>2013-03-03T11:34:44Z</time>
      </trkpt>
      <trkpt lat="43.6795" lon="3.43433">
        <ele>90.98</ele>
        <time>2013-03-03T11:34:53Z</time>
      </trkpt>
      <trkpt lat="43.67944" lon="3.43449">
        <ele>90.98</ele>
        <time>2013-03-03T11:35:03Z</time>
      </trkpt>
      <trkpt lat="43.67946" lon="3.43452">
        <ele>90.98</ele>
        <time>2013-03-03T11:35:06Z</time>
      </trkpt>
      <trkpt lat="43.67948" lon="3.43456">
        <ele>90.98</ele>
        <time>2013-03-03T11:35:12Z</time>
      </trkpt>
      <trkpt lat="43.67953" lon="3.43469">
        <ele>90.98</ele>
        <time>2013-03-03T11:35:24Z</time>
      </trkpt>
      <trkpt lat="43.67967" lon="3.43482">
        <ele>90.98</ele>
        <time>2013-03-03T11:35:39Z</time>
      </trkpt>
      <trkpt lat="43.67985" lon="3.43503">
        <ele>90.98</ele>
        <time>2013-03-03T11:35:58Z</time>
      </trkpt>
      <trkpt lat="43.67987" lon="3.43506">
        <ele>90.98</ele>
        <time>2013-03-03T11:36:01Z</time>
      </trkpt>
      <trkpt lat="43.67989" lon="3.43512">
        <ele>90.98</ele>
        <time>2013-03-03T11:36:05Z</time>
      </trkpt>
      <trkpt lat="43.68003" lon="3.43529">
        <ele>90.98</ele>
        <time>2013-03-03T11:36:21Z</time>
      </trkpt>
      <trkpt lat="43.68009" lon="3.43544">
        <ele>90.98</ele>
        <time>2013-03-03T11:36:33Z</time>
      </trkpt>
      <trkpt lat="43.68026" lon="3.43563">
        <ele>90.98</ele>
        <time>2013-03-03T11:36:52Z</time>
      </trkpt>
      <trkpt lat="43.68041" lon="3.4358">
        <ele>91.46</ele>
        <time>2013-03-03T11:37:08Z</time>
      </trkpt>
      <trkpt lat="43.68044" lon="3.43586">
        <ele>91.46</ele>
        <time>2013-03-03T11:37:12Z</time>
      </trkpt>
      <trkpt lat="43.6805" lon="3.43591">
        <ele>91.46</ele>
        <time>2013-03-03T11:37:24Z</time>
      </trkpt>
      <trkpt lat="43.68055" lon="3.43602">
        <ele>91.46</ele>
        <time>2013-03-03T11:37:32Z</time>
      </trkpt>
      <trkpt lat="43.68059" lon="3.43605">
        <ele>91.46</ele>
        <time>2013-03-03T11:37:36Z</time>
      </trkpt>
      <trkpt lat="43.68076" lon="3.43621">
        <ele>91.46</ele>
        <time>2013-03-03T11:37:52Z</time>
      </trkpt>
      <trkpt lat="43.68087" lon="3.43638">
        <ele>91.46</ele>
        <time>2013-03-03T11:38:07Z</time>
      </trkpt>
      <trkpt lat="43.681" lon="3.43658">
        <ele>91.94</ele>
        <time>2013-03-03T11:38:23Z</time>
      </trkpt>
      <trkpt lat="43.68117" lon="3.43681">
        <ele>91.94</ele>
        <time>2013-03-03T11:38:42Z</time>
      </trkpt>
      <trkpt lat="43.68128" lon="3.43705">
        <ele>92.9</ele>
        <time>2013-03-03T11:38:59Z</time>
      </trkpt>
      <trkpt lat="43.68138" lon="3.43712">
        <ele>92.42</ele>
        <time>2013-03-03T11:39:08Z</time>
      </trkpt>
      <trkpt lat="43.68151" lon="3.43731">
        <ele>92.9</ele>
        <time>2013-03-03T11:39:24Z</time>
      </trkpt>
      <trkpt lat="43.68168" lon="3.43752">
        <ele>92.9</ele>
        <time>2013-03-03T11:39:42Z</time>
      </trkpt>
      <trkpt lat="43.68182" lon="3.43776">
        <ele>92.9</ele>
        <time>2013-03-03T11:40:00Z</time>
      </trkpt>
      <trkpt lat="43.68195" lon="3.43792">
        <ele>92.9</ele>
        <time>2013-03-03T11:40:13Z</time>
      </trkpt>
      <trkpt lat="43.68198" lon="3.43797">
        <ele>92.42</ele>
        <time>2013-03-03T11:40:17Z</time>
      </trkpt>
      <trkpt lat="43.68206" lon="3.43814">
        <ele>92.9</ele>
        <time>2013-03-03T11:40:28Z</time>
      </trkpt>
      <trkpt lat="43.68208" lon="3.43825">
        <ele>92.9</ele>
        <time>2013-03-03T11:40:41Z</time>
      </trkpt>
      <trkpt lat="43.68221" lon="3.43841">
        <ele>92.9</ele>
        <time>2013-03-03T11:40:57Z</time>
      </trkpt>
      <trkpt lat="43.68231" lon="3.43858">
        <ele>92.9</ele>
        <time>2013-03-03T11:41:11Z</time>
      </trkpt>
      <trkpt lat="43.68236" lon="3.43862">
        <ele>92.9</ele>
        <time>2013-03-03T11:41:15Z</time>
      </trkpt>
      <trkpt lat="43.68249" lon="3.43881">
        <ele>92.9</ele>
        <time>2013-03-03T11:41:32Z</time>
      </trkpt>
      <trkpt lat="43.68253" lon="3.43886">
        <ele>92.9</ele>
        <time>2013-03-03T11:41:37Z</time>
      </trkpt>
      <trkpt lat="43.68262" lon="3.4391">
        <ele>93.39</ele>
        <time>2013-03-03T11:41:53Z</time>
      </trkpt>
      <trkpt lat="43.68272" lon="3.43932">
        <ele>93.39</ele>
        <time>2013-03-03T11:42:08Z</time>
      </trkpt>
      <trkpt lat="43.68272" lon="3.43936">
        <ele>93.87</ele>
        <time>2013-03-03T11:42:23Z</time>
      </trkpt>
      <trkpt lat="43.68273" lon="3.43938">
        <ele>94.35</ele>
        <time>2013-03-03T11:42:37Z</time>
      </trkpt>
      <trkpt lat="43.68274" lon="3.43941">
        <ele>94.35</ele>
        <time>2013-03-03T11:42:40Z</time>
      </trkpt>
      <trkpt lat="43.68274" lon="3.43944">
        <ele>94.35</ele>
        <time>2013-03-03T11:42:42Z</time>
      </trkpt>
      <trkpt lat="43.68281" lon="3.43965">
        <ele>93.87</ele>
        <time>2013-03-03T11:42:57Z</time>
      </trkpt>
      <trkpt lat="43.68285" lon="3.43988">
        <ele>94.35</ele>
        <time>2013-03-03T11:43:12Z</time>
      </trkpt>
      <trkpt lat="43.68286" lon="3.43994">
        <ele>94.35</ele>
        <time>2013-03-03T11:43:16Z</time>
      </trkpt>
      <trkpt lat="43.68293" lon="3.44024">
        <ele>94.35</ele>
        <time>2013-03-03T11:43:35Z</time>
      </trkpt>
      <trkpt lat="43.68301" lon="3.44036">
        <ele>94.35</ele>
        <time>2013-03-03T11:43:46Z</time>
      </trkpt>
      <trkpt lat="43.68306" lon="3.44059">
        <ele>94.83</ele>
        <time>2013-03-03T11:44:03Z</time>
      </trkpt>
      <trkpt lat="43.68307" lon="3.44059">
        <ele>94.83</ele>
        <time>2013-03-03T11:44:04Z</time>
      </trkpt>
      <trkpt lat="43.68305" lon="3.44065">
        <ele>94.83</ele>
        <time>2013-03-03T11:44:18Z</time>
      </trkpt>
      <trkpt lat="43.68305" lon="3.44065">
        <ele>94.83</ele>
        <time>2013-03-03T11:44:20Z</time>
      </trkpt>
      <trkpt lat="43.68308" lon="3.4407">
        <ele>94.83</ele>
        <time>2013-03-03T11:44:25Z</time>
      </trkpt>
      <trkpt lat="43.68314" lon="3.44098">
        <ele>95.31</ele>
        <time>2013-03-03T11:44:43Z</time>
      </trkpt>
      <trkpt lat="43.68312" lon="3.44115">
        <ele>95.31</ele>
        <time>2013-03-03T11:44:54Z</time>
      </trkpt>
      <trkpt lat="43.68312" lon="3.44118">
        <ele>95.31</ele>
        <time>2013-03-03T11:44:56Z</time>
      </trkpt>
      <trkpt lat="43.68312" lon="3.44127">
        <ele>95.79</ele>
        <time>2013-03-03T11:45:02Z</time>
      </trkpt>
      <trkpt lat="43.6831" lon="3.44131">
        <ele>95.79</ele>
        <time>2013-03-03T11:45:15Z</time>
      </trkpt>
      <trkpt lat="43.6831" lon="3.44132">
        <ele>95.79</ele>
        <time>2013-03-03T11:45:21Z</time>
      </trkpt>
      <trkpt lat="43.68315" lon="3.44137">
        <ele>95.79</ele>
        <time>2013-03-03T11:45:26Z</time>
      </trkpt>
      <trkpt lat="43.6833" lon="3.44148">
        <ele>96.27</ele>
        <time>2013-03-03T11:45:40Z</time>
      </trkpt>
      <trkpt lat="43.68336" lon="3.44157">
        <ele>95.79</ele>
        <time>2013-03-03T11:45:48Z</time>
      </trkpt>
      <trkpt lat="43.68339" lon="3.44163">
        <ele>95.79</ele>
        <time>2013-03-03T11:45:52Z</time>
      </trkpt>
      <trkpt lat="43.68336" lon="3.44166">
        <ele>95.79</ele>
        <time>2013-03-03T11:46:07Z</time>
      </trkpt>
      <trkpt lat="43.68338" lon="3.44163">
        <ele>95.31</ele>
        <time>2013-03-03T11:46:29Z</time>
      </trkpt>
      <trkpt lat="43.6834" lon="3.44167">
        <ele>96.27</ele>
        <time>2013-03-03T11:46:47Z</time>
      </trkpt>
      <trkpt lat="43.68347" lon="3.44167">
        <ele>96.27</ele>
        <time>2013-03-03T11:46:52Z</time>
      </trkpt>
      <trkpt lat="43.68366" lon="3.44176">
        <ele>99.15</ele>
        <time>2013-03-03T11:47:10Z</time>
      </trkpt>
      <trkpt lat="43.68366" lon="3.44173">
        <ele>96.27</ele>
        <time>2013-03-03T11:47:26Z</time>
      </trkpt>
      <trkpt lat="43.68367" lon="3.44174">
        <ele>96.27</ele>
        <time>2013-03-03T11:47:29Z</time>
      </trkpt>
      <trkpt lat="43.68384" lon="3.44186">
        <ele>96.75</ele>
        <time>2013-03-03T11:47:44Z</time>
      </trkpt>
      <trkpt lat="43.68389" lon="3.44189">
        <ele>96.75</ele>
        <time>2013-03-03T11:47:58Z</time>
      </trkpt>
      <trkpt lat="43.68398" lon="3.44195">
        <ele>96.75</ele>
        <time>2013-03-03T11:48:08Z</time>
      </trkpt>
      <trkpt lat="43.68415" lon="3.44205">
        <ele>97.23</ele>
        <time>2013-03-03T11:48:23Z</time>
      </trkpt>
      <trkpt lat="43.68431" lon="3.44195">
        <ele>96.75</ele>
        <time>2013-03-03T11:48:38Z</time>
      </trkpt>
      <trkpt lat="43.68433" lon="3.44193">
        <ele>96.75</ele>
        <time>2013-03-03T11:48:40Z</time>
      </trkpt>
      <trkpt lat="43.68443" lon="3.44192">
        <ele>96.75</ele>
        <time>2013-03-03T11:48:48Z</time>
      </trkpt>
      <trkpt lat="43.68454" lon="3.44191">
        <ele>96.75</ele>
        <time>2013-03-03T11:48:57Z</time>
      </trkpt>
      <trkpt lat="43.68459" lon="3.4419">
        <ele>97.23</ele>
        <time>2013-03-03T11:49:02Z</time>
      </trkpt>
      <trkpt lat="43.68468" lon="3.44194">
        <ele>97.23</ele>
        <time>2013-03-03T11:49:10Z</time>
      </trkpt>
      <trkpt lat="43.68477" lon="3.44193">
        <ele>97.23</ele>
        <time>2013-03-03T11:49:24Z</time>
      </trkpt>
      <trkpt lat="43.68478" lon="3.44194">
        <ele>97.71</ele>
        <time>2013-03-03T11:49:44Z</time>
      </trkpt>
      <trkpt lat="43.68478" lon="3.44193">
        <ele>97.71</ele>
        <time>2013-03-03T11:50:01Z</time>
      </trkpt>
      <trkpt lat="43.68476" lon="3.44196">
        <ele>97.23</ele>
        <time>2013-03-03T11:50:14Z</time>
      </trkpt>
      <trkpt lat="43.68477" lon="3.44193">
        <ele>97.71</ele>
        <time>2013-03-03T11:50:27Z</time>
      </trkpt>
      <trkpt lat="43.68476" lon="3.44195">
        <ele>97.23</ele>
        <time>2013-03-03T11:50:38Z</time>
      </trkpt>
      <trkpt lat="43.68475" lon="3.44194">
        <ele>97.23</ele>
        <time>2013-03-03T11:50:55Z</time>
      </trkpt>
      <trkpt lat="43.68477" lon="3.44194">
        <ele>96.75</ele>
        <time>2013-03-03T11:51:16Z</time>
      </trkpt>
      <trkpt lat="43.68476" lon="3.44195">
        <ele>96.27</ele>
        <time>2013-03-03T11:51:44Z</time>
      </trkpt>
      <trkpt lat="43.68477" lon="3.44197">
        <ele>96.27</ele>
        <time>2013-03-03T11:52:16Z</time>
      </trkpt>
      <trkpt lat="43.68474" lon="3.44195">
        <ele>96.27</ele>
        <time>2013-03-03T11:52:40Z</time>
      </trkpt>
      <trkpt lat="43.68475" lon="3.4419">
        <ele>96.75</ele>
        <time>2013-03-03T11:53:05Z</time>
      </trkpt>
      <trkpt lat="43.68475" lon="3.4419">
        <ele>96.75</ele>
        <time>2013-03-03T11:53:38Z</time>
      </trkpt>
      <trkpt lat="43.68477" lon="3.44196">
        <ele>96.75</ele>
        <time>2013-03-03T11:54:05Z</time>
      </trkpt>
      <trkpt lat="43.68475" lon="3.44193">
        <ele>97.23</ele>
        <time>2013-03-03T11:54:39Z</time>
      </trkpt>
      <trkpt lat="43.68474" lon="3.44193">
        <ele>97.23</ele>
        <time>2013-03-03T11:55:20Z</time>
      </trkpt>
      <trkpt lat="43.68473" lon="3.4419">
        <ele>97.23</ele>
        <time>2013-03-03T11:55:52Z</time>
      </trkpt>
      <trkpt lat="43.68472" lon="3.4419">
        <ele>97.71</ele>
        <time>2013-03-03T11:56:22Z</time>
      </trkpt>
      <trkpt lat="43.68473" lon="3.44192">
        <ele>97.71</ele>
        <time>2013-03-03T11:56:56Z</time>
      </trkpt>
      <trkpt lat="43.68475" lon="3.44192">
        <ele>97.71</ele>
        <time>2013-03-03T11:57:27Z</time>
      </trkpt>
      <trkpt lat="43.68472" lon="3.4419">
        <ele>98.19</ele>
        <time>2013-03-03T11:57:56Z</time>
      </trkpt>
      <trkpt lat="43.68471" lon="3.4419">
        <ele>98.19</ele>
        <time>2013-03-03T11:58:27Z</time>
      </trkpt>
      <trkpt lat="43.68475" lon="3.44189">
        <ele>98.19</ele>
        <time>2013-03-03T11:58:56Z</time>
      </trkpt>
      <trkpt lat="43.68472" lon="3.4419">
        <ele>98.19</ele>
        <time>2013-03-03T11:59:22Z</time>
      </trkpt>
      <trkpt lat="43.6847" lon="3.44191">
        <ele>98.19</ele>
        <time>2013-03-03T11:59:53Z</time>
      </trkpt>
      <trkpt lat="43.68473" lon="3.44192">
        <ele>98.19</ele>
        <time>2013-03-03T12:00:31Z</time>
      </trkpt>
      <trkpt lat="43.68473" lon="3.44189">
        <ele>98.19</ele>
        <time>2013-03-03T12:01:09Z</time>
      </trkpt>
      <trkpt lat="43.68474" lon="3.44186">
        <ele>98.19</ele>
        <time>2013-03-03T12:01:39Z</time>
      </trkpt>
      <trkpt lat="43.68471" lon="3.44187">
        <ele>98.67</ele>
        <time>2013-03-03T12:02:15Z</time>
      </trkpt>
      <trkpt lat="43.68471" lon="3.44194">
        <ele>98.67</ele>
        <time>2013-03-03T12:02:53Z</time>
      </trkpt>
      <trkpt lat="43.68472" lon="3.44195">
        <ele>98.67</ele>
        <time>2013-03-03T12:03:21Z</time>
      </trkpt>
      <trkpt lat="43.68473" lon="3.44194">
        <ele>99.15</ele>
        <time>2013-03-03T12:03:51Z</time>
      </trkpt>
      <trkpt lat="43.6847" lon="3.44196">
        <ele>99.15</ele>
        <time>2013-03-03T12:04:25Z</time>
      </trkpt>
      <trkpt lat="43.68468" lon="3.44193">
        <ele>99.15</ele>
        <time>2013-03-03T12:04:57Z</time>
      </trkpt>
      <trkpt lat="43.6847" lon="3.44194">
        <ele>99.15</ele>
        <time>2013-03-03T12:05:28Z</time>
      </trkpt>
      <trkpt lat="43.68471" lon="3.44195">
        <ele>99.63</ele>
        <time>2013-03-03T12:06:02Z</time>
      </trkpt>
      <trkpt lat="43.68473" lon="3.44187">
        <ele>99.63</ele>
        <time>2013-03-03T12:06:31Z</time>
      </trkpt>
      <trkpt lat="43.68478" lon="3.44183">
        <ele>99.63</ele>
        <time>2013-03-03T12:07:04Z</time>
      </trkpt>
      <trkpt lat="43.68478" lon="3.44187">
        <ele>99.63</ele>
        <time>2013-03-03T12:07:36Z</time>
      </trkpt>
      <trkpt lat="43.68474" lon="3.44192">
        <ele>100.11</ele>
        <time>2013-03-03T12:08:08Z</time>
      </trkpt>
      <trkpt lat="43.68472" lon="3.44196">
        <ele>99.63</ele>
        <time>2013-03-03T12:08:45Z</time>
      </trkpt>
      <trkpt lat="43.68472" lon="3.44194">
        <ele>99.15</ele>
        <time>2013-03-03T12:09:21Z</time>
      </trkpt>
      <trkpt lat="43.68476" lon="3.44186">
        <ele>99.15</ele>
        <time>2013-03-03T12:09:53Z</time>
      </trkpt>
      <trkpt lat="43.68477" lon="3.44184">
        <ele>99.15</ele>
        <time>2013-03-03T12:10:21Z</time>
      </trkpt>
      <trkpt lat="43.68478" lon="3.44184">
        <ele>99.15</ele>
        <time>2013-03-03T12:10:49Z</time>
      </trkpt>
      <trkpt lat="43.68479" lon="3.44183">
        <ele>99.15</ele>
        <time>2013-03-03T12:11:23Z</time>
      </trkpt>
      <trkpt lat="43.68479" lon="3.44184">
        <ele>99.15</ele>
        <time>2013-03-03T12:11:57Z</time>
      </trkpt>
      <trkpt lat="43.6848" lon="3.44182">
        <ele>99.15</ele>
        <time>2013-03-03T12:12:31Z</time>
      </trkpt>
      <trkpt lat="43.68477" lon="3.44186">
        <ele>99.15</ele>
        <time>2013-03-03T12:13:03Z</time>
      </trkpt>
      <trkpt lat="43.68477" lon="3.44186">
        <ele>99.15</ele>
        <time>2013-03-03T12:13:37Z</time>
      </trkpt>
      <trkpt lat="43.68476" lon="3.44188">
        <ele>99.15</ele>
        <time>2013-03-03T12:14:13Z</time>
      </trkpt>
      <trkpt lat="43.68476" lon="3.44188">
        <ele>98.67</ele>
        <time>2013-03-03T12:14:47Z</time>
      </trkpt>
      <trkpt lat="43.68474" lon="3.4419">
        <ele>98.67</ele>
        <time>2013-03-03T12:15:22Z</time>
      </trkpt>
      <trkpt lat="43.68478" lon="3.44186">
        <ele>99.15</ele>
        <time>2013-03-03T12:15:58Z</time>
      </trkpt>
      <trkpt lat="43.68479" lon="3.44184">
        <ele>99.15</ele>
        <time>2013-03-03T12:16:32Z</time>
      </trkpt>
      <trkpt lat="43.6848" lon="3.44179">
        <ele>98.67</ele>
        <time>2013-03-03T12:17:02Z</time>
      </trkpt>
      <trkpt lat="43.68478" lon="3.44186">
        <ele>98.67</ele>
        <time>2013-03-03T12:17:36Z</time>
      </trkpt>
      <trkpt lat="43.68474" lon="3.4419">
        <ele>98.67</ele>
        <time>2013-03-03T12:18:14Z</time>
      </trkpt>
      <trkpt lat="43.68475" lon="3.4419">
        <ele>98.67</ele>
        <time>2013-03-03T12:18:50Z</time>
      </trkpt>
      <trkpt lat="43.68475" lon="3.44189">
        <ele>98.67</ele>
        <time>2013-03-03T12:19:24Z</time>
      </trkpt>
      <trkpt lat="43.68474" lon="3.44191">
        <ele>98.67</ele>
        <time>2013-03-03T12:20:06Z</time>
      </trkpt>
      <trkpt lat="43.68475" lon="3.4419">
        <ele>98.67</ele>
        <time>2013-03-03T12:20:40Z</time>
      </trkpt>
      <trkpt lat="43.68476" lon="3.44188">
        <ele>99.15</ele>
        <time>2013-03-03T12:21:21Z</time>
      </trkpt>
      <trkpt lat="43.68475" lon="3.44192">
        <ele>99.63</ele>
        <time>2013-03-03T12:21:56Z</time>
      </trkpt>
      <trkpt lat="43.68476" lon="3.4419">
        <ele>99.15</ele>
        <time>2013-03-03T12:22:28Z</time>
      </trkpt>
      <trkpt lat="43.68476" lon="3.44186">
        <ele>99.15</ele>
        <time>2013-03-03T12:23:04Z</time>
      </trkpt>
      <trkpt lat="43.68477" lon="3.44185">
        <ele>99.15</ele>
        <time>2013-03-03T12:23:31Z</time>
      </trkpt>
      <trkpt lat="43.68477" lon="3.44186">
        <ele>98.67</ele>
        <time>2013-03-03T12:24:02Z</time>
      </trkpt>
      <trkpt lat="43.68479" lon="3.44184">
        <ele>99.15</ele>
        <time>2013-03-03T12:24:29Z</time>
      </trkpt>
      <trkpt lat="43.68478" lon="3.44185">
        <ele>99.63</ele>
        <time>2013-03-03T12:25:00Z</time>
      </trkpt>
      <trkpt lat="43.68476" lon="3.44188">
        <ele>99.63</ele>
        <time>2013-03-03T12:25:27Z</time>
      </trkpt>
      <trkpt lat="43.68472" lon="3.44194">
        <ele>99.63</ele>
        <time>2013-03-03T12:25:59Z</time>
      </trkpt>
      <trkpt lat="43.68475" lon="3.44191">
        <ele>99.63</ele>
        <time>2013-03-03T12:26:37Z</time>
      </trkpt>
      <trkpt lat="43.68473" lon="3.4419">
        <ele>99.15</ele>
        <time>2013-03-03T12:27:05Z</time>
      </trkpt>
      <trkpt lat="43.68473" lon="3.44193">
        <ele>99.63</ele>
        <time>2013-03-03T12:27:35Z</time>
      </trkpt>
      <trkpt lat="43.68471" lon="3.44196">
        <ele>99.63</ele>
        <time>2013-03-03T12:28:10Z</time>
      </trkpt>
      <trkpt lat="43.6847" lon="3.44197">
        <ele>99.63</ele>
        <time>2013-03-03T12:28:46Z</time>
      </trkpt>
      <trkpt lat="43.68472" lon="3.44196">
        <ele>99.63</ele>
        <time>2013-03-03T12:29:17Z</time>
      </trkpt>
      <trkpt lat="43.68473" lon="3.44197">
        <ele>99.63</ele>
        <time>2013-03-03T12:29:50Z</time>
      </trkpt>
      <trkpt lat="43.6847" lon="3.44198">
        <ele>99.63</ele>
        <time>2013-03-03T12:30:22Z</time>
      </trkpt>
      <trkpt lat="43.68471" lon="3.44196">
        <ele>99.63</ele>
        <time>2013-03-03T12:30:51Z</time>
      </trkpt>
      <trkpt lat="43.6847" lon="3.44195">
        <ele>99.63</ele>
        <time>2013-03-03T12:31:17Z</time>
      </trkpt>
      <trkpt lat="43.68475" lon="3.44189">
        <ele>100.11</ele>
        <time>2013-03-03T12:31:38Z</time>
      </trkpt>
      <trkpt lat="43.68474" lon="3.44191">
        <ele>100.11</ele>
        <time>2013-03-03T12:32:10Z</time>
      </trkpt>
      <trkpt lat="43.68472" lon="3.44191">
        <ele>100.11</ele>
        <time>2013-03-03T12:32:40Z</time>
      </trkpt>
      <trkpt lat="43.68473" lon="3.44191">
        <ele>99.63</ele>
        <time>2013-03-03T12:33:06Z</time>
      </trkpt>
      <trkpt lat="43.68473" lon="3.44191">
        <ele>99.63</ele>
        <time>2013-03-03T12:33:22Z</time>
      </trkpt>
      <trkpt lat="43.68474" lon="3.44191">
        <ele>99.63</ele>
        <time>2013-03-03T12:33:47Z</time>
      </trkpt>
      <trkpt lat="43.68475" lon="3.4419">
        <ele>99.15</ele>
        <time>2013-03-03T12:34:20Z</time>
      </trkpt>
      <trkpt lat="43.68474" lon="3.4419">
        <ele>98.67</ele>
        <time>2013-03-03T12:34:42Z</time>
      </trkpt>
      <trkpt lat="43.68474" lon="3.4419">
        <ele>99.15</ele>
        <time>2013-03-03T12:35:07Z</time>
      </trkpt>
      <trkpt lat="43.68473" lon="3.4419">
        <ele>99.15</ele>
        <time>2013-03-03T12:35:36Z</time>
      </trkpt>
      <trkpt lat="43.68473" lon="3.4419">
        <ele>98.67</ele>
        <time>2013-03-03T12:36:12Z</time>
      </trkpt>
      <trkpt lat="43.68474" lon="3.4419">
        <ele>98.19</ele>
        <time>2013-03-03T12:36:42Z</time>
      </trkpt>
      <trkpt lat="43.68473" lon="3.4419">
        <ele>97.71</ele>
        <time>2013-03-03T12:37:10Z</time>
      </trkpt>
      <trkpt lat="43.68473" lon="3.4419">
        <ele>97.71</ele>
        <time>2013-03-03T12:37:38Z</time>
      </trkpt>
      <trkpt lat="43.68472" lon="3.44191">
        <ele>97.71</ele>
        <time>2013-03-03T12:38:11Z</time>
      </trkpt>
      <trkpt lat="43.68474" lon="3.4419">
        <ele>97.71</ele>
        <time>2013-03-03T12:38:46Z</time>
      </trkpt>
      <trkpt lat="43.68473" lon="3.44191">
        <ele>97.23</ele>
        <time>2013-03-03T12:39:24Z</time>
      </trkpt>
      <trkpt lat="43.68473" lon="3.4419">
        <ele>97.71</ele>
        <time>2013-03-03T12:39:49Z</time>
      </trkpt>
      <trkpt lat="43.68473" lon="3.4419">
        <ele>97.71</ele>
        <time>2013-03-03T12:40:27Z</time>
      </trkpt>
      <trkpt lat="43.68473" lon="3.4419">
        <ele>97.71</ele>
        <time>2013-03-03T12:40:51Z</time>
      </trkpt>
      <trkpt lat="43.68473" lon="3.4419">
        <ele>97.71</ele>
        <time>2013-03-03T12:41:19Z</time>
      </trkpt>
      <trkpt lat="43.68472" lon="3.44191">
        <ele>97.71</ele>
        <time>2013-03-03T12:41:47Z</time>
      </trkpt>
      <trkpt lat="43.68473" lon="3.44191">
        <ele>97.23</ele>
        <time>2013-03-03T12:42:09Z</time>
      </trkpt>
      <trkpt lat="43.68472" lon="3.44191">
        <ele>97.23</ele>
        <time>2013-03-03T12:42:37Z</time>
      </trkpt>
      <trkpt lat="43.68473" lon="3.44191">
        <ele>97.23</ele>
        <time>2013-03-03T12:43:02Z</time>
      </trkpt>
      <trkpt lat="43.68474" lon="3.4419">
        <ele>97.23</ele>
        <time>2013-03-03T12:43:43Z</time>
      </trkpt>
      <trkpt lat="43.68473" lon="3.4419">
        <ele>97.23</ele>
        <time>2013-03-03T12:44:16Z</time>
      </trkpt>
      <trkpt lat="43.68474" lon="3.44191">
        <ele>96.75</ele>
        <time>2013-03-03T12:44:52Z</time>
      </trkpt>
      <trkpt lat="43.68473" lon="3.4419">
        <ele>97.23</ele>
        <time>2013-03-03T12:45:22Z</time>
      </trkpt>
      <trkpt lat="43.68473" lon="3.4419">
        <ele>97.23</ele>
        <time>2013-03-03T12:45:50Z</time>
      </trkpt>
      <trkpt lat="43.68473" lon="3.4419">
        <ele>98.19</ele>
        <time>2013-03-03T12:46:11Z</time>
      </trkpt>
      <trkpt lat="43.68473" lon="3.4419">
        <ele>97.71</ele>
        <time>2013-03-03T12:46:24Z</time>
      </trkpt>
      <trkpt lat="43.68474" lon="3.44191">
        <ele>98.19</ele>
        <time>2013-03-03T12:46:39Z</time>
      </trkpt>
      <trkpt lat="43.6848" lon="3.44196">
        <ele>97.71</ele>
        <time>2013-03-03T12:46:50Z</time>
      </trkpt>
      <trkpt lat="43.68492" lon="3.44202">
        <ele>98.19</ele>
        <time>2013-03-03T12:47:02Z</time>
      </trkpt>
      <trkpt lat="43.68514" lon="3.44219">
        <ele>98.19</ele>
        <time>2013-03-03T12:47:22Z</time>
      </trkpt>
      <trkpt lat="43.6853" lon="3.44228">
        <ele>98.19</ele>
        <time>2013-03-03T12:47:36Z</time>
      </trkpt>
      <trkpt lat="43.68552" lon="3.44231">
        <ele>98.67</ele>
        <time>2013-03-03T12:47:56Z</time>
      </trkpt>
      <trkpt lat="43.68566" lon="3.44234">
        <ele>98.67</ele>
        <time>2013-03-03T12:48:08Z</time>
      </trkpt>
      <trkpt lat="43.68581" lon="3.44238">
        <ele>99.15</ele>
        <time>2013-03-03T12:48:26Z</time>
      </trkpt>
      <trkpt lat="43.68582" lon="3.44237">
        <ele>99.15</ele>
        <time>2013-03-03T12:48:27Z</time>
      </trkpt>
      <trkpt lat="43.68584" lon="3.44235">
        <ele>98.67</ele>
        <time>2013-03-03T12:48:29Z</time>
      </trkpt>
      <trkpt lat="43.68607" lon="3.44235">
        <ele>98.67</ele>
        <time>2013-03-03T12:48:49Z</time>
      </trkpt>
      <trkpt lat="43.6861" lon="3.44236">
        <ele>99.15</ele>
        <time>2013-03-03T12:48:52Z</time>
      </trkpt>
      <trkpt lat="43.68632" lon="3.44256">
        <ele>99.63</ele>
        <time>2013-03-03T12:49:12Z</time>
      </trkpt>
      <trkpt lat="43.68649" lon="3.44274">
        <ele>99.15</ele>
        <time>2013-03-03T12:49:30Z</time>
      </trkpt>
      <trkpt lat="43.6865" lon="3.44275">
        <ele>99.63</ele>
        <time>2013-03-03T12:49:31Z</time>
      </trkpt>
      <trkpt lat="43.68673" lon="3.44295">
        <ele>100.11</ele>
        <time>2013-03-03T12:49:50Z</time>
      </trkpt>
      <trkpt lat="43.687" lon="3.44306">
        <ele>100.6</ele>
        <time>2013-03-03T12:50:11Z</time>
      </trkpt>
      <trkpt lat="43.68708" lon="3.44308">
        <ele>100.6</ele>
        <time>2013-03-03T12:50:17Z</time>
      </trkpt>
      <trkpt lat="43.68733" lon="3.44303">
        <ele>100.6</ele>
        <time>2013-03-03T12:50:37Z</time>
      </trkpt>
      <trkpt lat="43.68758" lon="3.44311">
        <ele>101.08</ele>
        <time>2013-03-03T12:50:57Z</time>
      </trkpt>
      <trkpt lat="43.68771" lon="3.44321">
        <ele>101.56</ele>
        <time>2013-03-03T12:51:09Z</time>
      </trkpt>
      <trkpt lat="43.68796" lon="3.44339">
        <ele>101.56</ele>
        <time>2013-03-03T12:51:28Z</time>
      </trkpt>
      <trkpt lat="43.68798" lon="3.44338">
        <ele>101.56</ele>
        <time>2013-03-03T12:51:30Z</time>
      </trkpt>
      <trkpt lat="43.68811" lon="3.44342">
        <ele>102.04</ele>
        <time>2013-03-03T12:51:40Z</time>
      </trkpt>
      <trkpt lat="43.68831" lon="3.44351">
        <ele>102.52</ele>
        <time>2013-03-03T12:51:57Z</time>
      </trkpt>
      <trkpt lat="43.68855" lon="3.44355">
        <ele>103</ele>
        <time>2013-03-03T12:52:12Z</time>
      </trkpt>
      <trkpt lat="43.68877" lon="3.44357">
        <ele>103.48</ele>
        <time>2013-03-03T12:52:31Z</time>
      </trkpt>
      <trkpt lat="43.68883" lon="3.44358">
        <ele>103.48</ele>
        <time>2013-03-03T12:52:36Z</time>
      </trkpt>
      <trkpt lat="43.68892" lon="3.4436">
        <ele>103.96</ele>
        <time>2013-03-03T12:52:42Z</time>
      </trkpt>
      <trkpt lat="43.68899" lon="3.44365">
        <ele>103.96</ele>
        <time>2013-03-03T12:52:47Z</time>
      </trkpt>
      <trkpt lat="43.68916" lon="3.44376">
        <ele>104.92</ele>
        <time>2013-03-03T12:53:02Z</time>
      </trkpt>
      <trkpt lat="43.68938" lon="3.44376">
        <ele>104.92</ele>
        <time>2013-03-03T12:53:18Z</time>
      </trkpt>
      <trkpt lat="43.68947" lon="3.44374">
        <ele>104.92</ele>
        <time>2013-03-03T12:53:25Z</time>
      </trkpt>
      <trkpt lat="43.68967" lon="3.44363">
        <ele>105.4</ele>
        <time>2013-03-03T12:53:40Z</time>
      </trkpt>
      <trkpt lat="43.68989" lon="3.44361">
        <ele>104.92</ele>
        <time>2013-03-03T12:53:57Z</time>
      </trkpt>
      <trkpt lat="43.69011" lon="3.44381">
        <ele>106.84</ele>
        <time>2013-03-03T12:54:15Z</time>
      </trkpt>
      <trkpt lat="43.69029" lon="3.44407">
        <ele>107.32</ele>
        <time>2013-03-03T12:54:33Z</time>
      </trkpt>
      <trkpt lat="43.69043" lon="3.44428">
        <ele>107.32</ele>
        <time>2013-03-03T12:54:46Z</time>
      </trkpt>
      <trkpt lat="43.69061" lon="3.44456">
        <ele>107.81</ele>
        <time>2013-03-03T12:55:03Z</time>
      </trkpt>
      <trkpt lat="43.69082" lon="3.44486">
        <ele>107.81</ele>
        <time>2013-03-03T12:55:22Z</time>
      </trkpt>
      <trkpt lat="43.69101" lon="3.44512">
        <ele>107.81</ele>
        <time>2013-03-03T12:55:39Z</time>
      </trkpt>
      <trkpt lat="43.69106" lon="3.44516">
        <ele>107.81</ele>
        <time>2013-03-03T12:55:43Z</time>
      </trkpt>
      <trkpt lat="43.69131" lon="3.44531">
        <ele>108.77</ele>
        <time>2013-03-03T12:55:59Z</time>
      </trkpt>
      <trkpt lat="43.6915" lon="3.44542">
        <ele>109.73</ele>
        <time>2013-03-03T12:56:12Z</time>
      </trkpt>
      <trkpt lat="43.69161" lon="3.44556">
        <ele>110.21</ele>
        <time>2013-03-03T12:56:27Z</time>
      </trkpt>
      <trkpt lat="43.69175" lon="3.44562">
        <ele>110.69</ele>
        <time>2013-03-03T12:56:42Z</time>
      </trkpt>
      <trkpt lat="43.69188" lon="3.44565">
        <ele>111.65</ele>
        <time>2013-03-03T12:56:57Z</time>
      </trkpt>
      <trkpt lat="43.69197" lon="3.44564">
        <ele>110.69</ele>
        <time>2013-03-03T12:57:14Z</time>
      </trkpt>
      <trkpt lat="43.69207" lon="3.44561">
        <ele>110.69</ele>
        <time>2013-03-03T12:57:30Z</time>
      </trkpt>
      <trkpt lat="43.69217" lon="3.44574">
        <ele>112.13</ele>
        <time>2013-03-03T12:57:48Z</time>
      </trkpt>
      <trkpt lat="43.69225" lon="3.44594">
        <ele>111.65</ele>
        <time>2013-03-03T12:58:10Z</time>
      </trkpt>
      <trkpt lat="43.69226" lon="3.44596">
        <ele>111.65</ele>
        <time>2013-03-03T12:58:11Z</time>
      </trkpt>
      <trkpt lat="43.69231" lon="3.44616">
        <ele>113.09</ele>
        <time>2013-03-03T12:58:31Z</time>
      </trkpt>
      <trkpt lat="43.6925" lon="3.44627">
        <ele>113.57</ele>
        <time>2013-03-03T12:58:50Z</time>
      </trkpt>
      <trkpt lat="43.69251" lon="3.44628">
        <ele>113.57</ele>
        <time>2013-03-03T12:58:51Z</time>
      </trkpt>
      <trkpt lat="43.69265" lon="3.4464">
        <ele>114.05</ele>
        <time>2013-03-03T12:59:10Z</time>
      </trkpt>
      <trkpt lat="43.69263" lon="3.44672">
        <ele>114.05</ele>
        <time>2013-03-03T12:59:32Z</time>
      </trkpt>
      <trkpt lat="43.69265" lon="3.44693">
        <ele>115.01</ele>
        <time>2013-03-03T12:59:50Z</time>
      </trkpt>
      <trkpt lat="43.69272" lon="3.44709">
        <ele>115.98</ele>
        <time>2013-03-03T13:00:10Z</time>
      </trkpt>
      <trkpt lat="43.69276" lon="3.4471">
        <ele>115.98</ele>
        <time>2013-03-03T13:00:24Z</time>
      </trkpt>
      <trkpt lat="43.69285" lon="3.44718">
        <ele>118.86</ele>
        <time>2013-03-03T13:00:42Z</time>
      </trkpt>
      <trkpt lat="43.69288" lon="3.44736">
        <ele>118.38</ele>
        <time>2013-03-03T13:01:01Z</time>
      </trkpt>
      <trkpt lat="43.69302" lon="3.44753">
        <ele>118.38</ele>
        <time>2013-03-03T13:01:18Z</time>
      </trkpt>
      <trkpt lat="43.69325" lon="3.44786">
        <ele>119.82</ele>
        <time>2013-03-03T13:01:41Z</time>
      </trkpt>
      <trkpt lat="43.69329" lon="3.44791">
        <ele>119.82</ele>
        <time>2013-03-03T13:01:45Z</time>
      </trkpt>
      <trkpt lat="43.69343" lon="3.44819">
        <ele>119.82</ele>
        <time>2013-03-03T13:02:08Z</time>
      </trkpt>
      <trkpt lat="43.6935" lon="3.44828">
        <ele>120.78</ele>
        <time>2013-03-03T13:02:26Z</time>
      </trkpt>
      <trkpt lat="43.69353" lon="3.44836">
        <ele>123.67</ele>
        <time>2013-03-03T13:02:38Z</time>
      </trkpt>
      <trkpt lat="43.6936" lon="3.44862">
        <ele>126.55</ele>
        <time>2013-03-03T13:02:59Z</time>
      </trkpt>
      <trkpt lat="43.6936" lon="3.44879">
        <ele>126.55</ele>
        <time>2013-03-03T13:03:16Z</time>
      </trkpt>
      <trkpt lat="43.6936" lon="3.4488">
        <ele>126.07</ele>
        <time>2013-03-03T13:03:17Z</time>
      </trkpt>
      <trkpt lat="43.69359" lon="3.44892">
        <ele>127.51</ele>
        <time>2013-03-03T13:03:24Z</time>
      </trkpt>
      <trkpt lat="43.69355" lon="3.44906">
        <ele>129.92</ele>
        <time>2013-03-03T13:03:36Z</time>
      </trkpt>
      <trkpt lat="43.69354" lon="3.44933">
        <ele>131.36</ele>
        <time>2013-03-03T13:03:55Z</time>
      </trkpt>
      <trkpt lat="43.69353" lon="3.44939">
        <ele>131.84</ele>
        <time>2013-03-03T13:04:05Z</time>
      </trkpt>
      <trkpt lat="43.6936" lon="3.44971">
        <ele>132.8</ele>
        <time>2013-03-03T13:04:25Z</time>
      </trkpt>
      <trkpt lat="43.69368" lon="3.45">
        <ele>133.76</ele>
        <time>2013-03-03T13:04:44Z</time>
      </trkpt>
      <trkpt lat="43.69374" lon="3.45019">
        <ele>136.64</ele>
        <time>2013-03-03T13:04:58Z</time>
      </trkpt>
      <trkpt lat="43.69375" lon="3.45035">
        <ele>138.57</ele>
        <time>2013-03-03T13:05:14Z</time>
      </trkpt>
      <trkpt lat="43.6937" lon="3.45057">
        <ele>140.97</ele>
        <time>2013-03-03T13:05:27Z</time>
      </trkpt>
      <trkpt lat="43.69374" lon="3.45095">
        <ele>137.61</ele>
        <time>2013-03-03T13:05:48Z</time>
      </trkpt>
      <trkpt lat="43.69379" lon="3.45121">
        <ele>140.97</ele>
        <time>2013-03-03T13:06:05Z</time>
      </trkpt>
      <trkpt lat="43.69387" lon="3.45147">
        <ele>140.97</ele>
        <time>2013-03-03T13:06:23Z</time>
      </trkpt>
      <trkpt lat="43.69386" lon="3.45159">
        <ele>143.85</ele>
        <time>2013-03-03T13:06:32Z</time>
      </trkpt>
      <trkpt lat="43.69387" lon="3.45187">
        <ele>147.22</ele>
        <time>2013-03-03T13:06:51Z</time>
      </trkpt>
      <trkpt lat="43.69382" lon="3.45199">
        <ele>150.1</ele>
        <time>2013-03-03T13:07:03Z</time>
      </trkpt>
      <trkpt lat="43.69384" lon="3.45202">
        <ele>150.1</ele>
        <time>2013-03-03T13:07:06Z</time>
      </trkpt>
      <trkpt lat="43.69394" lon="3.45226">
        <ele>149.62</ele>
        <time>2013-03-03T13:07:22Z</time>
      </trkpt>
      <trkpt lat="43.69403" lon="3.45234">
        <ele>150.1</ele>
        <time>2013-03-03T13:07:30Z</time>
      </trkpt>
      <trkpt lat="43.69399" lon="3.45251">
        <ele>152.51</ele>
        <time>2013-03-03T13:07:48Z</time>
      </trkpt>
      <trkpt lat="43.69386" lon="3.45262">
        <ele>155.87</ele>
        <time>2013-03-03T13:08:03Z</time>
      </trkpt>
      <trkpt lat="43.69386" lon="3.45263">
        <ele>155.39</ele>
        <time>2013-03-03T13:08:04Z</time>
      </trkpt>
      <trkpt lat="43.69377" lon="3.45277">
        <ele>157.31</ele>
        <time>2013-03-03T13:08:16Z</time>
      </trkpt>
      <trkpt lat="43.69376" lon="3.4532">
        <ele>158.75</ele>
        <time>2013-03-03T13:08:40Z</time>
      </trkpt>
      <trkpt lat="43.69373" lon="3.45342">
        <ele>160.68</ele>
        <time>2013-03-03T13:08:55Z</time>
      </trkpt>
      <trkpt lat="43.69366" lon="3.45377">
        <ele>163.08</ele>
        <time>2013-03-03T13:09:15Z</time>
      </trkpt>
      <trkpt lat="43.69359" lon="3.45411">
        <ele>165.96</ele>
        <time>2013-03-03T13:09:35Z</time>
      </trkpt>
      <trkpt lat="43.69356" lon="3.45441">
        <ele>167.41</ele>
        <time>2013-03-03T13:09:53Z</time>
      </trkpt>
      <trkpt lat="43.69357" lon="3.45466">
        <ele>170.77</ele>
        <time>2013-03-03T13:10:10Z</time>
      </trkpt>
      <trkpt lat="43.69358" lon="3.45474">
        <ele>171.25</ele>
        <time>2013-03-03T13:10:18Z</time>
      </trkpt>
      <trkpt lat="43.69365" lon="3.45497">
        <ele>174.62</ele>
        <time>2013-03-03T13:10:35Z</time>
      </trkpt>
      <trkpt lat="43.69369" lon="3.45518">
        <ele>177.5</ele>
        <time>2013-03-03T13:10:53Z</time>
      </trkpt>
      <trkpt lat="43.69378" lon="3.45541">
        <ele>180.87</ele>
        <time>2013-03-03T13:11:14Z</time>
      </trkpt>
      <trkpt lat="43.69398" lon="3.4556">
        <ele>183.75</ele>
        <time>2013-03-03T13:11:37Z</time>
      </trkpt>
      <trkpt lat="43.69402" lon="3.45572">
        <ele>184.71</ele>
        <time>2013-03-03T13:11:47Z</time>
      </trkpt>
      <trkpt lat="43.69399" lon="3.45571">
        <ele>184.71</ele>
        <time>2013-03-03T13:11:50Z</time>
      </trkpt>
      <trkpt lat="43.69389" lon="3.45568">
        <ele>186.63</ele>
        <time>2013-03-03T13:12:01Z</time>
      </trkpt>
      <trkpt lat="43.69372" lon="3.45568">
        <ele>188.08</ele>
        <time>2013-03-03T13:12:18Z</time>
      </trkpt>
      <trkpt lat="43.69361" lon="3.45577">
        <ele>191.44</ele>
        <time>2013-03-03T13:12:37Z</time>
      </trkpt>
      <trkpt lat="43.69353" lon="3.4559">
        <ele>194.32</ele>
        <time>2013-03-03T13:12:52Z</time>
      </trkpt>
      <trkpt lat="43.69336" lon="3.45602">
        <ele>197.21</ele>
        <time>2013-03-03T13:13:09Z</time>
      </trkpt>
      <trkpt lat="43.6932" lon="3.45609">
        <ele>200.09</ele>
        <time>2013-03-03T13:13:26Z</time>
      </trkpt>
      <trkpt lat="43.69317" lon="3.45629">
        <ele>202.98</ele>
        <time>2013-03-03T13:13:44Z</time>
      </trkpt>
      <trkpt lat="43.69334" lon="3.45637">
        <ele>204.9</ele>
        <time>2013-03-03T13:14:03Z</time>
      </trkpt>
      <trkpt lat="43.69343" lon="3.45637">
        <ele>205.86</ele>
        <time>2013-03-03T13:14:12Z</time>
      </trkpt>
      <trkpt lat="43.69373" lon="3.45634">
        <ele>207.78</ele>
        <time>2013-03-03T13:14:37Z</time>
      </trkpt>
      <trkpt lat="43.69393" lon="3.45628">
        <ele>211.15</ele>
        <time>2013-03-03T13:14:54Z</time>
      </trkpt>
      <trkpt lat="43.69405" lon="3.45642">
        <ele>213.07</ele>
        <time>2013-03-03T13:15:11Z</time>
      </trkpt>
      <trkpt lat="43.69397" lon="3.45654">
        <ele>216.43</ele>
        <time>2013-03-03T13:15:27Z</time>
      </trkpt>
      <trkpt lat="43.69385" lon="3.45677">
        <ele>219.8</ele>
        <time>2013-03-03T13:15:44Z</time>
      </trkpt>
      <trkpt lat="43.69368" lon="3.457">
        <ele>222.68</ele>
        <time>2013-03-03T13:16:04Z</time>
      </trkpt>
      <trkpt lat="43.69352" lon="3.45718">
        <ele>225.57</ele>
        <time>2013-03-03T13:16:23Z</time>
      </trkpt>
      <trkpt lat="43.69335" lon="3.45734">
        <ele>228.93</ele>
        <time>2013-03-03T13:16:42Z</time>
      </trkpt>
      <trkpt lat="43.69333" lon="3.45736">
        <ele>228.93</ele>
        <time>2013-03-03T13:16:44Z</time>
      </trkpt>
      <trkpt lat="43.69311" lon="3.45746">
        <ele>232.3</ele>
        <time>2013-03-03T13:17:05Z</time>
      </trkpt>
      <trkpt lat="43.69312" lon="3.45765">
        <ele>235.18</ele>
        <time>2013-03-03T13:17:22Z</time>
      </trkpt>
      <trkpt lat="43.69314" lon="3.45771">
        <ele>236.14</ele>
        <time>2013-03-03T13:17:42Z</time>
      </trkpt>
      <trkpt lat="43.69315" lon="3.45779">
        <ele>236.14</ele>
        <time>2013-03-03T13:18:08Z</time>
      </trkpt>
      <trkpt lat="43.69315" lon="3.45782">
        <ele>236.14</ele>
        <time>2013-03-03T13:18:32Z</time>
      </trkpt>
      <trkpt lat="43.69317" lon="3.4578">
        <ele>237.1</ele>
        <time>2013-03-03T13:18:56Z</time>
      </trkpt>
      <trkpt lat="43.69316" lon="3.4578">
        <ele>237.1</ele>
        <time>2013-03-03T13:19:20Z</time>
      </trkpt>
      <trkpt lat="43.69324" lon="3.45775">
        <ele>240.47</ele>
        <time>2013-03-03T13:19:32Z</time>
      </trkpt>
      <trkpt lat="43.69327" lon="3.45769">
        <ele>239.99</ele>
        <time>2013-03-03T13:19:47Z</time>
      </trkpt>
      <trkpt lat="43.69327" lon="3.4577">
        <ele>239.02</ele>
        <time>2013-03-03T13:19:48Z</time>
      </trkpt>
      <trkpt lat="43.69334" lon="3.45769">
        <ele>241.43</ele>
        <time>2013-03-03T13:20:04Z</time>
      </trkpt>
      <trkpt lat="43.69334" lon="3.45766">
        <ele>241.43</ele>
        <time>2013-03-03T13:20:28Z</time>
      </trkpt>
      <trkpt lat="43.69333" lon="3.45763">
        <ele>241.43</ele>
        <time>2013-03-03T13:21:04Z</time>
      </trkpt>
      <trkpt lat="43.6933" lon="3.45782">
        <ele>239.99</ele>
        <time>2013-03-03T13:21:24Z</time>
      </trkpt>
      <trkpt lat="43.69317" lon="3.4578">
        <ele>235.66</ele>
        <time>2013-03-03T13:21:40Z</time>
      </trkpt>
      <trkpt lat="43.69315" lon="3.45784">
        <ele>239.51</ele>
        <time>2013-03-03T13:21:46Z</time>
      </trkpt>
      <trkpt lat="43.69316" lon="3.45785">
        <ele>236.62</ele>
        <time>2013-03-03T13:21:47Z</time>
      </trkpt>
      <trkpt lat="43.69317" lon="3.45782">
        <ele>236.14</ele>
        <time>2013-03-03T13:22:17Z</time>
      </trkpt>
      <trkpt lat="43.69316" lon="3.45782">
        <ele>236.62</ele>
        <time>2013-03-03T13:22:43Z</time>
      </trkpt>
      <trkpt lat="43.69316" lon="3.45782">
        <ele>236.14</ele>
        <time>2013-03-03T13:23:03Z</time>
      </trkpt>
      <trkpt lat="43.69317" lon="3.45783">
        <ele>236.14</ele>
        <time>2013-03-03T13:23:27Z</time>
      </trkpt>
      <trkpt lat="43.69317" lon="3.45782">
        <ele>236.62</ele>
        <time>2013-03-03T13:23:49Z</time>
      </trkpt>
      <trkpt lat="43.69317" lon="3.45782">
        <ele>237.58</ele>
        <time>2013-03-03T13:24:14Z</time>
      </trkpt>
      <trkpt lat="43.69316" lon="3.45782">
        <ele>236.14</ele>
        <time>2013-03-03T13:24:38Z</time>
      </trkpt>
      <trkpt lat="43.69318" lon="3.45783">
        <ele>236.62</ele>
        <time>2013-03-03T13:25:10Z</time>
      </trkpt>
      <trkpt lat="43.69316" lon="3.45783">
        <ele>237.58</ele>
        <time>2013-03-03T13:25:40Z</time>
      </trkpt>
      <trkpt lat="43.69317" lon="3.45782">
        <ele>236.62</ele>
        <time>2013-03-03T13:26:07Z</time>
      </trkpt>
      <trkpt lat="43.69316" lon="3.45782">
        <ele>237.1</ele>
        <time>2013-03-03T13:26:37Z</time>
      </trkpt>
      <trkpt lat="43.69317" lon="3.45782">
        <ele>236.62</ele>
        <time>2013-03-03T13:26:51Z</time>
      </trkpt>
      <trkpt lat="43.69315" lon="3.45781">
        <ele>236.62</ele>
        <time>2013-03-03T13:27:03Z</time>
      </trkpt>
      <trkpt lat="43.69316" lon="3.45784">
        <ele>236.14</ele>
        <time>2013-03-03T13:27:14Z</time>
      </trkpt>
      <trkpt lat="43.69316" lon="3.45782">
        <ele>236.62</ele>
        <time>2013-03-03T13:27:31Z</time>
      </trkpt>
      <trkpt lat="43.69315" lon="3.45781">
        <ele>236.62</ele>
        <time>2013-03-03T13:27:40Z</time>
      </trkpt>
      <trkpt lat="43.69316" lon="3.45782">
        <ele>236.62</ele>
        <time>2013-03-03T13:27:50Z</time>
      </trkpt>
      <trkpt lat="43.69315" lon="3.45782">
        <ele>236.62</ele>
        <time>2013-03-03T13:28:09Z</time>
      </trkpt>
      <trkpt lat="43.69316" lon="3.45782">
        <ele>236.62</ele>
        <time>2013-03-03T13:28:35Z</time>
      </trkpt>
      <trkpt lat="43.69317" lon="3.45783">
        <ele>236.14</ele>
        <time>2013-03-03T13:29:03Z</time>
      </trkpt>
      <trkpt lat="43.69317" lon="3.45783">
        <ele>236.14</ele>
        <time>2013-03-03T13:29:26Z</time>
      </trkpt>
      <trkpt lat="43.69319" lon="3.45783">
        <ele>236.62</ele>
        <time>2013-03-03T13:29:54Z</time>
      </trkpt>
      <trkpt lat="43.69319" lon="3.45784">
        <ele>236.62</ele>
        <time>2013-03-03T13:29:56Z</time>
      </trkpt>
      <trkpt lat="43.69322" lon="3.45787">
        <ele>237.1</ele>
        <time>2013-03-03T13:29:59Z</time>
      </trkpt>
      <trkpt lat="43.69329" lon="3.45791">
        <ele>237.58</ele>
        <time>2013-03-03T13:30:06Z</time>
      </trkpt>
      <trkpt lat="43.69333" lon="3.45793">
        <ele>238.06</ele>
        <time>2013-03-03T13:30:10Z</time>
      </trkpt>
      <trkpt lat="43.69359" lon="3.45808">
        <ele>238.54</ele>
        <time>2013-03-03T13:30:34Z</time>
      </trkpt>
      <trkpt lat="43.69388" lon="3.45818">
        <ele>238.06</ele>
        <time>2013-03-03T13:30:59Z</time>
      </trkpt>
      <trkpt lat="43.69409" lon="3.45826">
        <ele>237.1</ele>
        <time>2013-03-03T13:31:18Z</time>
      </trkpt>
      <trkpt lat="43.6941" lon="3.45827">
        <ele>237.1</ele>
        <time>2013-03-03T13:31:23Z</time>
      </trkpt>
      <trkpt lat="43.69433" lon="3.45845">
        <ele>239.02</ele>
        <time>2013-03-03T13:31:42Z</time>
      </trkpt>
      <trkpt lat="43.69448" lon="3.45862">
        <ele>240.47</ele>
        <time>2013-03-03T13:31:59Z</time>
      </trkpt>
      <trkpt lat="43.69465" lon="3.45882">
        <ele>242.39</ele>
        <time>2013-03-03T13:32:19Z</time>
      </trkpt>
      <trkpt lat="43.69481" lon="3.45897">
        <ele>245.27</ele>
        <time>2013-03-03T13:32:37Z</time>
      </trkpt>
      <trkpt lat="43.69496" lon="3.45914">
        <ele>247.2</ele>
        <time>2013-03-03T13:32:55Z</time>
      </trkpt>
      <trkpt lat="43.69514" lon="3.45939">
        <ele>250.08</ele>
        <time>2013-03-03T13:33:17Z</time>
      </trkpt>
      <trkpt lat="43.69529" lon="3.4596">
        <ele>251.52</ele>
        <time>2013-03-03T13:33:34Z</time>
      </trkpt>
      <trkpt lat="43.69534" lon="3.45967">
        <ele>252</ele>
        <time>2013-03-03T13:33:40Z</time>
      </trkpt>
      <trkpt lat="43.69548" lon="3.45991">
        <ele>254.41</ele>
        <time>2013-03-03T13:34:00Z</time>
      </trkpt>
      <trkpt lat="43.69563" lon="3.46009">
        <ele>255.85</ele>
        <time>2013-03-03T13:34:17Z</time>
      </trkpt>
      <trkpt lat="43.69578" lon="3.46026">
        <ele>258.25</ele>
        <time>2013-03-03T13:34:34Z</time>
      </trkpt>
      <trkpt lat="43.69594" lon="3.46045">
        <ele>260.65</ele>
        <time>2013-03-03T13:34:52Z</time>
      </trkpt>
      <trkpt lat="43.69614" lon="3.4605">
        <ele>261.62</ele>
        <time>2013-03-03T13:35:11Z</time>
      </trkpt>
      <trkpt lat="43.69636" lon="3.46039">
        <ele>261.14</ele>
        <time>2013-03-03T13:35:31Z</time>
      </trkpt>
      <trkpt lat="43.69665" lon="3.46029">
        <ele>261.14</ele>
        <time>2013-03-03T13:35:55Z</time>
      </trkpt>
      <trkpt lat="43.69692" lon="3.46022">
        <ele>260.65</ele>
        <time>2013-03-03T13:36:16Z</time>
      </trkpt>
      <trkpt lat="43.69718" lon="3.46022">
        <ele>259.69</ele>
        <time>2013-03-03T13:36:36Z</time>
      </trkpt>
      <trkpt lat="43.69747" lon="3.46026">
        <ele>258.73</ele>
        <time>2013-03-03T13:36:58Z</time>
      </trkpt>
      <trkpt lat="43.6977" lon="3.46033">
        <ele>259.21</ele>
        <time>2013-03-03T13:37:16Z</time>
      </trkpt>
      <trkpt lat="43.69794" lon="3.46045">
        <ele>261.14</ele>
        <time>2013-03-03T13:37:35Z</time>
      </trkpt>
      <trkpt lat="43.69812" lon="3.46065">
        <ele>263.06</ele>
        <time>2013-03-03T13:37:54Z</time>
      </trkpt>
      <trkpt lat="43.69833" lon="3.46082">
        <ele>264.98</ele>
        <time>2013-03-03T13:38:13Z</time>
      </trkpt>
      <trkpt lat="43.69853" lon="3.46106">
        <ele>267.86</ele>
        <time>2013-03-03T13:38:32Z</time>
      </trkpt>
      <trkpt lat="43.69861" lon="3.46137">
        <ele>269.31</ele>
        <time>2013-03-03T13:38:50Z</time>
      </trkpt>
      <trkpt lat="43.6987" lon="3.46169">
        <ele>271.71</ele>
        <time>2013-03-03T13:39:10Z</time>
      </trkpt>
      <trkpt lat="43.69881" lon="3.462">
        <ele>273.63</ele>
        <time>2013-03-03T13:39:29Z</time>
      </trkpt>
      <trkpt lat="43.69896" lon="3.46224">
        <ele>275.56</ele>
        <time>2013-03-03T13:39:47Z</time>
      </trkpt>
      <trkpt lat="43.69914" lon="3.46239">
        <ele>276.04</ele>
        <time>2013-03-03T13:40:04Z</time>
      </trkpt>
      <trkpt lat="43.69936" lon="3.46251">
        <ele>277</ele>
        <time>2013-03-03T13:40:22Z</time>
      </trkpt>
      <trkpt lat="43.69956" lon="3.46261">
        <ele>277.48</ele>
        <time>2013-03-03T13:40:38Z</time>
      </trkpt>
      <trkpt lat="43.69978" lon="3.46268">
        <ele>278.44</ele>
        <time>2013-03-03T13:40:56Z</time>
      </trkpt>
      <trkpt lat="43.69998" lon="3.46269">
        <ele>278.92</ele>
        <time>2013-03-03T13:41:12Z</time>
      </trkpt>
      <trkpt lat="43.70015" lon="3.46267">
        <ele>279.88</ele>
        <time>2013-03-03T13:41:27Z</time>
      </trkpt>
      <trkpt lat="43.70037" lon="3.46266">
        <ele>280.84</ele>
        <time>2013-03-03T13:41:45Z</time>
      </trkpt>
      <trkpt lat="43.70051" lon="3.46287">
        <ele>281.8</ele>
        <time>2013-03-03T13:42:01Z</time>
      </trkpt>
      <trkpt lat="43.70057" lon="3.46308">
        <ele>282.77</ele>
        <time>2013-03-03T13:42:14Z</time>
      </trkpt>
      <trkpt lat="43.70072" lon="3.46337">
        <ele>284.69</ele>
        <time>2013-03-03T13:42:34Z</time>
      </trkpt>
      <trkpt lat="43.70079" lon="3.46369">
        <ele>286.13</ele>
        <time>2013-03-03T13:42:53Z</time>
      </trkpt>
      <trkpt lat="43.70078" lon="3.46402">
        <ele>287.57</ele>
        <time>2013-03-03T13:43:11Z</time>
      </trkpt>
      <trkpt lat="43.70075" lon="3.46436">
        <ele>288.05</ele>
        <time>2013-03-03T13:43:30Z</time>
      </trkpt>
      <trkpt lat="43.70086" lon="3.46461">
        <ele>288.53</ele>
        <time>2013-03-03T13:43:48Z</time>
      </trkpt>
      <trkpt lat="43.70105" lon="3.46475">
        <ele>287.57</ele>
        <time>2013-03-03T13:44:05Z</time>
      </trkpt>
      <trkpt lat="43.70127" lon="3.46489">
        <ele>287.09</ele>
        <time>2013-03-03T13:44:24Z</time>
      </trkpt>
      <trkpt lat="43.70151" lon="3.46496">
        <ele>286.61</ele>
        <time>2013-03-03T13:44:44Z</time>
      </trkpt>
      <trkpt lat="43.70173" lon="3.46498">
        <ele>285.17</ele>
        <time>2013-03-03T13:45:01Z</time>
      </trkpt>
      <trkpt lat="43.70191" lon="3.46499">
        <ele>285.17</ele>
        <time>2013-03-03T13:45:16Z</time>
      </trkpt>
      <trkpt lat="43.70204" lon="3.46499">
        <ele>285.17</ele>
        <time>2013-03-03T13:45:30Z</time>
      </trkpt>
      <trkpt lat="43.70205" lon="3.46499">
        <ele>285.17</ele>
        <time>2013-03-03T13:45:33Z</time>
      </trkpt>
      <trkpt lat="43.70218" lon="3.46499">
        <ele>284.69</ele>
        <time>2013-03-03T13:45:45Z</time>
      </trkpt>
      <trkpt lat="43.70228" lon="3.46499">
        <ele>284.21</ele>
        <time>2013-03-03T13:45:56Z</time>
      </trkpt>
      <trkpt lat="43.70248" lon="3.46502">
        <ele>285.17</ele>
        <time>2013-03-03T13:46:12Z</time>
      </trkpt>
      <trkpt lat="43.70274" lon="3.465">
        <ele>284.69</ele>
        <time>2013-03-03T13:46:32Z</time>
      </trkpt>
      <trkpt lat="43.70304" lon="3.46494">
        <ele>283.73</ele>
        <time>2013-03-03T13:46:55Z</time>
      </trkpt>
      <trkpt lat="43.7033" lon="3.46496">
        <ele>282.77</ele>
        <time>2013-03-03T13:47:16Z</time>
      </trkpt>
      <trkpt lat="43.70339" lon="3.46498">
        <ele>282.77</ele>
        <time>2013-03-03T13:47:32Z</time>
      </trkpt>
      <trkpt lat="43.70352" lon="3.46501">
        <ele>283.25</ele>
        <time>2013-03-03T13:47:48Z</time>
      </trkpt>
      <trkpt lat="43.70375" lon="3.4651">
        <ele>283.73</ele>
        <time>2013-03-03T13:48:07Z</time>
      </trkpt>
      <trkpt lat="43.70397" lon="3.46517">
        <ele>284.69</ele>
        <time>2013-03-03T13:48:24Z</time>
      </trkpt>
      <trkpt lat="43.70421" lon="3.46522">
        <ele>285.65</ele>
        <time>2013-03-03T13:48:42Z</time>
      </trkpt>
      <trkpt lat="43.70443" lon="3.4654">
        <ele>286.13</ele>
        <time>2013-03-03T13:49:01Z</time>
      </trkpt>
      <trkpt lat="43.7046" lon="3.46561">
        <ele>286.61</ele>
        <time>2013-03-03T13:49:19Z</time>
      </trkpt>
      <trkpt lat="43.70467" lon="3.46586">
        <ele>287.09</ele>
        <time>2013-03-03T13:49:35Z</time>
      </trkpt>
      <trkpt lat="43.70465" lon="3.46588">
        <ele>287.09</ele>
        <time>2013-03-03T13:49:49Z</time>
      </trkpt>
      <trkpt lat="43.70464" lon="3.46586">
        <ele>286.61</ele>
        <time>2013-03-03T13:50:01Z</time>
      </trkpt>
      <trkpt lat="43.70464" lon="3.46587">
        <ele>286.61</ele>
        <time>2013-03-03T13:50:18Z</time>
      </trkpt>
      <trkpt lat="43.70464" lon="3.4659">
        <ele>286.13</ele>
        <time>2013-03-03T13:50:38Z</time>
      </trkpt>
      <trkpt lat="43.70465" lon="3.4659">
        <ele>285.65</ele>
        <time>2013-03-03T13:51:03Z</time>
      </trkpt>
      <trkpt lat="43.70465" lon="3.4659">
        <ele>286.13</ele>
        <time>2013-03-03T13:51:25Z</time>
      </trkpt>
      <trkpt lat="43.70465" lon="3.4659">
        <ele>285.65</ele>
        <time>2013-03-03T13:51:46Z</time>
      </trkpt>
      <trkpt lat="43.70465" lon="3.46588">
        <ele>286.13</ele>
        <time>2013-03-03T13:52:04Z</time>
      </trkpt>
      <trkpt lat="43.70465" lon="3.46586">
        <ele>286.13</ele>
        <time>2013-03-03T13:52:23Z</time>
      </trkpt>
      <trkpt lat="43.70466" lon="3.46587">
        <ele>286.13</ele>
        <time>2013-03-03T13:52:44Z</time>
      </trkpt>
      <trkpt lat="43.70464" lon="3.46586">
        <ele>286.13</ele>
        <time>2013-03-03T13:53:01Z</time>
      </trkpt>
      <trkpt lat="43.70463" lon="3.46586">
        <ele>286.13</ele>
        <time>2013-03-03T13:53:24Z</time>
      </trkpt>
      <trkpt lat="43.70463" lon="3.46585">
        <ele>286.13</ele>
        <time>2013-03-03T13:53:44Z</time>
      </trkpt>
      <trkpt lat="43.70462" lon="3.46585">
        <ele>286.13</ele>
        <time>2013-03-03T13:54:04Z</time>
      </trkpt>
      <trkpt lat="43.70462" lon="3.46585">
        <ele>286.13</ele>
        <time>2013-03-03T13:54:29Z</time>
      </trkpt>
      <trkpt lat="43.70462" lon="3.46584">
        <ele>286.13</ele>
        <time>2013-03-03T13:54:47Z</time>
      </trkpt>
      <trkpt lat="43.70461" lon="3.46584">
        <ele>286.13</ele>
        <time>2013-03-03T13:55:15Z</time>
      </trkpt>
      <trkpt lat="43.70463" lon="3.46583">
        <ele>286.13</ele>
        <time>2013-03-03T13:55:40Z</time>
      </trkpt>
      <trkpt lat="43.70465" lon="3.46584">
        <ele>286.13</ele>
        <time>2013-03-03T13:55:58Z</time>
      </trkpt>
      <trkpt lat="43.70464" lon="3.46584">
        <ele>286.61</ele>
        <time>2013-03-03T13:56:20Z</time>
      </trkpt>
      <trkpt lat="43.70465" lon="3.46586">
        <ele>286.61</ele>
        <time>2013-03-03T13:56:43Z</time>
      </trkpt>
      <trkpt lat="43.70468" lon="3.46586">
        <ele>286.61</ele>
        <time>2013-03-03T13:57:01Z</time>
      </trkpt>
      <trkpt lat="43.70469" lon="3.46591">
        <ele>286.13</ele>
        <time>2013-03-03T13:57:14Z</time>
      </trkpt>
      <trkpt lat="43.70477" lon="3.46594">
        <ele>285.17</ele>
        <time>2013-03-03T13:57:25Z</time>
      </trkpt>
      <trkpt lat="43.70489" lon="3.46608">
        <ele>284.21</ele>
        <time>2013-03-03T13:57:40Z</time>
      </trkpt>
      <trkpt lat="43.70503" lon="3.46629">
        <ele>281.8</ele>
        <time>2013-03-03T13:57:59Z</time>
      </trkpt>
      <trkpt lat="43.70509" lon="3.46638">
        <ele>280.36</ele>
        <time>2013-03-03T13:58:07Z</time>
      </trkpt>
      <trkpt lat="43.70517" lon="3.46652">
        <ele>279.4</ele>
        <time>2013-03-03T13:58:22Z</time>
      </trkpt>
      <trkpt lat="43.70529" lon="3.46654">
        <ele>277.48</ele>
        <time>2013-03-03T13:58:36Z</time>
      </trkpt>
      <trkpt lat="43.70538" lon="3.46652">
        <ele>277.96</ele>
        <time>2013-03-03T13:58:44Z</time>
      </trkpt>
      <trkpt lat="43.7056" lon="3.4666">
        <ele>278.44</ele>
        <time>2013-03-03T13:59:01Z</time>
      </trkpt>
      <trkpt lat="43.70577" lon="3.46662">
        <ele>278.44</ele>
        <time>2013-03-03T13:59:14Z</time>
      </trkpt>
      <trkpt lat="43.70587" lon="3.46662">
        <ele>278.92</ele>
        <time>2013-03-03T13:59:26Z</time>
      </trkpt>
      <trkpt lat="43.70605" lon="3.46666">
        <ele>279.4</ele>
        <time>2013-03-03T13:59:42Z</time>
      </trkpt>
      <trkpt lat="43.70623" lon="3.46671">
        <ele>279.4</ele>
        <time>2013-03-03T13:59:56Z</time>
      </trkpt>
      <trkpt lat="43.70647" lon="3.46682">
        <ele>280.84</ele>
        <time>2013-03-03T14:00:14Z</time>
      </trkpt>
      <trkpt lat="43.70672" lon="3.46695">
        <ele>282.77</ele>
        <time>2013-03-03T14:00:36Z</time>
      </trkpt>
      <trkpt lat="43.70678" lon="3.46707">
        <ele>282.77</ele>
        <time>2013-03-03T14:00:49Z</time>
      </trkpt>
      <trkpt lat="43.70684" lon="3.4673">
        <ele>283.73</ele>
        <time>2013-03-03T14:01:05Z</time>
      </trkpt>
      <trkpt lat="43.70685" lon="3.46738">
        <ele>283.73</ele>
        <time>2013-03-03T14:01:10Z</time>
      </trkpt>
      <trkpt lat="43.70693" lon="3.46754">
        <ele>284.21</ele>
        <time>2013-03-03T14:01:22Z</time>
      </trkpt>
      <trkpt lat="43.70708" lon="3.46763">
        <ele>284.21</ele>
        <time>2013-03-03T14:01:36Z</time>
      </trkpt>
      <trkpt lat="43.70725" lon="3.46773">
        <ele>284.21</ele>
        <time>2013-03-03T14:01:51Z</time>
      </trkpt>
      <trkpt lat="43.7074" lon="3.46781">
        <ele>284.21</ele>
        <time>2013-03-03T14:02:06Z</time>
      </trkpt>
      <trkpt lat="43.70758" lon="3.46789">
        <ele>284.21</ele>
        <time>2013-03-03T14:02:22Z</time>
      </trkpt>
      <trkpt lat="43.70778" lon="3.46804">
        <ele>284.69</ele>
        <time>2013-03-03T14:02:40Z</time>
      </trkpt>
      <trkpt lat="43.70783" lon="3.46809">
        <ele>285.65</ele>
        <time>2013-03-03T14:02:45Z</time>
      </trkpt>
      <trkpt lat="43.70786" lon="3.46815">
        <ele>287.09</ele>
        <time>2013-03-03T14:02:49Z</time>
      </trkpt>
      <trkpt lat="43.70798" lon="3.46824">
        <ele>289.97</ele>
        <time>2013-03-03T14:03:00Z</time>
      </trkpt>
      <trkpt lat="43.70804" lon="3.46822">
        <ele>290.46</ele>
        <time>2013-03-03T14:03:06Z</time>
      </trkpt>
      <trkpt lat="43.7082" lon="3.46828">
        <ele>291.9</ele>
        <time>2013-03-03T14:03:22Z</time>
      </trkpt>
      <trkpt lat="43.70833" lon="3.4683">
        <ele>293.34</ele>
        <time>2013-03-03T14:03:35Z</time>
      </trkpt>
      <trkpt lat="43.70843" lon="3.46829">
        <ele>294.78</ele>
        <time>2013-03-03T14:03:45Z</time>
      </trkpt>
      <trkpt lat="43.70857" lon="3.46832">
        <ele>296.22</ele>
        <time>2013-03-03T14:03:57Z</time>
      </trkpt>
      <trkpt lat="43.7087" lon="3.46837">
        <ele>298.15</ele>
        <time>2013-03-03T14:04:09Z</time>
      </trkpt>
      <trkpt lat="43.70882" lon="3.46848">
        <ele>301.03</ele>
        <time>2013-03-03T14:04:23Z</time>
      </trkpt>
      <trkpt lat="43.70894" lon="3.46858">
        <ele>303.43</ele>
        <time>2013-03-03T14:04:37Z</time>
      </trkpt>
      <trkpt lat="43.70896" lon="3.46858">
        <ele>303.91</ele>
        <time>2013-03-03T14:04:39Z</time>
      </trkpt>
      <trkpt lat="43.70899" lon="3.46856">
        <ele>303.91</ele>
        <time>2013-03-03T14:04:42Z</time>
      </trkpt>
      <trkpt lat="43.70909" lon="3.46861">
        <ele>306.32</ele>
        <time>2013-03-03T14:04:55Z</time>
      </trkpt>
      <trkpt lat="43.70919" lon="3.46863">
        <ele>307.28</ele>
        <time>2013-03-03T14:05:06Z</time>
      </trkpt>
      <trkpt lat="43.7093" lon="3.46867">
        <ele>310.16</ele>
        <time>2013-03-03T14:05:19Z</time>
      </trkpt>
      <trkpt lat="43.70945" lon="3.46874">
        <ele>313.53</ele>
        <time>2013-03-03T14:05:35Z</time>
      </trkpt>
      <trkpt lat="43.70953" lon="3.46877">
        <ele>315.45</ele>
        <time>2013-03-03T14:05:44Z</time>
      </trkpt>
      <trkpt lat="43.7096" lon="3.46886">
        <ele>319.3</ele>
        <time>2013-03-03T14:05:54Z</time>
      </trkpt>
      <trkpt lat="43.70966" lon="3.46886">
        <ele>321.22</ele>
        <time>2013-03-03T14:06:02Z</time>
      </trkpt>
      <trkpt lat="43.70982" lon="3.46866">
        <ele>322.18</ele>
        <time>2013-03-03T14:06:17Z</time>
      </trkpt>
      <trkpt lat="43.71001" lon="3.46844">
        <ele>324.58</ele>
        <time>2013-03-03T14:06:36Z</time>
      </trkpt>
      <trkpt lat="43.71018" lon="3.46823">
        <ele>327.47</ele>
        <time>2013-03-03T14:06:52Z</time>
      </trkpt>
      <trkpt lat="43.71032" lon="3.46801">
        <ele>330.35</ele>
        <time>2013-03-03T14:07:09Z</time>
      </trkpt>
      <trkpt lat="43.71046" lon="3.46776">
        <ele>332.27</ele>
        <time>2013-03-03T14:07:27Z</time>
      </trkpt>
      <trkpt lat="43.71058" lon="3.46768">
        <ele>335.64</ele>
        <time>2013-03-03T14:07:38Z</time>
      </trkpt>
      <trkpt lat="43.71068" lon="3.46763">
        <ele>339</ele>
        <time>2013-03-03T14:07:49Z</time>
      </trkpt>
      <trkpt lat="43.71069" lon="3.46762">
        <ele>339</ele>
        <time>2013-03-03T14:07:50Z</time>
      </trkpt>
      <trkpt lat="43.71082" lon="3.46751">
        <ele>341.89</ele>
        <time>2013-03-03T14:08:06Z</time>
      </trkpt>
      <trkpt lat="43.71087" lon="3.46745">
        <ele>343.81</ele>
        <time>2013-03-03T14:08:17Z</time>
      </trkpt>
      <trkpt lat="43.71091" lon="3.46738">
        <ele>344.77</ele>
        <time>2013-03-03T14:08:23Z</time>
      </trkpt>
      <trkpt lat="43.71093" lon="3.4673">
        <ele>344.77</ele>
        <time>2013-03-03T14:08:28Z</time>
      </trkpt>
      <trkpt lat="43.71098" lon="3.46723">
        <ele>345.73</ele>
        <time>2013-03-03T14:08:34Z</time>
      </trkpt>
      <trkpt lat="43.7111" lon="3.46721">
        <ele>349.1</ele>
        <time>2013-03-03T14:08:48Z</time>
      </trkpt>
      <trkpt lat="43.71121" lon="3.46727">
        <ele>352.46</ele>
        <time>2013-03-03T14:08:59Z</time>
      </trkpt>
      <trkpt lat="43.71129" lon="3.46726">
        <ele>354.86</ele>
        <time>2013-03-03T14:09:14Z</time>
      </trkpt>
      <trkpt lat="43.71129" lon="3.46726">
        <ele>354.86</ele>
        <time>2013-03-03T14:09:18Z</time>
      </trkpt>
      <trkpt lat="43.71135" lon="3.46725">
        <ele>355.83</ele>
        <time>2013-03-03T14:09:23Z</time>
      </trkpt>
      <trkpt lat="43.71147" lon="3.46711">
        <ele>356.79</ele>
        <time>2013-03-03T14:09:37Z</time>
      </trkpt>
      <trkpt lat="43.71167" lon="3.46693">
        <ele>360.15</ele>
        <time>2013-03-03T14:09:56Z</time>
      </trkpt>
      <trkpt lat="43.7118" lon="3.46688">
        <ele>363.04</ele>
        <time>2013-03-03T14:10:11Z</time>
      </trkpt>
      <trkpt lat="43.71182" lon="3.46688">
        <ele>363.52</ele>
        <time>2013-03-03T14:10:13Z</time>
      </trkpt>
      <trkpt lat="43.71203" lon="3.46682">
        <ele>366.88</ele>
        <time>2013-03-03T14:10:27Z</time>
      </trkpt>
      <trkpt lat="43.71213" lon="3.46682">
        <ele>368.8</ele>
        <time>2013-03-03T14:10:42Z</time>
      </trkpt>
      <trkpt lat="43.71217" lon="3.46678">
        <ele>368.8</ele>
        <time>2013-03-03T14:10:51Z</time>
      </trkpt>
      <trkpt lat="43.71235" lon="3.46656">
        <ele>368.32</ele>
        <time>2013-03-03T14:11:10Z</time>
      </trkpt>
      <trkpt lat="43.71237" lon="3.46653">
        <ele>368.32</ele>
        <time>2013-03-03T14:11:13Z</time>
      </trkpt>
      <trkpt lat="43.71241" lon="3.46642">
        <ele>366.88</ele>
        <time>2013-03-03T14:11:19Z</time>
      </trkpt>
      <trkpt lat="43.7125" lon="3.46612">
        <ele>367.36</ele>
        <time>2013-03-03T14:11:37Z</time>
      </trkpt>
      <trkpt lat="43.71254" lon="3.46588">
        <ele>366.88</ele>
        <time>2013-03-03T14:11:53Z</time>
      </trkpt>
      <trkpt lat="43.71256" lon="3.46582">
        <ele>366.88</ele>
        <time>2013-03-03T14:11:57Z</time>
      </trkpt>
      <trkpt lat="43.7126" lon="3.46573">
        <ele>367.84</ele>
        <time>2013-03-03T14:12:03Z</time>
      </trkpt>
      <trkpt lat="43.71266" lon="3.46561">
        <ele>368.8</ele>
        <time>2013-03-03T14:12:12Z</time>
      </trkpt>
      <trkpt lat="43.71267" lon="3.46557">
        <ele>369.28</ele>
        <time>2013-03-03T14:12:15Z</time>
      </trkpt>
      <trkpt lat="43.71272" lon="3.46553">
        <ele>370.24</ele>
        <time>2013-03-03T14:12:20Z</time>
      </trkpt>
      <trkpt lat="43.71276" lon="3.46552">
        <ele>370.73</ele>
        <time>2013-03-03T14:12:24Z</time>
      </trkpt>
      <trkpt lat="43.71294" lon="3.46543">
        <ele>372.17</ele>
        <time>2013-03-03T14:12:40Z</time>
      </trkpt>
      <trkpt lat="43.71316" lon="3.46533">
        <ele>374.57</ele>
        <time>2013-03-03T14:12:57Z</time>
      </trkpt>
      <trkpt lat="43.71333" lon="3.46529">
        <ele>376.01</ele>
        <time>2013-03-03T14:13:10Z</time>
      </trkpt>
      <trkpt lat="43.71351" lon="3.46527">
        <ele>377.45</ele>
        <time>2013-03-03T14:13:24Z</time>
      </trkpt>
      <trkpt lat="43.71368" lon="3.46522">
        <ele>378.9</ele>
        <time>2013-03-03T14:13:38Z</time>
      </trkpt>
      <trkpt lat="43.71389" lon="3.46502">
        <ele>381.3</ele>
        <time>2013-03-03T14:13:58Z</time>
      </trkpt>
      <trkpt lat="43.7141" lon="3.46486">
        <ele>383.22</ele>
        <time>2013-03-03T14:14:16Z</time>
      </trkpt>
      <trkpt lat="43.71425" lon="3.46466">
        <ele>386.11</ele>
        <time>2013-03-03T14:14:34Z</time>
      </trkpt>
      <trkpt lat="43.71429" lon="3.46457">
        <ele>387.55</ele>
        <time>2013-03-03T14:14:50Z</time>
      </trkpt>
      <trkpt lat="43.71439" lon="3.46433">
        <ele>390.91</ele>
        <time>2013-03-03T14:15:07Z</time>
      </trkpt>
      <trkpt lat="43.71452" lon="3.46415">
        <ele>393.8</ele>
        <time>2013-03-03T14:15:23Z</time>
      </trkpt>
      <trkpt lat="43.71458" lon="3.46395">
        <ele>397.16</ele>
        <time>2013-03-03T14:15:39Z</time>
      </trkpt>
      <trkpt lat="43.71474" lon="3.4638">
        <ele>400.05</ele>
        <time>2013-03-03T14:15:56Z</time>
      </trkpt>
      <trkpt lat="43.71484" lon="3.46365">
        <ele>402.93</ele>
        <time>2013-03-03T14:16:13Z</time>
      </trkpt>
      <trkpt lat="43.71483" lon="3.46361">
        <ele>403.41</ele>
        <time>2013-03-03T14:16:29Z</time>
      </trkpt>
      <trkpt lat="43.71483" lon="3.46358">
        <ele>403.41</ele>
        <time>2013-03-03T14:16:41Z</time>
      </trkpt>
      <trkpt lat="43.71472" lon="3.46351">
        <ele>406.77</ele>
        <time>2013-03-03T14:16:54Z</time>
      </trkpt>
      <trkpt lat="43.71456" lon="3.46348">
        <ele>410.14</ele>
        <time>2013-03-03T14:17:08Z</time>
      </trkpt>
      <trkpt lat="43.71442" lon="3.46347">
        <ele>412.06</ele>
        <time>2013-03-03T14:17:22Z</time>
      </trkpt>
      <trkpt lat="43.71438" lon="3.46346">
        <ele>412.54</ele>
        <time>2013-03-03T14:17:25Z</time>
      </trkpt>
      <trkpt lat="43.71431" lon="3.46347">
        <ele>413.5</ele>
        <time>2013-03-03T14:17:32Z</time>
      </trkpt>
      <trkpt lat="43.71405" lon="3.46352">
        <ele>415.91</ele>
        <time>2013-03-03T14:17:53Z</time>
      </trkpt>
      <trkpt lat="43.71386" lon="3.46354">
        <ele>417.35</ele>
        <time>2013-03-03T14:18:09Z</time>
      </trkpt>
      <trkpt lat="43.71366" lon="3.46358">
        <ele>418.79</ele>
        <time>2013-03-03T14:18:25Z</time>
      </trkpt>
      <trkpt lat="43.71335" lon="3.46364">
        <ele>421.68</ele>
        <time>2013-03-03T14:18:48Z</time>
      </trkpt>
      <trkpt lat="43.71316" lon="3.46367">
        <ele>425.04</ele>
        <time>2013-03-03T14:19:05Z</time>
      </trkpt>
      <trkpt lat="43.71315" lon="3.46367">
        <ele>425.52</ele>
        <time>2013-03-03T14:19:06Z</time>
      </trkpt>
      <trkpt lat="43.71298" lon="3.46355">
        <ele>428.4</ele>
        <time>2013-03-03T14:19:23Z</time>
      </trkpt>
      <trkpt lat="43.7129" lon="3.46344">
        <ele>429.85</ele>
        <time>2013-03-03T14:19:32Z</time>
      </trkpt>
      <trkpt lat="43.71285" lon="3.4632">
        <ele>432.25</ele>
        <time>2013-03-03T14:19:51Z</time>
      </trkpt>
      <trkpt lat="43.71287" lon="3.46312">
        <ele>433.21</ele>
        <time>2013-03-03T14:19:55Z</time>
      </trkpt>
      <trkpt lat="43.71295" lon="3.46304">
        <ele>435.13</ele>
        <time>2013-03-03T14:20:04Z</time>
      </trkpt>
      <trkpt lat="43.71306" lon="3.46298">
        <ele>438.5</ele>
        <time>2013-03-03T14:20:18Z</time>
      </trkpt>
      <trkpt lat="43.71317" lon="3.4629">
        <ele>441.38</ele>
        <time>2013-03-03T14:20:33Z</time>
      </trkpt>
      <trkpt lat="43.71319" lon="3.46278">
        <ele>444.75</ele>
        <time>2013-03-03T14:20:47Z</time>
      </trkpt>
      <trkpt lat="43.71308" lon="3.46254">
        <ele>446.67</ele>
        <time>2013-03-03T14:21:08Z</time>
      </trkpt>
      <trkpt lat="43.71302" lon="3.46233">
        <ele>450.03</ele>
        <time>2013-03-03T14:21:27Z</time>
      </trkpt>
      <trkpt lat="43.71286" lon="3.46197">
        <ele>452.44</ele>
        <time>2013-03-03T14:21:48Z</time>
      </trkpt>
      <trkpt lat="43.71285" lon="3.46181">
        <ele>453.88</ele>
        <time>2013-03-03T14:22:08Z</time>
      </trkpt>
      <trkpt lat="43.71286" lon="3.46181">
        <ele>454.84</ele>
        <time>2013-03-03T14:22:27Z</time>
      </trkpt>
      <trkpt lat="43.71286" lon="3.46185">
        <ele>454.84</ele>
        <time>2013-03-03T14:22:52Z</time>
      </trkpt>
      <trkpt lat="43.71284" lon="3.46188">
        <ele>454.84</ele>
        <time>2013-03-03T14:23:05Z</time>
      </trkpt>
      <trkpt lat="43.71281" lon="3.46203">
        <ele>454.36</ele>
        <time>2013-03-03T14:23:18Z</time>
      </trkpt>
      <trkpt lat="43.71276" lon="3.46201">
        <ele>453.4</ele>
        <time>2013-03-03T14:23:22Z</time>
      </trkpt>
      <trkpt lat="43.71247" lon="3.46185">
        <ele>455.32</ele>
        <time>2013-03-03T14:23:44Z</time>
      </trkpt>
      <trkpt lat="43.71234" lon="3.46172">
        <ele>457.24</ele>
        <time>2013-03-03T14:23:54Z</time>
      </trkpt>
      <trkpt lat="43.71218" lon="3.46164">
        <ele>460.61</ele>
        <time>2013-03-03T14:24:09Z</time>
      </trkpt>
      <trkpt lat="43.71205" lon="3.46155">
        <ele>463.49</ele>
        <time>2013-03-03T14:24:21Z</time>
      </trkpt>
      <trkpt lat="43.71192" lon="3.46145">
        <ele>466.86</ele>
        <time>2013-03-03T14:24:33Z</time>
      </trkpt>
      <trkpt lat="43.71172" lon="3.46135">
        <ele>469.26</ele>
        <time>2013-03-03T14:24:53Z</time>
      </trkpt>
      <trkpt lat="43.71152" lon="3.46109">
        <ele>471.18</ele>
        <time>2013-03-03T14:25:13Z</time>
      </trkpt>
      <trkpt lat="43.71132" lon="3.46087">
        <ele>471.66</ele>
        <time>2013-03-03T14:25:32Z</time>
      </trkpt>
      <trkpt lat="43.7113" lon="3.46076">
        <ele>473.59</ele>
        <time>2013-03-03T14:25:40Z</time>
      </trkpt>
      <trkpt lat="43.71135" lon="3.46077">
        <ele>475.03</ele>
        <time>2013-03-03T14:25:44Z</time>
      </trkpt>
      <trkpt lat="43.71159" lon="3.46083">
        <ele>477.91</ele>
        <time>2013-03-03T14:26:06Z</time>
      </trkpt>
      <trkpt lat="43.71183" lon="3.46092">
        <ele>480.32</ele>
        <time>2013-03-03T14:26:25Z</time>
      </trkpt>
      <trkpt lat="43.71195" lon="3.46089">
        <ele>482.72</ele>
        <time>2013-03-03T14:26:37Z</time>
      </trkpt>
      <trkpt lat="43.71217" lon="3.46075">
        <ele>484.16</ele>
        <time>2013-03-03T14:26:55Z</time>
      </trkpt>
      <trkpt lat="43.71228" lon="3.46052">
        <ele>486.56</ele>
        <time>2013-03-03T14:27:13Z</time>
      </trkpt>
      <trkpt lat="43.71234" lon="3.46052">
        <ele>488.01</ele>
        <time>2013-03-03T14:27:27Z</time>
      </trkpt>
      <trkpt lat="43.71255" lon="3.46049">
        <ele>490.89</ele>
        <time>2013-03-03T14:27:45Z</time>
      </trkpt>
      <trkpt lat="43.71271" lon="3.46061">
        <ele>493.77</ele>
        <time>2013-03-03T14:28:03Z</time>
      </trkpt>
      <trkpt lat="43.71286" lon="3.46079">
        <ele>496.18</ele>
        <time>2013-03-03T14:28:19Z</time>
      </trkpt>
      <trkpt lat="43.7131" lon="3.46092">
        <ele>499.06</ele>
        <time>2013-03-03T14:28:40Z</time>
      </trkpt>
      <trkpt lat="43.71318" lon="3.46097">
        <ele>500.5</ele>
        <time>2013-03-03T14:28:46Z</time>
      </trkpt>
      <trkpt lat="43.71333" lon="3.46108">
        <ele>503.39</ele>
        <time>2013-03-03T14:29:06Z</time>
      </trkpt>
      <trkpt lat="43.71339" lon="3.46106">
        <ele>506.27</ele>
        <time>2013-03-03T14:29:19Z</time>
      </trkpt>
      <trkpt lat="43.71353" lon="3.46107">
        <ele>509.64</ele>
        <time>2013-03-03T14:29:36Z</time>
      </trkpt>
      <trkpt lat="43.71355" lon="3.46105">
        <ele>513</ele>
        <time>2013-03-03T14:29:48Z</time>
      </trkpt>
      <trkpt lat="43.7135" lon="3.46095">
        <ele>516.37</ele>
        <time>2013-03-03T14:30:03Z</time>
      </trkpt>
      <trkpt lat="43.71346" lon="3.4608">
        <ele>519.25</ele>
        <time>2013-03-03T14:30:15Z</time>
      </trkpt>
      <trkpt lat="43.71337" lon="3.46069">
        <ele>521.65</ele>
        <time>2013-03-03T14:30:32Z</time>
      </trkpt>
      <trkpt lat="43.71339" lon="3.46069">
        <ele>522.13</ele>
        <time>2013-03-03T14:30:50Z</time>
      </trkpt>
      <trkpt lat="43.71331" lon="3.46062">
        <ele>520.69</ele>
        <time>2013-03-03T14:31:05Z</time>
      </trkpt>
      <trkpt lat="43.71328" lon="3.4606">
        <ele>520.69</ele>
        <time>2013-03-03T14:31:20Z</time>
      </trkpt>
      <trkpt lat="43.71323" lon="3.46062">
        <ele>523.09</ele>
        <time>2013-03-03T14:31:28Z</time>
      </trkpt>
      <trkpt lat="43.71318" lon="3.46068">
        <ele>523.09</ele>
        <time>2013-03-03T14:31:41Z</time>
      </trkpt>
      <trkpt lat="43.71315" lon="3.46066">
        <ele>525.98</ele>
        <time>2013-03-03T14:31:49Z</time>
      </trkpt>
      <trkpt lat="43.71311" lon="3.46069">
        <ele>525.5</ele>
        <time>2013-03-03T14:32:00Z</time>
      </trkpt>
      <trkpt lat="43.71309" lon="3.46071">
        <ele>525.02</ele>
        <time>2013-03-03T14:32:10Z</time>
      </trkpt>
      <trkpt lat="43.71309" lon="3.46071">
        <ele>525.02</ele>
        <time>2013-03-03T14:32:27Z</time>
      </trkpt>
      <trkpt lat="43.71311" lon="3.4607">
        <ele>526.46</ele>
        <time>2013-03-03T14:32:46Z</time>
      </trkpt>
      <trkpt lat="43.71311" lon="3.46071">
        <ele>525.5</ele>
        <time>2013-03-03T14:33:03Z</time>
      </trkpt>
      <trkpt lat="43.7131" lon="3.46073">
        <ele>524.54</ele>
        <time>2013-03-03T14:33:26Z</time>
      </trkpt>
      <trkpt lat="43.71311" lon="3.46075">
        <ele>524.06</ele>
        <time>2013-03-03T14:33:55Z</time>
      </trkpt>
      <trkpt lat="43.71313" lon="3.46076">
        <ele>525.02</ele>
        <time>2013-03-03T14:34:29Z</time>
      </trkpt>
      <trkpt lat="43.7131" lon="3.46072">
        <ele>524.54</ele>
        <time>2013-03-03T14:34:56Z</time>
      </trkpt>
      <trkpt lat="43.71308" lon="3.46068">
        <ele>524.06</ele>
        <time>2013-03-03T14:35:08Z</time>
      </trkpt>
      <trkpt lat="43.71309" lon="3.46067">
        <ele>524.54</ele>
        <time>2013-03-03T14:35:32Z</time>
      </trkpt>
      <trkpt lat="43.71309" lon="3.46065">
        <ele>525.5</ele>
        <time>2013-03-03T14:35:37Z</time>
      </trkpt>
      <trkpt lat="43.71311" lon="3.46062">
        <ele>524.54</ele>
        <time>2013-03-03T14:35:50Z</time>
      </trkpt>
      <trkpt lat="43.71311" lon="3.46062">
        <ele>524.54</ele>
        <time>2013-03-03T14:36:19Z</time>
      </trkpt>
      <trkpt lat="43.71312" lon="3.46065">
        <ele>525.02</ele>
        <time>2013-03-03T14:36:37Z</time>
      </trkpt>
      <trkpt lat="43.71315" lon="3.46067">
        <ele>522.61</ele>
        <time>2013-03-03T14:36:53Z</time>
      </trkpt>
      <trkpt lat="43.71318" lon="3.46067">
        <ele>521.17</ele>
        <time>2013-03-03T14:37:10Z</time>
      </trkpt>
      <trkpt lat="43.71321" lon="3.46058">
        <ele>521.65</ele>
        <time>2013-03-03T14:37:25Z</time>
      </trkpt>
      <trkpt lat="43.71323" lon="3.46061">
        <ele>520.21</ele>
        <time>2013-03-03T14:37:43Z</time>
      </trkpt>
      <trkpt lat="43.71325" lon="3.4606">
        <ele>519.73</ele>
        <time>2013-03-03T14:38:02Z</time>
      </trkpt>
      <trkpt lat="43.71326" lon="3.46061">
        <ele>519.25</ele>
        <time>2013-03-03T14:38:04Z</time>
      </trkpt>
      <trkpt lat="43.71339" lon="3.46068">
        <ele>522.61</ele>
        <time>2013-03-03T14:38:19Z</time>
      </trkpt>
      <trkpt lat="43.71342" lon="3.46068">
        <ele>523.09</ele>
        <time>2013-03-03T14:38:33Z</time>
      </trkpt>
      <trkpt lat="43.71352" lon="3.46064">
        <ele>525.5</ele>
        <time>2013-03-03T14:38:47Z</time>
      </trkpt>
      <trkpt lat="43.71359" lon="3.46067">
        <ele>526.94</ele>
        <time>2013-03-03T14:39:05Z</time>
      </trkpt>
      <trkpt lat="43.71361" lon="3.46068">
        <ele>526.94</ele>
        <time>2013-03-03T14:39:30Z</time>
      </trkpt>
      <trkpt lat="43.71365" lon="3.46073">
        <ele>527.9</ele>
        <time>2013-03-03T14:39:44Z</time>
      </trkpt>
      <trkpt lat="43.71365" lon="3.46086">
        <ele>527.42</ele>
        <time>2013-03-03T14:39:58Z</time>
      </trkpt>
      <trkpt lat="43.71368" lon="3.46091">
        <ele>527.42</ele>
        <time>2013-03-03T14:40:16Z</time>
      </trkpt>
      <trkpt lat="43.71369" lon="3.46093">
        <ele>527.42</ele>
        <time>2013-03-03T14:40:35Z</time>
      </trkpt>
      <trkpt lat="43.71367" lon="3.46094">
        <ele>527.9</ele>
        <time>2013-03-03T14:40:52Z</time>
      </trkpt>
      <trkpt lat="43.71369" lon="3.46093">
        <ele>527.9</ele>
        <time>2013-03-03T14:41:16Z</time>
      </trkpt>
      <trkpt lat="43.71373" lon="3.46092">
        <ele>527.9</ele>
        <time>2013-03-03T14:41:46Z</time>
      </trkpt>
      <trkpt lat="43.71377" lon="3.46085">
        <ele>528.38</ele>
        <time>2013-03-03T14:41:59Z</time>
      </trkpt>
      <trkpt lat="43.71377" lon="3.46082">
        <ele>528.86</ele>
        <time>2013-03-03T14:42:02Z</time>
      </trkpt>
      <trkpt lat="43.71382" lon="3.46068">
        <ele>529.34</ele>
        <time>2013-03-03T14:42:18Z</time>
      </trkpt>
      <trkpt lat="43.71384" lon="3.46064">
        <ele>528.86</ele>
        <time>2013-03-03T14:42:32Z</time>
      </trkpt>
      <trkpt lat="43.71382" lon="3.46061">
        <ele>528.86</ele>
        <time>2013-03-03T14:43:02Z</time>
      </trkpt>
      <trkpt lat="43.71383" lon="3.46061">
        <ele>528.86</ele>
        <time>2013-03-03T14:43:33Z</time>
      </trkpt>
      <trkpt lat="43.71385" lon="3.4607">
        <ele>529.34</ele>
        <time>2013-03-03T14:43:50Z</time>
      </trkpt>
      <trkpt lat="43.71385" lon="3.46072">
        <ele>529.82</ele>
        <time>2013-03-03T14:44:04Z</time>
      </trkpt>
      <trkpt lat="43.71384" lon="3.46072">
        <ele>530.3</ele>
        <time>2013-03-03T14:44:21Z</time>
      </trkpt>
      <trkpt lat="43.71387" lon="3.46075">
        <ele>530.3</ele>
        <time>2013-03-03T14:44:41Z</time>
      </trkpt>
      <trkpt lat="43.7139" lon="3.46079">
        <ele>531.27</ele>
        <time>2013-03-03T14:44:56Z</time>
      </trkpt>
      <trkpt lat="43.71389" lon="3.46078">
        <ele>531.27</ele>
        <time>2013-03-03T14:45:19Z</time>
      </trkpt>
      <trkpt lat="43.71389" lon="3.46079">
        <ele>531.27</ele>
        <time>2013-03-03T14:45:44Z</time>
      </trkpt>
      <trkpt lat="43.7139" lon="3.4608">
        <ele>531.27</ele>
        <time>2013-03-03T14:46:00Z</time>
      </trkpt>
      <trkpt lat="43.71387" lon="3.4608">
        <ele>531.27</ele>
        <time>2013-03-03T14:46:16Z</time>
      </trkpt>
      <trkpt lat="43.71387" lon="3.46078">
        <ele>531.75</ele>
        <time>2013-03-03T14:46:37Z</time>
      </trkpt>
      <trkpt lat="43.7138" lon="3.46073">
        <ele>530.79</ele>
        <time>2013-03-03T14:46:53Z</time>
      </trkpt>
      <trkpt lat="43.71372" lon="3.46075">
        <ele>529.82</ele>
        <time>2013-03-03T14:47:04Z</time>
      </trkpt>
      <trkpt lat="43.71361" lon="3.46074">
        <ele>529.34</ele>
        <time>2013-03-03T14:47:19Z</time>
      </trkpt>
      <trkpt lat="43.71359" lon="3.46071">
        <ele>529.82</ele>
        <time>2013-03-03T14:47:42Z</time>
      </trkpt>
      <trkpt lat="43.71358" lon="3.46071">
        <ele>529.34</ele>
        <time>2013-03-03T14:48:00Z</time>
      </trkpt>
      <trkpt lat="43.71359" lon="3.46071">
        <ele>529.82</ele>
        <time>2013-03-03T14:48:20Z</time>
      </trkpt>
      <trkpt lat="43.7136" lon="3.46074">
        <ele>529.34</ele>
        <time>2013-03-03T14:48:36Z</time>
      </trkpt>
      <trkpt lat="43.7136" lon="3.46073">
        <ele>529.82</ele>
        <time>2013-03-03T14:48:51Z</time>
      </trkpt>
      <trkpt lat="43.71359" lon="3.46073">
        <ele>529.34</ele>
        <time>2013-03-03T14:49:10Z</time>
      </trkpt>
      <trkpt lat="43.71359" lon="3.4607">
        <ele>529.82</ele>
        <time>2013-03-03T14:49:33Z</time>
      </trkpt>
      <trkpt lat="43.71361" lon="3.46072">
        <ele>529.34</ele>
        <time>2013-03-03T14:49:54Z</time>
      </trkpt>
      <trkpt lat="43.71359" lon="3.46071">
        <ele>529.34</ele>
        <time>2013-03-03T14:50:11Z</time>
      </trkpt>
      <trkpt lat="43.71361" lon="3.46069">
        <ele>529.34</ele>
        <time>2013-03-03T14:50:31Z</time>
      </trkpt>
      <trkpt lat="43.7136" lon="3.46068">
        <ele>529.82</ele>
        <time>2013-03-03T14:50:54Z</time>
      </trkpt>
      <trkpt lat="43.71359" lon="3.46066">
        <ele>529.34</ele>
        <time>2013-03-03T14:51:11Z</time>
      </trkpt>
      <trkpt lat="43.71358" lon="3.46067">
        <ele>528.86</ele>
        <time>2013-03-03T14:51:35Z</time>
      </trkpt>
      <trkpt lat="43.71357" lon="3.46067">
        <ele>529.34</ele>
        <time>2013-03-03T14:51:59Z</time>
      </trkpt>
      <trkpt lat="43.71359" lon="3.46064">
        <ele>529.34</ele>
        <time>2013-03-03T14:52:15Z</time>
      </trkpt>
      <trkpt lat="43.71357" lon="3.46067">
        <ele>529.34</ele>
        <time>2013-03-03T14:52:42Z</time>
      </trkpt>
      <trkpt lat="43.71357" lon="3.46071">
        <ele>529.82</ele>
        <time>2013-03-03T14:53:01Z</time>
      </trkpt>
      <trkpt lat="43.71357" lon="3.46072">
        <ele>529.82</ele>
        <time>2013-03-03T14:53:32Z</time>
      </trkpt>
      <trkpt lat="43.71362" lon="3.46074">
        <ele>529.82</ele>
        <time>2013-03-03T14:53:49Z</time>
      </trkpt>
      <trkpt lat="43.71362" lon="3.46072">
        <ele>529.82</ele>
        <time>2013-03-03T14:54:05Z</time>
      </trkpt>
      <trkpt lat="43.71362" lon="3.4607">
        <ele>529.82</ele>
        <time>2013-03-03T14:54:20Z</time>
      </trkpt>
      <trkpt lat="43.71361" lon="3.46069">
        <ele>530.3</ele>
        <time>2013-03-03T14:54:42Z</time>
      </trkpt>
      <trkpt lat="43.71362" lon="3.46065">
        <ele>530.3</ele>
        <time>2013-03-03T14:55:02Z</time>
      </trkpt>
      <trkpt lat="43.71361" lon="3.4607">
        <ele>530.3</ele>
        <time>2013-03-03T14:55:15Z</time>
      </trkpt>
      <trkpt lat="43.71362" lon="3.46074">
        <ele>530.3</ele>
        <time>2013-03-03T14:55:32Z</time>
      </trkpt>
      <trkpt lat="43.71362" lon="3.46077">
        <ele>530.3</ele>
        <time>2013-03-03T14:55:46Z</time>
      </trkpt>
      <trkpt lat="43.71362" lon="3.46074">
        <ele>530.3</ele>
        <time>2013-03-03T14:56:03Z</time>
      </trkpt>
      <trkpt lat="43.71363" lon="3.46069">
        <ele>530.3</ele>
        <time>2013-03-03T14:56:18Z</time>
      </trkpt>
      <trkpt lat="43.71361" lon="3.46069">
        <ele>530.79</ele>
        <time>2013-03-03T14:56:31Z</time>
      </trkpt>
      <trkpt lat="43.71362" lon="3.46066">
        <ele>530.79</ele>
        <time>2013-03-03T14:56:51Z</time>
      </trkpt>
      <trkpt lat="43.7136" lon="3.46071">
        <ele>530.79</ele>
        <time>2013-03-03T14:57:05Z</time>
      </trkpt>
      <trkpt lat="43.7136" lon="3.46074">
        <ele>530.3</ele>
        <time>2013-03-03T14:57:19Z</time>
      </trkpt>
      <trkpt lat="43.71365" lon="3.46071">
        <ele>530.79</ele>
        <time>2013-03-03T14:57:39Z</time>
      </trkpt>
      <trkpt lat="43.71366" lon="3.46072">
        <ele>530.79</ele>
        <time>2013-03-03T14:57:53Z</time>
      </trkpt>
      <trkpt lat="43.71358" lon="3.46068">
        <ele>530.79</ele>
        <time>2013-03-03T14:58:14Z</time>
      </trkpt>
      <trkpt lat="43.71359" lon="3.46066">
        <ele>530.3</ele>
        <time>2013-03-03T14:58:28Z</time>
      </trkpt>
      <trkpt lat="43.71358" lon="3.46065">
        <ele>530.3</ele>
        <time>2013-03-03T14:58:45Z</time>
      </trkpt>
      <trkpt lat="43.71358" lon="3.46068">
        <ele>530.3</ele>
        <time>2013-03-03T14:59:03Z</time>
      </trkpt>
      <trkpt lat="43.7136" lon="3.46072">
        <ele>531.27</ele>
        <time>2013-03-03T14:59:26Z</time>
      </trkpt>
      <trkpt lat="43.71357" lon="3.46066">
        <ele>530.3</ele>
        <time>2013-03-03T14:59:36Z</time>
      </trkpt>
      <trkpt lat="43.7136" lon="3.46065">
        <ele>530.3</ele>
        <time>2013-03-03T15:00:01Z</time>
      </trkpt>
      <trkpt lat="43.71359" lon="3.46069">
        <ele>530.3</ele>
        <time>2013-03-03T15:00:18Z</time>
      </trkpt>
      <trkpt lat="43.7136" lon="3.46073">
        <ele>530.79</ele>
        <time>2013-03-03T15:00:28Z</time>
      </trkpt>
      <trkpt lat="43.71358" lon="3.46072">
        <ele>530.79</ele>
        <time>2013-03-03T15:00:49Z</time>
      </trkpt>
      <trkpt lat="43.71359" lon="3.46073">
        <ele>530.79</ele>
        <time>2013-03-03T15:01:07Z</time>
      </trkpt>
      <trkpt lat="43.7136" lon="3.46073">
        <ele>531.27</ele>
        <time>2013-03-03T15:01:36Z</time>
      </trkpt>
      <trkpt lat="43.71359" lon="3.46072">
        <ele>530.79</ele>
        <time>2013-03-03T15:01:53Z</time>
      </trkpt>
      <trkpt lat="43.71359" lon="3.46071">
        <ele>530.79</ele>
        <time>2013-03-03T15:02:14Z</time>
      </trkpt>
      <trkpt lat="43.71361" lon="3.4607">
        <ele>530.3</ele>
        <time>2013-03-03T15:02:40Z</time>
      </trkpt>
      <trkpt lat="43.7136" lon="3.4607">
        <ele>530.3</ele>
        <time>2013-03-03T15:02:54Z</time>
      </trkpt>
      <trkpt lat="43.71362" lon="3.46074">
        <ele>530.3</ele>
        <time>2013-03-03T15:03:09Z</time>
      </trkpt>
      <trkpt lat="43.71366" lon="3.46092">
        <ele>529.82</ele>
        <time>2013-03-03T15:03:26Z</time>
      </trkpt>
      <trkpt lat="43.71365" lon="3.46094">
        <ele>529.34</ele>
        <time>2013-03-03T15:04:02Z</time>
      </trkpt>
      <trkpt lat="43.71362" lon="3.46081">
        <ele>529.82</ele>
        <time>2013-03-03T15:04:20Z</time>
      </trkpt>
      <trkpt lat="43.7136" lon="3.46074">
        <ele>530.3</ele>
        <time>2013-03-03T15:04:35Z</time>
      </trkpt>
      <trkpt lat="43.71357" lon="3.46071">
        <ele>530.3</ele>
        <time>2013-03-03T15:04:54Z</time>
      </trkpt>
      <trkpt lat="43.71357" lon="3.46069">
        <ele>529.82</ele>
        <time>2013-03-03T15:05:12Z</time>
      </trkpt>
      <trkpt lat="43.71358" lon="3.46069">
        <ele>529.82</ele>
        <time>2013-03-03T15:05:34Z</time>
      </trkpt>
      <trkpt lat="43.71362" lon="3.46075">
        <ele>529.82</ele>
        <time>2013-03-03T15:05:48Z</time>
      </trkpt>
      <trkpt lat="43.7136" lon="3.4608">
        <ele>528.86</ele>
        <time>2013-03-03T15:06:00Z</time>
      </trkpt>
      <trkpt lat="43.71364" lon="3.46088">
        <ele>529.82</ele>
        <time>2013-03-03T15:06:17Z</time>
      </trkpt>
      <trkpt lat="43.71365" lon="3.46093">
        <ele>529.82</ele>
        <time>2013-03-03T15:06:35Z</time>
      </trkpt>
      <trkpt lat="43.71365" lon="3.46093">
        <ele>529.34</ele>
        <time>2013-03-03T15:07:05Z</time>
      </trkpt>
      <trkpt lat="43.7137" lon="3.46089">
        <ele>528.86</ele>
        <time>2013-03-03T15:07:21Z</time>
      </trkpt>
      <trkpt lat="43.71376" lon="3.46083">
        <ele>530.79</ele>
        <time>2013-03-03T15:07:35Z</time>
      </trkpt>
      <trkpt lat="43.71384" lon="3.46085">
        <ele>532.23</ele>
        <time>2013-03-03T15:07:50Z</time>
      </trkpt>
      <trkpt lat="43.71386" lon="3.46082">
        <ele>532.23</ele>
        <time>2013-03-03T15:08:05Z</time>
      </trkpt>
      <trkpt lat="43.71387" lon="3.46082">
        <ele>532.23</ele>
        <time>2013-03-03T15:08:21Z</time>
      </trkpt>
      <trkpt lat="43.71387" lon="3.46079">
        <ele>531.27</ele>
        <time>2013-03-03T15:08:46Z</time>
      </trkpt>
      <trkpt lat="43.71386" lon="3.4607">
        <ele>530.79</ele>
        <time>2013-03-03T15:09:00Z</time>
      </trkpt>
      <trkpt lat="43.71385" lon="3.46066">
        <ele>530.79</ele>
        <time>2013-03-03T15:09:13Z</time>
      </trkpt>
      <trkpt lat="43.71384" lon="3.46066">
        <ele>530.3</ele>
        <time>2013-03-03T15:09:33Z</time>
      </trkpt>
      <trkpt lat="43.7138" lon="3.46067">
        <ele>530.3</ele>
        <time>2013-03-03T15:09:47Z</time>
      </trkpt>
      <trkpt lat="43.71377" lon="3.4607">
        <ele>530.3</ele>
        <time>2013-03-03T15:10:11Z</time>
      </trkpt>
      <trkpt lat="43.71362" lon="3.46071">
        <ele>529.82</ele>
        <time>2013-03-03T15:10:27Z</time>
      </trkpt>
      <trkpt lat="43.71358" lon="3.46069">
        <ele>529.34</ele>
        <time>2013-03-03T15:10:41Z</time>
      </trkpt>
      <trkpt lat="43.71355" lon="3.46067">
        <ele>528.38</ele>
        <time>2013-03-03T15:10:56Z</time>
      </trkpt>
      <trkpt lat="43.71351" lon="3.46069">
        <ele>526.46</ele>
        <time>2013-03-03T15:11:08Z</time>
      </trkpt>
      <trkpt lat="43.71346" lon="3.46069">
        <ele>525.5</ele>
        <time>2013-03-03T15:11:21Z</time>
      </trkpt>
      <trkpt lat="43.71341" lon="3.4607">
        <ele>524.06</ele>
        <time>2013-03-03T15:11:36Z</time>
      </trkpt>
      <trkpt lat="43.71338" lon="3.46067">
        <ele>523.09</ele>
        <time>2013-03-03T15:11:53Z</time>
      </trkpt>
      <trkpt lat="43.71339" lon="3.46065">
        <ele>524.06</ele>
        <time>2013-03-03T15:12:05Z</time>
      </trkpt>
      <trkpt lat="43.71339" lon="3.46064">
        <ele>524.54</ele>
        <time>2013-03-03T15:12:27Z</time>
      </trkpt>
      <trkpt lat="43.7134" lon="3.46062">
        <ele>523.58</ele>
        <time>2013-03-03T15:12:43Z</time>
      </trkpt>
      <trkpt lat="43.71333" lon="3.46058">
        <ele>520.69</ele>
        <time>2013-03-03T15:12:57Z</time>
      </trkpt>
      <trkpt lat="43.71326" lon="3.46056">
        <ele>518.29</ele>
        <time>2013-03-03T15:13:10Z</time>
      </trkpt>
      <trkpt lat="43.71325" lon="3.46055">
        <ele>515.88</ele>
        <time>2013-03-03T15:13:27Z</time>
      </trkpt>
      <trkpt lat="43.71323" lon="3.4605">
        <ele>513</ele>
        <time>2013-03-03T15:13:37Z</time>
      </trkpt>
      <trkpt lat="43.7132" lon="3.46046">
        <ele>513.96</ele>
        <time>2013-03-03T15:13:53Z</time>
      </trkpt>
      <trkpt lat="43.71321" lon="3.46049">
        <ele>514.44</ele>
        <time>2013-03-03T15:14:06Z</time>
      </trkpt>
      <trkpt lat="43.71319" lon="3.46051">
        <ele>513.48</ele>
        <time>2013-03-03T15:14:20Z</time>
      </trkpt>
      <trkpt lat="43.71318" lon="3.46051">
        <ele>513.48</ele>
        <time>2013-03-03T15:14:41Z</time>
      </trkpt>
      <trkpt lat="43.71317" lon="3.46049">
        <ele>513.96</ele>
        <time>2013-03-03T15:15:11Z</time>
      </trkpt>
      <trkpt lat="43.71315" lon="3.46049">
        <ele>513</ele>
        <time>2013-03-03T15:15:40Z</time>
      </trkpt>
      <trkpt lat="43.71316" lon="3.46052">
        <ele>511.08</ele>
        <time>2013-03-03T15:15:55Z</time>
      </trkpt>
      <trkpt lat="43.71316" lon="3.46051">
        <ele>511.08</ele>
        <time>2013-03-03T15:16:10Z</time>
      </trkpt>
      <trkpt lat="43.71315" lon="3.46053">
        <ele>512.04</ele>
        <time>2013-03-03T15:16:27Z</time>
      </trkpt>
      <trkpt lat="43.7131" lon="3.46056">
        <ele>510.12</ele>
        <time>2013-03-03T15:16:45Z</time>
      </trkpt>
      <trkpt lat="43.71309" lon="3.46055">
        <ele>506.75</ele>
        <time>2013-03-03T15:17:00Z</time>
      </trkpt>
      <trkpt lat="43.71307" lon="3.46051">
        <ele>506.27</ele>
        <time>2013-03-03T15:17:06Z</time>
      </trkpt>
      <trkpt lat="43.71302" lon="3.46055">
        <ele>506.27</ele>
        <time>2013-03-03T15:17:25Z</time>
      </trkpt>
      <trkpt lat="43.71296" lon="3.46073">
        <ele>505.31</ele>
        <time>2013-03-03T15:17:49Z</time>
      </trkpt>
      <trkpt lat="43.71294" lon="3.46079">
        <ele>505.31</ele>
        <time>2013-03-03T15:17:54Z</time>
      </trkpt>
      <trkpt lat="43.71301" lon="3.46079">
        <ele>503.39</ele>
        <time>2013-03-03T15:18:12Z</time>
      </trkpt>
      <trkpt lat="43.713" lon="3.46083">
        <ele>500.5</ele>
        <time>2013-03-03T15:18:34Z</time>
      </trkpt>
      <trkpt lat="43.71298" lon="3.46089">
        <ele>499.06</ele>
        <time>2013-03-03T15:18:40Z</time>
      </trkpt>
      <trkpt lat="43.71294" lon="3.46086">
        <ele>498.58</ele>
        <time>2013-03-03T15:18:52Z</time>
      </trkpt>
      <trkpt lat="43.71294" lon="3.46085">
        <ele>498.58</ele>
        <time>2013-03-03T15:18:53Z</time>
      </trkpt>
      <trkpt lat="43.71285" lon="3.46079">
        <ele>496.66</ele>
        <time>2013-03-03T15:19:07Z</time>
      </trkpt>
      <trkpt lat="43.71272" lon="3.46069">
        <ele>495.7</ele>
        <time>2013-03-03T15:19:24Z</time>
      </trkpt>
      <trkpt lat="43.71267" lon="3.46053">
        <ele>493.77</ele>
        <time>2013-03-03T15:19:41Z</time>
      </trkpt>
      <trkpt lat="43.71252" lon="3.46055">
        <ele>491.37</ele>
        <time>2013-03-03T15:19:56Z</time>
      </trkpt>
      <trkpt lat="43.71249" lon="3.46056">
        <ele>490.41</ele>
        <time>2013-03-03T15:19:59Z</time>
      </trkpt>
      <trkpt lat="43.71245" lon="3.46056">
        <ele>489.93</ele>
        <time>2013-03-03T15:20:03Z</time>
      </trkpt>
      <trkpt lat="43.71243" lon="3.46057">
        <ele>489.93</ele>
        <time>2013-03-03T15:20:05Z</time>
      </trkpt>
      <trkpt lat="43.71232" lon="3.46053">
        <ele>487.53</ele>
        <time>2013-03-03T15:20:20Z</time>
      </trkpt>
      <trkpt lat="43.71229" lon="3.46053">
        <ele>487.53</ele>
        <time>2013-03-03T15:20:36Z</time>
      </trkpt>
      <trkpt lat="43.71228" lon="3.46055">
        <ele>488.01</ele>
        <time>2013-03-03T15:20:49Z</time>
      </trkpt>
      <trkpt lat="43.71226" lon="3.46057">
        <ele>487.53</ele>
        <time>2013-03-03T15:20:55Z</time>
      </trkpt>
      <trkpt lat="43.71225" lon="3.46063">
        <ele>487.05</ele>
        <time>2013-03-03T15:20:59Z</time>
      </trkpt>
      <trkpt lat="43.71212" lon="3.46085">
        <ele>484.64</ele>
        <time>2013-03-03T15:21:18Z</time>
      </trkpt>
      <trkpt lat="43.71208" lon="3.46088">
        <ele>484.64</ele>
        <time>2013-03-03T15:21:25Z</time>
      </trkpt>
      <trkpt lat="43.71197" lon="3.46091">
        <ele>483.68</ele>
        <time>2013-03-03T15:21:39Z</time>
      </trkpt>
      <trkpt lat="43.71194" lon="3.46093">
        <ele>483.2</ele>
        <time>2013-03-03T15:21:42Z</time>
      </trkpt>
      <trkpt lat="43.71178" lon="3.46096">
        <ele>480.8</ele>
        <time>2013-03-03T15:21:58Z</time>
      </trkpt>
      <trkpt lat="43.71171" lon="3.46092">
        <ele>479.84</ele>
        <time>2013-03-03T15:22:05Z</time>
      </trkpt>
      <trkpt lat="43.71163" lon="3.46088">
        <ele>478.87</ele>
        <time>2013-03-03T15:22:11Z</time>
      </trkpt>
      <trkpt lat="43.71151" lon="3.46084">
        <ele>477.91</ele>
        <time>2013-03-03T15:22:16Z</time>
      </trkpt>
      <trkpt lat="43.71129" lon="3.46073">
        <ele>474.55</ele>
        <time>2013-03-03T15:22:25Z</time>
      </trkpt>
      <trkpt lat="43.7113" lon="3.46084">
        <ele>472.14</ele>
        <time>2013-03-03T15:22:31Z</time>
      </trkpt>
      <trkpt lat="43.71154" lon="3.46107">
        <ele>471.66</ele>
        <time>2013-03-03T15:22:45Z</time>
      </trkpt>
      <trkpt lat="43.71162" lon="3.4612">
        <ele>470.22</ele>
        <time>2013-03-03T15:22:56Z</time>
      </trkpt>
      <trkpt lat="43.71164" lon="3.46123">
        <ele>470.22</ele>
        <time>2013-03-03T15:22:58Z</time>
      </trkpt>
      <trkpt lat="43.71173" lon="3.46131">
        <ele>469.26</ele>
        <time>2013-03-03T15:23:06Z</time>
      </trkpt>
      <trkpt lat="43.71179" lon="3.46133">
        <ele>468.78</ele>
        <time>2013-03-03T15:23:10Z</time>
      </trkpt>
      <trkpt lat="43.71192" lon="3.46139">
        <ele>466.38</ele>
        <time>2013-03-03T15:23:22Z</time>
      </trkpt>
      <trkpt lat="43.71205" lon="3.46146">
        <ele>462.53</ele>
        <time>2013-03-03T15:23:34Z</time>
      </trkpt>
      <trkpt lat="43.71219" lon="3.46149">
        <ele>459.65</ele>
        <time>2013-03-03T15:23:45Z</time>
      </trkpt>
      <trkpt lat="43.71231" lon="3.46157">
        <ele>456.28</ele>
        <time>2013-03-03T15:23:56Z</time>
      </trkpt>
      <trkpt lat="43.71235" lon="3.46159">
        <ele>455.8</ele>
        <time>2013-03-03T15:23:59Z</time>
      </trkpt>
      <trkpt lat="43.71235" lon="3.46165">
        <ele>455.32</ele>
        <time>2013-03-03T15:24:03Z</time>
      </trkpt>
      <trkpt lat="43.71214" lon="3.46178">
        <ele>454.36</ele>
        <time>2013-03-03T15:24:22Z</time>
      </trkpt>
      <trkpt lat="43.71198" lon="3.46184">
        <ele>453.4</ele>
        <time>2013-03-03T15:24:34Z</time>
      </trkpt>
      <trkpt lat="43.71178" lon="3.4619">
        <ele>451.96</ele>
        <time>2013-03-03T15:24:49Z</time>
      </trkpt>
      <trkpt lat="43.71159" lon="3.46193">
        <ele>451</ele>
        <time>2013-03-03T15:25:04Z</time>
      </trkpt>
      <trkpt lat="43.71138" lon="3.46181">
        <ele>450.03</ele>
        <time>2013-03-03T15:25:21Z</time>
      </trkpt>
      <trkpt lat="43.71123" lon="3.46165">
        <ele>449.07</ele>
        <time>2013-03-03T15:25:35Z</time>
      </trkpt>
      <trkpt lat="43.71106" lon="3.46147">
        <ele>448.11</ele>
        <time>2013-03-03T15:25:50Z</time>
      </trkpt>
      <trkpt lat="43.71091" lon="3.46126">
        <ele>447.15</ele>
        <time>2013-03-03T15:26:05Z</time>
      </trkpt>
      <trkpt lat="43.71075" lon="3.46109">
        <ele>446.19</ele>
        <time>2013-03-03T15:26:21Z</time>
      </trkpt>
      <trkpt lat="43.71064" lon="3.46095">
        <ele>445.71</ele>
        <time>2013-03-03T15:26:31Z</time>
      </trkpt>
      <trkpt lat="43.71046" lon="3.4607">
        <ele>444.27</ele>
        <time>2013-03-03T15:26:50Z</time>
      </trkpt>
      <trkpt lat="43.7103" lon="3.46047">
        <ele>443.31</ele>
        <time>2013-03-03T15:27:07Z</time>
      </trkpt>
      <trkpt lat="43.71015" lon="3.46022">
        <ele>441.86</ele>
        <time>2013-03-03T15:27:24Z</time>
      </trkpt>
      <trkpt lat="43.71002" lon="3.46001">
        <ele>439.94</ele>
        <time>2013-03-03T15:27:41Z</time>
      </trkpt>
      <trkpt lat="43.70985" lon="3.45984">
        <ele>438.5</ele>
        <time>2013-03-03T15:27:57Z</time>
      </trkpt>
      <trkpt lat="43.70972" lon="3.45974">
        <ele>437.54</ele>
        <time>2013-03-03T15:28:09Z</time>
      </trkpt>
      <trkpt lat="43.70972" lon="3.45968">
        <ele>436.58</ele>
        <time>2013-03-03T15:28:13Z</time>
      </trkpt>
      <trkpt lat="43.70974" lon="3.45955">
        <ele>433.21</ele>
        <time>2013-03-03T15:28:26Z</time>
      </trkpt>
      <trkpt lat="43.70966" lon="3.45946">
        <ele>430.33</ele>
        <time>2013-03-03T15:28:39Z</time>
      </trkpt>
      <trkpt lat="43.70962" lon="3.45938">
        <ele>426.96</ele>
        <time>2013-03-03T15:28:49Z</time>
      </trkpt>
      <trkpt lat="43.70957" lon="3.45928">
        <ele>424.08</ele>
        <time>2013-03-03T15:29:00Z</time>
      </trkpt>
      <trkpt lat="43.70953" lon="3.45919">
        <ele>420.71</ele>
        <time>2013-03-03T15:29:10Z</time>
      </trkpt>
      <trkpt lat="43.70951" lon="3.45911">
        <ele>418.31</ele>
        <time>2013-03-03T15:29:18Z</time>
      </trkpt>
      <trkpt lat="43.70948" lon="3.45906">
        <ele>416.39</ele>
        <time>2013-03-03T15:29:23Z</time>
      </trkpt>
      <trkpt lat="43.70944" lon="3.459">
        <ele>414.47</ele>
        <time>2013-03-03T15:29:30Z</time>
      </trkpt>
      <trkpt lat="43.70938" lon="3.4589">
        <ele>411.58</ele>
        <time>2013-03-03T15:29:40Z</time>
      </trkpt>
      <trkpt lat="43.70937" lon="3.45887">
        <ele>411.1</ele>
        <time>2013-03-03T15:29:42Z</time>
      </trkpt>
      <trkpt lat="43.70935" lon="3.45881">
        <ele>409.18</ele>
        <time>2013-03-03T15:29:47Z</time>
      </trkpt>
      <trkpt lat="43.70934" lon="3.45877">
        <ele>407.74</ele>
        <time>2013-03-03T15:29:50Z</time>
      </trkpt>
      <trkpt lat="43.70934" lon="3.45876">
        <ele>407.74</ele>
        <time>2013-03-03T15:29:51Z</time>
      </trkpt>
      <trkpt lat="43.7093" lon="3.45868">
        <ele>406.29</ele>
        <time>2013-03-03T15:29:57Z</time>
      </trkpt>
      <trkpt lat="43.70932" lon="3.4586">
        <ele>404.37</ele>
        <time>2013-03-03T15:30:02Z</time>
      </trkpt>
      <trkpt lat="43.70934" lon="3.45852">
        <ele>402.45</ele>
        <time>2013-03-03T15:30:07Z</time>
      </trkpt>
      <trkpt lat="43.70946" lon="3.45837">
        <ele>399.08</ele>
        <time>2013-03-03T15:30:22Z</time>
      </trkpt>
      <trkpt lat="43.70963" lon="3.4582">
        <ele>396.68</ele>
        <time>2013-03-03T15:30:39Z</time>
      </trkpt>
      <trkpt lat="43.70979" lon="3.45804">
        <ele>395.24</ele>
        <time>2013-03-03T15:30:55Z</time>
      </trkpt>
      <trkpt lat="43.70996" lon="3.45792">
        <ele>392.36</ele>
        <time>2013-03-03T15:31:11Z</time>
      </trkpt>
      <trkpt lat="43.71022" lon="3.45791">
        <ele>389.95</ele>
        <time>2013-03-03T15:31:30Z</time>
      </trkpt>
      <trkpt lat="43.71048" lon="3.45794">
        <ele>388.99</ele>
        <time>2013-03-03T15:31:49Z</time>
      </trkpt>
      <trkpt lat="43.71069" lon="3.45798">
        <ele>388.03</ele>
        <time>2013-03-03T15:32:06Z</time>
      </trkpt>
      <trkpt lat="43.71093" lon="3.45806">
        <ele>385.63</ele>
        <time>2013-03-03T15:32:25Z</time>
      </trkpt>
      <trkpt lat="43.7111" lon="3.45811">
        <ele>385.15</ele>
        <time>2013-03-03T15:32:39Z</time>
      </trkpt>
      <trkpt lat="43.71114" lon="3.45809">
        <ele>385.15</ele>
        <time>2013-03-03T15:32:49Z</time>
      </trkpt>
      <trkpt lat="43.71134" lon="3.45797">
        <ele>381.3</ele>
        <time>2013-03-03T15:33:09Z</time>
      </trkpt>
      <trkpt lat="43.71135" lon="3.45796">
        <ele>381.3</ele>
        <time>2013-03-03T15:33:10Z</time>
      </trkpt>
      <trkpt lat="43.7114" lon="3.45786">
        <ele>377.94</ele>
        <time>2013-03-03T15:33:21Z</time>
      </trkpt>
      <trkpt lat="43.71142" lon="3.45782">
        <ele>376.01</ele>
        <time>2013-03-03T15:33:26Z</time>
      </trkpt>
      <trkpt lat="43.71144" lon="3.45776">
        <ele>374.57</ele>
        <time>2013-03-03T15:33:30Z</time>
      </trkpt>
      <trkpt lat="43.71144" lon="3.45765">
        <ele>371.21</ele>
        <time>2013-03-03T15:33:37Z</time>
      </trkpt>
      <trkpt lat="43.71144" lon="3.45763">
        <ele>370.73</ele>
        <time>2013-03-03T15:33:39Z</time>
      </trkpt>
      <trkpt lat="43.71143" lon="3.4576">
        <ele>369.76</ele>
        <time>2013-03-03T15:33:41Z</time>
      </trkpt>
      <trkpt lat="43.71142" lon="3.45757">
        <ele>368.8</ele>
        <time>2013-03-03T15:33:43Z</time>
      </trkpt>
      <trkpt lat="43.71141" lon="3.45747">
        <ele>365.92</ele>
        <time>2013-03-03T15:33:52Z</time>
      </trkpt>
      <trkpt lat="43.71138" lon="3.45734">
        <ele>362.07</ele>
        <time>2013-03-03T15:34:01Z</time>
      </trkpt>
      <trkpt lat="43.71137" lon="3.4572">
        <ele>359.19</ele>
        <time>2013-03-03T15:34:10Z</time>
      </trkpt>
      <trkpt lat="43.71136" lon="3.45708">
        <ele>356.31</ele>
        <time>2013-03-03T15:34:21Z</time>
      </trkpt>
      <trkpt lat="43.71136" lon="3.45704">
        <ele>356.79</ele>
        <time>2013-03-03T15:34:43Z</time>
      </trkpt>
      <trkpt lat="43.71136" lon="3.45705">
        <ele>356.79</ele>
        <time>2013-03-03T15:35:17Z</time>
      </trkpt>
      <trkpt lat="43.71135" lon="3.45705">
        <ele>356.79</ele>
        <time>2013-03-03T15:35:35Z</time>
      </trkpt>
      <trkpt lat="43.7114" lon="3.45707">
        <ele>356.79</ele>
        <time>2013-03-03T15:36:10Z</time>
      </trkpt>
      <trkpt lat="43.71139" lon="3.45708">
        <ele>356.79</ele>
        <time>2013-03-03T15:36:40Z</time>
      </trkpt>
      <trkpt lat="43.71137" lon="3.45705">
        <ele>356.31</ele>
        <time>2013-03-03T15:37:14Z</time>
      </trkpt>
      <trkpt lat="43.71129" lon="3.4569">
        <ele>353.9</ele>
        <time>2013-03-03T15:37:27Z</time>
      </trkpt>
      <trkpt lat="43.71128" lon="3.4567">
        <ele>351.5</ele>
        <time>2013-03-03T15:37:40Z</time>
      </trkpt>
      <trkpt lat="43.7114" lon="3.45662">
        <ele>348.13</ele>
        <time>2013-03-03T15:37:51Z</time>
      </trkpt>
      <trkpt lat="43.71148" lon="3.45656">
        <ele>347.17</ele>
        <time>2013-03-03T15:38:10Z</time>
      </trkpt>
      <trkpt lat="43.7115" lon="3.45659">
        <ele>347.17</ele>
        <time>2013-03-03T15:38:37Z</time>
      </trkpt>
      <trkpt lat="43.71151" lon="3.45661">
        <ele>346.69</ele>
        <time>2013-03-03T15:39:03Z</time>
      </trkpt>
      <trkpt lat="43.7115" lon="3.45659">
        <ele>347.17</ele>
        <time>2013-03-03T15:39:28Z</time>
      </trkpt>
      <trkpt lat="43.71148" lon="3.45665">
        <ele>347.17</ele>
        <time>2013-03-03T15:39:39Z</time>
      </trkpt>
      <trkpt lat="43.71153" lon="3.45684">
        <ele>347.65</ele>
        <time>2013-03-03T15:39:57Z</time>
      </trkpt>
      <trkpt lat="43.71153" lon="3.45658">
        <ele>347.65</ele>
        <time>2013-03-03T15:40:24Z</time>
      </trkpt>
      <trkpt lat="43.71148" lon="3.45656">
        <ele>347.65</ele>
        <time>2013-03-03T15:40:46Z</time>
      </trkpt>
      <trkpt lat="43.71148" lon="3.45648">
        <ele>346.21</ele>
        <time>2013-03-03T15:40:56Z</time>
      </trkpt>
      <trkpt lat="43.71146" lon="3.45643">
        <ele>344.29</ele>
        <time>2013-03-03T15:41:01Z</time>
      </trkpt>
      <trkpt lat="43.71142" lon="3.45631">
        <ele>340.44</ele>
        <time>2013-03-03T15:41:09Z</time>
      </trkpt>
      <trkpt lat="43.71146" lon="3.45627">
        <ele>338.52</ele>
        <time>2013-03-03T15:41:12Z</time>
      </trkpt>
      <trkpt lat="43.71155" lon="3.45617">
        <ele>335.16</ele>
        <time>2013-03-03T15:41:18Z</time>
      </trkpt>
      <trkpt lat="43.71161" lon="3.45609">
        <ele>332.75</ele>
        <time>2013-03-03T15:41:23Z</time>
      </trkpt>
      <trkpt lat="43.71174" lon="3.45596">
        <ele>329.39</ele>
        <time>2013-03-03T15:41:36Z</time>
      </trkpt>
      <trkpt lat="43.71193" lon="3.45592">
        <ele>326.99</ele>
        <time>2013-03-03T15:41:51Z</time>
      </trkpt>
      <trkpt lat="43.71211" lon="3.45599">
        <ele>325.54</ele>
        <time>2013-03-03T15:42:05Z</time>
      </trkpt>
      <trkpt lat="43.71237" lon="3.45607">
        <ele>324.1</ele>
        <time>2013-03-03T15:42:23Z</time>
      </trkpt>
      <trkpt lat="43.71255" lon="3.45606">
        <ele>320.74</ele>
        <time>2013-03-03T15:42:37Z</time>
      </trkpt>
      <trkpt lat="43.71262" lon="3.45605">
        <ele>319.78</ele>
        <time>2013-03-03T15:42:43Z</time>
      </trkpt>
      <trkpt lat="43.71276" lon="3.45597">
        <ele>316.41</ele>
        <time>2013-03-03T15:42:57Z</time>
      </trkpt>
      <trkpt lat="43.71279" lon="3.45595">
        <ele>315.93</ele>
        <time>2013-03-03T15:43:00Z</time>
      </trkpt>
      <trkpt lat="43.71277" lon="3.45584">
        <ele>312.09</ele>
        <time>2013-03-03T15:43:09Z</time>
      </trkpt>
      <trkpt lat="43.71277" lon="3.45583">
        <ele>311.6</ele>
        <time>2013-03-03T15:43:10Z</time>
      </trkpt>
      <trkpt lat="43.71278" lon="3.45575">
        <ele>309.68</ele>
        <time>2013-03-03T15:43:15Z</time>
      </trkpt>
      <trkpt lat="43.71287" lon="3.45556">
        <ele>307.28</ele>
        <time>2013-03-03T15:43:27Z</time>
      </trkpt>
      <trkpt lat="43.71307" lon="3.45534">
        <ele>303.91</ele>
        <time>2013-03-03T15:43:45Z</time>
      </trkpt>
      <trkpt lat="43.71312" lon="3.45526">
        <ele>302.47</ele>
        <time>2013-03-03T15:43:52Z</time>
      </trkpt>
      <trkpt lat="43.7131" lon="3.45517">
        <ele>300.07</ele>
        <time>2013-03-03T15:43:57Z</time>
      </trkpt>
      <trkpt lat="43.71305" lon="3.45513">
        <ele>299.11</ele>
        <time>2013-03-03T15:44:01Z</time>
      </trkpt>
      <trkpt lat="43.71296" lon="3.4551">
        <ele>297.67</ele>
        <time>2013-03-03T15:44:08Z</time>
      </trkpt>
      <trkpt lat="43.71272" lon="3.45513">
        <ele>294.3</ele>
        <time>2013-03-03T15:44:24Z</time>
      </trkpt>
      <trkpt lat="43.71264" lon="3.45514">
        <ele>292.38</ele>
        <time>2013-03-03T15:44:30Z</time>
      </trkpt>
      <trkpt lat="43.71242" lon="3.45501">
        <ele>289.97</ele>
        <time>2013-03-03T15:44:45Z</time>
      </trkpt>
      <trkpt lat="43.71225" lon="3.45479">
        <ele>289.49</ele>
        <time>2013-03-03T15:44:59Z</time>
      </trkpt>
      <trkpt lat="43.71221" lon="3.45449">
        <ele>286.13</ele>
        <time>2013-03-03T15:45:14Z</time>
      </trkpt>
      <trkpt lat="43.71212" lon="3.45434">
        <ele>283.73</ele>
        <time>2013-03-03T15:45:24Z</time>
      </trkpt>
      <trkpt lat="43.71223" lon="3.45427">
        <ele>282.28</ele>
        <time>2013-03-03T15:45:32Z</time>
      </trkpt>
      <trkpt lat="43.71247" lon="3.45422">
        <ele>278.92</ele>
        <time>2013-03-03T15:45:51Z</time>
      </trkpt>
      <trkpt lat="43.71247" lon="3.45421">
        <ele>278.44</ele>
        <time>2013-03-03T15:45:52Z</time>
      </trkpt>
      <trkpt lat="43.71245" lon="3.45414">
        <ele>277.96</ele>
        <time>2013-03-03T15:45:56Z</time>
      </trkpt>
      <trkpt lat="43.71234" lon="3.45402">
        <ele>275.07</ele>
        <time>2013-03-03T15:46:08Z</time>
      </trkpt>
      <trkpt lat="43.71216" lon="3.45392">
        <ele>272.19</ele>
        <time>2013-03-03T15:46:26Z</time>
      </trkpt>
      <trkpt lat="43.71202" lon="3.45381">
        <ele>268.83</ele>
        <time>2013-03-03T15:46:40Z</time>
      </trkpt>
      <trkpt lat="43.71191" lon="3.45367">
        <ele>265.46</ele>
        <time>2013-03-03T15:46:53Z</time>
      </trkpt>
      <trkpt lat="43.71176" lon="3.45341">
        <ele>264.02</ele>
        <time>2013-03-03T15:47:11Z</time>
      </trkpt>
      <trkpt lat="43.71165" lon="3.45336">
        <ele>262.58</ele>
        <time>2013-03-03T15:47:22Z</time>
      </trkpt>
      <trkpt lat="43.71159" lon="3.45333">
        <ele>262.58</ele>
        <time>2013-03-03T15:47:31Z</time>
      </trkpt>
      <trkpt lat="43.71157" lon="3.45326">
        <ele>262.58</ele>
        <time>2013-03-03T15:47:36Z</time>
      </trkpt>
      <trkpt lat="43.71153" lon="3.45303">
        <ele>259.21</ele>
        <time>2013-03-03T15:47:51Z</time>
      </trkpt>
      <trkpt lat="43.71141" lon="3.45281">
        <ele>256.81</ele>
        <time>2013-03-03T15:48:09Z</time>
      </trkpt>
      <trkpt lat="43.71129" lon="3.45263">
        <ele>254.89</ele>
        <time>2013-03-03T15:48:24Z</time>
      </trkpt>
      <trkpt lat="43.71122" lon="3.45248">
        <ele>252</ele>
        <time>2013-03-03T15:48:35Z</time>
      </trkpt>
      <trkpt lat="43.71112" lon="3.45232">
        <ele>249.12</ele>
        <time>2013-03-03T15:48:49Z</time>
      </trkpt>
      <trkpt lat="43.71097" lon="3.4522">
        <ele>246.23</ele>
        <time>2013-03-03T15:49:05Z</time>
      </trkpt>
      <trkpt lat="43.71087" lon="3.45206">
        <ele>242.87</ele>
        <time>2013-03-03T15:49:18Z</time>
      </trkpt>
      <trkpt lat="43.71073" lon="3.45193">
        <ele>239.51</ele>
        <time>2013-03-03T15:49:34Z</time>
      </trkpt>
      <trkpt lat="43.71061" lon="3.45173">
        <ele>236.14</ele>
        <time>2013-03-03T15:49:49Z</time>
      </trkpt>
      <trkpt lat="43.71052" lon="3.45159">
        <ele>232.78</ele>
        <time>2013-03-03T15:50:01Z</time>
      </trkpt>
      <trkpt lat="43.71046" lon="3.45156">
        <ele>231.81</ele>
        <time>2013-03-03T15:50:07Z</time>
      </trkpt>
      <trkpt lat="43.71042" lon="3.45153">
        <ele>230.85</ele>
        <time>2013-03-03T15:50:11Z</time>
      </trkpt>
      <trkpt lat="43.7104" lon="3.45153">
        <ele>230.37</ele>
        <time>2013-03-03T15:50:13Z</time>
      </trkpt>
      <trkpt lat="43.7102" lon="3.45145">
        <ele>227.01</ele>
        <time>2013-03-03T15:50:29Z</time>
      </trkpt>
      <trkpt lat="43.71001" lon="3.45127">
        <ele>226.05</ele>
        <time>2013-03-03T15:50:47Z</time>
      </trkpt>
      <trkpt lat="43.70991" lon="3.45094">
        <ele>225.09</ele>
        <time>2013-03-03T15:51:05Z</time>
      </trkpt>
      <trkpt lat="43.7098" lon="3.4507">
        <ele>222.68</ele>
        <time>2013-03-03T15:51:21Z</time>
      </trkpt>
      <trkpt lat="43.70969" lon="3.4505">
        <ele>219.32</ele>
        <time>2013-03-03T15:51:36Z</time>
      </trkpt>
      <trkpt lat="43.70951" lon="3.45034">
        <ele>217.88</ele>
        <time>2013-03-03T15:51:52Z</time>
      </trkpt>
      <trkpt lat="43.70929" lon="3.45022">
        <ele>215.47</ele>
        <time>2013-03-03T15:52:11Z</time>
      </trkpt>
      <trkpt lat="43.70911" lon="3.45015">
        <ele>212.59</ele>
        <time>2013-03-03T15:52:26Z</time>
      </trkpt>
      <trkpt lat="43.70892" lon="3.45007">
        <ele>209.7</ele>
        <time>2013-03-03T15:52:42Z</time>
      </trkpt>
      <trkpt lat="43.70874" lon="3.4498">
        <ele>206.82</ele>
        <time>2013-03-03T15:53:01Z</time>
      </trkpt>
      <trkpt lat="43.70856" lon="3.44962">
        <ele>203.94</ele>
        <time>2013-03-03T15:53:18Z</time>
      </trkpt>
      <trkpt lat="43.70861" lon="3.44933">
        <ele>201.53</ele>
        <time>2013-03-03T15:53:35Z</time>
      </trkpt>
      <trkpt lat="43.70887" lon="3.44925">
        <ele>198.65</ele>
        <time>2013-03-03T15:53:54Z</time>
      </trkpt>
      <trkpt lat="43.70906" lon="3.44926">
        <ele>195.77</ele>
        <time>2013-03-03T15:54:09Z</time>
      </trkpt>
      <trkpt lat="43.70917" lon="3.44929">
        <ele>192.4</ele>
        <time>2013-03-03T15:54:20Z</time>
      </trkpt>
      <trkpt lat="43.70928" lon="3.44926">
        <ele>189.04</ele>
        <time>2013-03-03T15:54:31Z</time>
      </trkpt>
      <trkpt lat="43.70929" lon="3.44923">
        <ele>188.56</ele>
        <time>2013-03-03T15:54:33Z</time>
      </trkpt>
      <trkpt lat="43.70923" lon="3.44899">
        <ele>185.19</ele>
        <time>2013-03-03T15:54:50Z</time>
      </trkpt>
      <trkpt lat="43.70914" lon="3.44886">
        <ele>182.31</ele>
        <time>2013-03-03T15:55:03Z</time>
      </trkpt>
      <trkpt lat="43.70909" lon="3.44876">
        <ele>183.27</ele>
        <time>2013-03-03T15:55:11Z</time>
      </trkpt>
      <trkpt lat="43.70903" lon="3.44853">
        <ele>185.67</ele>
        <time>2013-03-03T15:55:27Z</time>
      </trkpt>
      <trkpt lat="43.70928" lon="3.44852">
        <ele>187.59</ele>
        <time>2013-03-03T15:55:46Z</time>
      </trkpt>
      <trkpt lat="43.70933" lon="3.44848">
        <ele>189.04</ele>
        <time>2013-03-03T15:55:52Z</time>
      </trkpt>
      <trkpt lat="43.70942" lon="3.44831">
        <ele>192.4</ele>
        <time>2013-03-03T15:56:06Z</time>
      </trkpt>
      <trkpt lat="43.70945" lon="3.44813">
        <ele>191.92</ele>
        <time>2013-03-03T15:56:24Z</time>
      </trkpt>
      <trkpt lat="43.70947" lon="3.44798">
        <ele>191.92</ele>
        <time>2013-03-03T15:56:36Z</time>
      </trkpt>
      <trkpt lat="43.70951" lon="3.44786">
        <ele>191.92</ele>
        <time>2013-03-03T15:56:52Z</time>
      </trkpt>
      <trkpt lat="43.70952" lon="3.44789">
        <ele>191.92</ele>
        <time>2013-03-03T15:57:16Z</time>
      </trkpt>
      <trkpt lat="43.70953" lon="3.4479">
        <ele>191.92</ele>
        <time>2013-03-03T15:57:43Z</time>
      </trkpt>
      <trkpt lat="43.70952" lon="3.44787">
        <ele>191.92</ele>
        <time>2013-03-03T15:58:01Z</time>
      </trkpt>
      <trkpt lat="43.70952" lon="3.44786">
        <ele>191.92</ele>
        <time>2013-03-03T15:58:25Z</time>
      </trkpt>
      <trkpt lat="43.7095" lon="3.44788">
        <ele>191.92</ele>
        <time>2013-03-03T15:58:48Z</time>
      </trkpt>
      <trkpt lat="43.70949" lon="3.44787">
        <ele>192.4</ele>
        <time>2013-03-03T15:59:10Z</time>
      </trkpt>
      <trkpt lat="43.70949" lon="3.4479">
        <ele>191.92</ele>
        <time>2013-03-03T15:59:26Z</time>
      </trkpt>
      <trkpt lat="43.70949" lon="3.4479">
        <ele>192.4</ele>
        <time>2013-03-03T15:59:46Z</time>
      </trkpt>
      <trkpt lat="43.7095" lon="3.44788">
        <ele>192.4</ele>
        <time>2013-03-03T16:00:11Z</time>
      </trkpt>
      <trkpt lat="43.70951" lon="3.44789">
        <ele>192.4</ele>
        <time>2013-03-03T16:00:33Z</time>
      </trkpt>
      <trkpt lat="43.70952" lon="3.44788">
        <ele>192.4</ele>
        <time>2013-03-03T16:00:57Z</time>
      </trkpt>
      <trkpt lat="43.70952" lon="3.4479">
        <ele>192.88</ele>
        <time>2013-03-03T16:01:14Z</time>
      </trkpt>
      <trkpt lat="43.7095" lon="3.44792">
        <ele>192.88</ele>
        <time>2013-03-03T16:01:41Z</time>
      </trkpt>
      <trkpt lat="43.70951" lon="3.4479">
        <ele>192.4</ele>
        <time>2013-03-03T16:02:00Z</time>
      </trkpt>
      <trkpt lat="43.70951" lon="3.44793">
        <ele>192.88</ele>
        <time>2013-03-03T16:02:03Z</time>
      </trkpt>
      <trkpt lat="43.70951" lon="3.44809">
        <ele>192.4</ele>
        <time>2013-03-03T16:02:18Z</time>
      </trkpt>
      <trkpt lat="43.70953" lon="3.44816">
        <ele>193.84</ele>
        <time>2013-03-03T16:02:30Z</time>
      </trkpt>
      <trkpt lat="43.70947" lon="3.44817">
        <ele>192.88</ele>
        <time>2013-03-03T16:02:51Z</time>
      </trkpt>
      <trkpt lat="43.70946" lon="3.44812">
        <ele>192.88</ele>
        <time>2013-03-03T16:02:55Z</time>
      </trkpt>
      <trkpt lat="43.70949" lon="3.44793">
        <ele>192.88</ele>
        <time>2013-03-03T16:03:12Z</time>
      </trkpt>
      <trkpt lat="43.70949" lon="3.44792">
        <ele>192.88</ele>
        <time>2013-03-03T16:03:27Z</time>
      </trkpt>
      <trkpt lat="43.7095" lon="3.44791">
        <ele>192.88</ele>
        <time>2013-03-03T16:03:53Z</time>
      </trkpt>
      <trkpt lat="43.70951" lon="3.44792">
        <ele>192.88</ele>
        <time>2013-03-03T16:04:06Z</time>
      </trkpt>
      <trkpt lat="43.7095" lon="3.44788">
        <ele>192.88</ele>
        <time>2013-03-03T16:04:21Z</time>
      </trkpt>
      <trkpt lat="43.7095" lon="3.44788">
        <ele>192.88</ele>
        <time>2013-03-03T16:04:42Z</time>
      </trkpt>
      <trkpt lat="43.7095" lon="3.44787">
        <ele>192.88</ele>
        <time>2013-03-03T16:05:00Z</time>
      </trkpt>
      <trkpt lat="43.7095" lon="3.44784">
        <ele>192.88</ele>
        <time>2013-03-03T16:05:24Z</time>
      </trkpt>
      <trkpt lat="43.70952" lon="3.44784">
        <ele>192.4</ele>
        <time>2013-03-03T16:05:48Z</time>
      </trkpt>
      <trkpt lat="43.70951" lon="3.44786">
        <ele>192.88</ele>
        <time>2013-03-03T16:06:13Z</time>
      </trkpt>
      <trkpt lat="43.70951" lon="3.44786">
        <ele>192.4</ele>
        <time>2013-03-03T16:06:35Z</time>
      </trkpt>
      <trkpt lat="43.70952" lon="3.44785">
        <ele>192.4</ele>
        <time>2013-03-03T16:06:56Z</time>
      </trkpt>
      <trkpt lat="43.70951" lon="3.44783">
        <ele>192.4</ele>
        <time>2013-03-03T16:07:16Z</time>
      </trkpt>
      <trkpt lat="43.70949" lon="3.44766">
        <ele>192.4</ele>
        <time>2013-03-03T16:07:31Z</time>
      </trkpt>
      <trkpt lat="43.70949" lon="3.44744">
        <ele>191.92</ele>
        <time>2013-03-03T16:07:46Z</time>
      </trkpt>
      <trkpt lat="43.70937" lon="3.44719">
        <ele>190.96</ele>
        <time>2013-03-03T16:08:04Z</time>
      </trkpt>
      <trkpt lat="43.70925" lon="3.447">
        <ele>190.96</ele>
        <time>2013-03-03T16:08:19Z</time>
      </trkpt>
      <trkpt lat="43.70915" lon="3.44672">
        <ele>190.48</ele>
        <time>2013-03-03T16:08:36Z</time>
      </trkpt>
      <trkpt lat="43.70903" lon="3.44647">
        <ele>190</ele>
        <time>2013-03-03T16:08:54Z</time>
      </trkpt>
      <trkpt lat="43.70898" lon="3.44622">
        <ele>190</ele>
        <time>2013-03-03T16:09:10Z</time>
      </trkpt>
      <trkpt lat="43.70896" lon="3.44615">
        <ele>190</ele>
        <time>2013-03-03T16:09:14Z</time>
      </trkpt>
      <trkpt lat="43.70892" lon="3.4458">
        <ele>191.44</ele>
        <time>2013-03-03T16:09:35Z</time>
      </trkpt>
      <trkpt lat="43.70891" lon="3.44548">
        <ele>192.88</ele>
        <time>2013-03-03T16:09:55Z</time>
      </trkpt>
      <trkpt lat="43.70889" lon="3.44517">
        <ele>194.8</ele>
        <time>2013-03-03T16:10:14Z</time>
      </trkpt>
      <trkpt lat="43.70882" lon="3.44494">
        <ele>195.28</ele>
        <time>2013-03-03T16:10:30Z</time>
      </trkpt>
      <trkpt lat="43.70863" lon="3.44482">
        <ele>193.36</ele>
        <time>2013-03-03T16:10:47Z</time>
      </trkpt>
      <trkpt lat="43.70843" lon="3.44475">
        <ele>190.96</ele>
        <time>2013-03-03T16:11:05Z</time>
      </trkpt>
      <trkpt lat="43.70819" lon="3.44471">
        <ele>189.04</ele>
        <time>2013-03-03T16:11:24Z</time>
      </trkpt>
      <trkpt lat="43.70798" lon="3.44452">
        <ele>186.63</ele>
        <time>2013-03-03T16:11:43Z</time>
      </trkpt>
      <trkpt lat="43.70778" lon="3.44432">
        <ele>184.71</ele>
        <time>2013-03-03T16:12:02Z</time>
      </trkpt>
      <trkpt lat="43.70768" lon="3.44401">
        <ele>185.19</ele>
        <time>2013-03-03T16:12:21Z</time>
      </trkpt>
      <trkpt lat="43.70767" lon="3.44372">
        <ele>186.63</ele>
        <time>2013-03-03T16:12:38Z</time>
      </trkpt>
      <trkpt lat="43.70766" lon="3.44339">
        <ele>188.08</ele>
        <time>2013-03-03T16:12:58Z</time>
      </trkpt>
      <trkpt lat="43.70764" lon="3.44308">
        <ele>189.52</ele>
        <time>2013-03-03T16:13:16Z</time>
      </trkpt>
      <trkpt lat="43.70759" lon="3.44282">
        <ele>190.96</ele>
        <time>2013-03-03T16:13:32Z</time>
      </trkpt>
      <trkpt lat="43.70753" lon="3.44257">
        <ele>192.4</ele>
        <time>2013-03-03T16:13:48Z</time>
      </trkpt>
      <trkpt lat="43.7075" lon="3.44232">
        <ele>193.84</ele>
        <time>2013-03-03T16:14:03Z</time>
      </trkpt>
      <trkpt lat="43.70751" lon="3.44191">
        <ele>194.32</ele>
        <time>2013-03-03T16:14:26Z</time>
      </trkpt>
      <trkpt lat="43.70747" lon="3.44158">
        <ele>193.84</ele>
        <time>2013-03-03T16:14:45Z</time>
      </trkpt>
      <trkpt lat="43.7074" lon="3.44124">
        <ele>192.88</ele>
        <time>2013-03-03T16:15:06Z</time>
      </trkpt>
      <trkpt lat="43.70734" lon="3.44089">
        <ele>191.44</ele>
        <time>2013-03-03T16:15:26Z</time>
      </trkpt>
      <trkpt lat="43.70728" lon="3.44055">
        <ele>189.52</ele>
        <time>2013-03-03T16:15:46Z</time>
      </trkpt>
      <trkpt lat="43.70716" lon="3.4403">
        <ele>188.56</ele>
        <time>2013-03-03T16:16:03Z</time>
      </trkpt>
      <trkpt lat="43.70696" lon="3.4401">
        <ele>187.59</ele>
        <time>2013-03-03T16:16:24Z</time>
      </trkpt>
      <trkpt lat="43.70671" lon="3.43995">
        <ele>186.63</ele>
        <time>2013-03-03T16:16:46Z</time>
      </trkpt>
      <trkpt lat="43.7065" lon="3.43982">
        <ele>185.19</ele>
        <time>2013-03-03T16:17:04Z</time>
      </trkpt>
      <trkpt lat="43.70649" lon="3.43982">
        <ele>184.71</ele>
        <time>2013-03-03T16:17:05Z</time>
      </trkpt>
      <trkpt lat="43.70628" lon="3.43993">
        <ele>184.71</ele>
        <time>2013-03-03T16:17:24Z</time>
      </trkpt>
      <trkpt lat="43.70605" lon="3.44005">
        <ele>183.75</ele>
        <time>2013-03-03T16:17:43Z</time>
      </trkpt>
      <trkpt lat="43.70575" lon="3.44015">
        <ele>181.35</ele>
        <time>2013-03-03T16:18:07Z</time>
      </trkpt>
      <trkpt lat="43.70562" lon="3.44019">
        <ele>180.38</ele>
        <time>2013-03-03T16:18:18Z</time>
      </trkpt>
      <trkpt lat="43.70543" lon="3.44029">
        <ele>179.42</ele>
        <time>2013-03-03T16:18:37Z</time>
      </trkpt>
      <trkpt lat="43.70542" lon="3.4403">
        <ele>179.42</ele>
        <time>2013-03-03T16:18:50Z</time>
      </trkpt>
      <trkpt lat="43.7054" lon="3.44031">
        <ele>178.94</ele>
        <time>2013-03-03T16:19:10Z</time>
      </trkpt>
      <trkpt lat="43.7054" lon="3.44031">
        <ele>179.42</ele>
        <time>2013-03-03T16:19:31Z</time>
      </trkpt>
      <trkpt lat="43.7054" lon="3.44031">
        <ele>178.94</ele>
        <time>2013-03-03T16:19:53Z</time>
      </trkpt>
      <trkpt lat="43.70541" lon="3.44031">
        <ele>179.42</ele>
        <time>2013-03-03T16:20:15Z</time>
      </trkpt>
    </trkseg>
  </trk>
  <trk>
    <name><![CDATA[Tracé actuel: 03 MARS 2013 17:20]]></name>
    <trkseg>
      <trkpt lat="43.7054" lon="3.4403">
        <ele>179.42</ele>
        <time>2013-03-03T16:20:32Z</time>
      </trkpt>
      <trkpt lat="43.7054" lon="3.4403">
        <ele>177.98</ele>
        <time>2013-03-03T16:20:35Z</time>
      </trkpt>
    </trkseg>
  </trk>
</gpx>